[[{"header":{"parameterUnit":"m.s-1","parameterCategory":1,"la1":30.6,"la2":29.2853,"lo1":-89.7004,"lo2":-87.6739,"dy":0.0162,"dx":0.0183,"nx":112,"ny":82,"refTime":"2023-03-07T06:00:00:Z","depth":0,"parameterNumber":2,"parameterNumberName":"U-component_of_WINDS"},"data":[0.0,0.0,0.0,0.0,0.0,0.0,0.0,0.0,0.0,0.0,0.0,0.0,0.0,0.0,0.0,0.0,0.0,0.0,0.0,0.0,0.0,0.0,0.0,0.0,0.0,0.0,0.0,0.0,0.0,0.0,0.0,0.0,0.0,0.0,0.0,0.0,0.0,0.0,0.0,0.0,0.0,0.0,0.0,0.0,0.0,0.0,0.0,0.0,0.0,0.0,0.0,0.0,0.0,0.0,0.0,0.0,0.0,0.0,0.0,0.0,0.0,0.0,0.0,0.0,0.0,0.0,0.0,0.0,0.0,0.0,0.0,0.0,0.0,0.0,0.0,0.0,0.0,0.0,0.0,0.0,0.0,0.0,0.0,0.0,0.0,0.0,0.0,0.0,0.0,0.0,-0.2275,-0.244,-0.2562,-0.2662,-0.2772,-0.3467,-0.4125,-0.4695,0.0,0.0,0.0,0.0,0.0,0.0,0.0,0.0,0.0,0.0,0.0,0.0,0.0,0.0,0.0,0.0,0.0,0.0,0.0,0.0,0.0,0.0,0.0,0.0,0.0,0.0,0.0,0.0,0.0,0.0,0.0,0.0,0.0,0.0,0.0,0.0,0.0,0.0,0.0,0.0,0.0,0.0,0.0,0.0,0.0,0.0,0.0,0.0,0.0,0.0,0.0,0.0,0.0,0.0,0.0,0.0,0.0,0.0,0.0,0.0,0.0,0.0,0.0,0.0,0.0,0.0,0.0,0.0,0.0,0.0,0.0,0.0,0.0,0.0,0.0,0.0,0.0,0.0,0.0,0.0,0.0,0.0,0.0,0.0,0.0,0.0,0.0,0.0,0.0,0.0,0.0,0.0,0.0,0.0,0.0,0.0,0.0,0.0,0.0,0.0,0.0,0.0,0.0,0.0,-0.2997,-0.2683,-0.2434,-0.2402,-0.2693,-0.2837,-0.3347,-0.4391,0.0,0.0,0.0,0.0,0.0,0.0,0.0,0.0,0.0,0.0,0.0,0.0,0.0,0.0,0.0,0.0,0.0,0.0,0.0,0.0,0.0,0.0,0.0,0.0,0.0,0.0,0.0,0.0,0.0,0.0,0.0,0.0,0.0,0.0,0.0,0.0,0.0,0.0,0.0,0.0,0.0,0.0,0.0,0.0,0.0,0.0,0.0,0.0,0.0,0.0,0.0,0.0,0.0,0.0,0.0,0.0,0.0,0.0,0.0,0.0,0.0,0.0,0.0,0.0,0.0,0.0,0.0,0.0,0.0,0.0,0.0,0.0,0.0,0.0,0.0,0.0,0.0,0.0,0.0,0.0,0.0,0.0,0.0,0.0,0.0,0.0,0.0,0.0,0.0,0.0,0.0,0.0,0.0,0.0,0.0,0.0,0.0,0.0,0.0,0.0,0.0,0.0,0.0,-0.2442,-0.2499,-0.2249,-0.2066,-0.211,-0.2415,-0.2437,-0.286,-0.3862,-0.3879,0.0,0.0,0.0,0.0,0.0,0.0,0.0,0.0,0.0,0.0,0.0,0.0,0.0,0.0,0.0,0.0,0.0,0.0,0.0,0.0,0.0,0.0,0.0,0.0,0.0,0.0,0.0,0.0,0.0,0.0,0.0,0.0,0.0,0.0,0.0,0.0,0.0,0.0,0.0,0.0,0.0,0.0,0.0,0.0,0.0,0.0,0.0,0.0,0.0,0.0,0.0,0.0,0.0,0.0,0.0,0.0,0.0,0.0,0.0,0.0,0.0,0.0,0.0,0.0,0.0,0.0,0.0,0.0,0.0,0.0,0.0,0.0,0.0,0.0,0.0,0.0,0.0,0.0,0.0,0.0,0.0,0.0,0.0,0.0,0.0,0.0,0.0,0.0,0.0,0.0,0.0,0.0,0.0,0.0,0.0,0.0,0.0,0.0,0.0,0.0,0.0,0.0,-0.2071,-0.1913,-0.1816,-0.1803,-0.1891,-0.2088,-0.2106,-0.2497,-0.343,-0.2924,0.0,0.0,0.0,0.0,0.0,0.0,0.0,0.0,0.0,0.0,0.0,0.0,0.0,0.0,0.0,0.0,0.0,0.0,0.0,0.0,0.0,0.0,0.0,0.0,0.0,0.0,0.0,0.0,0.0,0.0,0.0,0.0,0.0,0.0,0.0,0.0,0.0,0.0,0.0,0.0,0.0,0.0,0.0,0.0,0.0,0.0,0.0,0.0,0.0,0.0,0.0,0.0,0.0,0.0,0.0,0.0,0.0,0.0,0.0,0.0,0.0,0.0,0.0,0.0,0.0,0.0,0.0,0.0,0.0,0.0,0.0,0.0,0.0,0.0,0.0,0.0,0.0,0.0,0.0,0.0,0.0,0.0,0.0,0.0,0.0,0.0,0.0,0.0,0.0,0.0,0.0,0.0,0.0,0.0,0.0,0.0,0.0,0.0,0.0,0.0,0.0,0.0,-0.2313,-0.1816,-0.1806,-0.1803,-0.1803,-0.1825,-0.1825,-0.2307,-0.3428,-0.2716,0.0,0.0,0.0,0.0,0.0,0.0,0.0,0.0,0.0,0.0,0.0,0.0,0.0,0.0,0.0,0.0,0.0,0.0,0.0,0.0,0.0,0.0,0.0,0.0,0.0,0.0,0.0,0.0,0.0,0.0,0.0,0.0,0.0,0.0,0.0,0.0,0.0,0.0,0.0,0.0,0.0,0.0,0.0,0.0,0.0,0.0,0.0,0.0,0.0,0.0,0.0,0.0,0.0,0.0,0.0,0.0,0.0,0.0,0.0,0.0,0.0,0.0,0.0,0.0,0.0,0.0,0.0,0.0,0.0,0.0,0.0,0.0,0.0,0.0,0.0,0.0,0.0,0.0,0.0,0.0,0.0,0.0,0.0,0.0,0.0,0.0,0.0,0.0,0.0,0.0,0.0,0.0,0.0,0.0,0.0,0.0,0.0,0.0,0.0,0.0,0.0,0.0,-0.2143,-0.1886,-0.1813,-0.1803,-0.1803,-0.1803,-0.1803,-0.2139,-0.2964,0.0,0.0,0.0,0.0,0.0,0.0,0.0,0.0,0.0,0.0,0.0,0.0,0.0,0.0,0.0,0.0,0.0,0.0,0.0,0.0,0.0,0.0,0.0,0.0,0.0,0.0,0.0,0.0,0.0,0.0,0.0,0.0,0.0,0.0,0.0,0.0,0.0,0.0,0.0,0.0,0.0,0.0,0.0,0.0,0.0,0.0,0.0,0.0,0.0,0.0,0.0,0.0,0.0,0.0,0.0,0.0,0.0,0.0,0.0,0.0,0.0,0.0,0.0,0.0,0.0,0.0,0.0,0.0,0.0,0.0,0.0,0.0,0.0,0.0,0.0,0.0,0.0,0.0,0.0,0.0,0.0,0.0,0.0,0.0,0.0,0.0,0.0,0.0,0.0,0.0,0.0,0.0,0.0,0.0,0.0,0.0,0.0,0.0,0.0,0.0,0.0,0.0,-0.224,-0.2049,-0.1896,-0.1813,-0.1803,-0.1803,-0.1803,-0.1847,-0.2063,-0.2583,0.0,0.0,0.0,0.0,0.0,0.0,0.0,0.0,0.0,0.0,0.0,0.0,0.0,0.0,0.0,0.0,0.0,0.0,0.0,0.0,0.0,0.0,0.0,0.0,0.0,0.0,0.0,0.0,0.0,0.0,0.0,0.0,0.0,0.0,0.0,0.0,0.0,0.0,0.0,0.0,0.0,0.0,0.0,0.0,0.0,0.0,0.0,0.0,0.0,0.0,0.0,0.0,0.0,0.0,0.0,0.0,0.0,0.0,0.0,0.0,0.0,0.0,0.0,0.0,0.0,0.0,0.0,0.0,0.0,0.0,0.0,0.0,0.0,0.0,0.0,0.0,0.0,0.0,0.0,0.0,0.0,0.0,0.0,0.0,0.0,0.0,0.0,0.0,0.0,0.0,0.0,0.0,0.0,0.0,0.0,0.0,0.0,0.0,0.0,0.0,0.0,0.0,-0.2353,-0.205,-0.1803,-0.1803,-0.1803,-0.1803,-0.1803,-0.1923,-0.2123,0.0,0.0,0.0,0.0,0.0,0.0,0.0,0.0,0.0,0.0,0.0,0.0,0.0,0.0,0.0,0.0,0.0,0.0,0.0,0.0,0.0,0.0,0.0,0.0,0.0,0.0,0.0,0.0,0.0,0.0,0.0,0.0,0.0,0.0,0.0,0.0,0.0,0.0,0.0,0.0,0.0,0.0,0.0,0.0,0.0,0.0,0.0,0.0,0.0,0.0,0.0,0.0,0.0,0.0,0.0,0.0,0.0,0.0,0.0,0.0,0.0,0.0,0.0,0.0,0.0,0.0,0.0,0.0,0.0,0.0,0.0,0.0,0.0,0.0,0.0,0.0,0.0,0.0,0.0,0.0,0.0,0.0,0.0,0.0,0.0,0.0,0.0,0.0,0.0,0.0,0.0,0.0,0.0,0.0,0.0,0.0,0.0,0.0,0.0,0.0,0.0,0.0,0.0,-0.2022,-0.1872,-0.1791,-0.1806,-0.1803,-0.1803,-0.1803,-0.1923,-0.2123,-0.2395,0.0,0.0,0.0,0.0,0.0,0.0,0.0,0.0,0.0,0.0,0.0,0.0,0.0,0.0,0.0,0.0,0.0,0.0,0.0,0.0,0.0,0.0,0.0,0.0,0.0,0.0,0.0,0.0,0.0,0.0,0.0,0.0,0.0,0.0,0.0,0.0,0.0,0.0,0.0,0.0,0.0,0.0,0.0,0.0,0.0,0.0,0.0,0.0,0.0,0.0,0.0,0.0,0.0,0.0,0.0,0.0,0.0,0.0,0.0,0.0,0.0,0.0,0.0,0.0,0.0,0.0,0.0,0.0,0.0,0.0,0.0,0.0,0.0,0.0,0.0,0.0,0.0,0.0,0.0,0.0,0.0,0.0,0.0,0.0,0.0,0.0,0.0,0.0,0.0,0.0,0.0,0.0,0.0,0.0,0.0,0.0,0.0,0.0,0.0,0.0,0.0,0.0,-0.1143,-0.1489,-0.1794,-0.1809,-0.1796,-0.1809,-0.1809,-0.1941,-0.2073,-0.2172,0.0,0.0,0.0,0.0,0.0,0.0,0.0,0.0,0.0,0.0,0.0,0.0,0.0,0.0,0.0,0.0,0.0,0.0,0.0,0.0,0.0,0.0,0.0,0.0,0.0,0.0,0.0,0.0,0.0,0.0,0.0,0.0,0.0,0.0,0.0,0.0,0.0,0.0,0.0,0.0,0.0,0.0,0.0,0.0,0.0,0.0,0.0,0.0,0.0,0.0,0.0,0.0,0.0,0.0,0.0,0.0,0.0,0.0,0.0,0.0,0.0,0.0,0.0,0.0,0.0,0.0,0.0,0.0,0.0,0.0,0.0,0.0,0.0,0.0,0.0,0.0,0.0,0.0,0.0,0.0,0.0,0.0,0.0,0.0,0.0,0.0,0.0,0.0,0.0,0.0,0.0,0.0,0.0,0.0,0.0,0.0,0.0,0.0,0.0,0.0,0.0,0.0,-0.0,-0.0955,-0.1657,-0.1728,-0.1784,-0.1811,-0.1796,-0.192,-0.1928,-0.1816,0.0,0.0,0.0,0.0,0.0,0.0,0.0,0.0,0.0,0.0,0.0,0.0,0.0,0.0,0.0,0.0,0.0,0.0,0.0,0.0,0.0,0.0,0.0,0.0,0.0,0.0,0.0,0.0,0.0,0.0,0.0,0.0,0.0,0.0,0.0,0.0,0.0,0.0,0.0,0.0,0.0,0.0,0.0,0.0,0.0,0.0,0.0,0.0,0.0,0.0,0.0,0.0,0.0,0.0,0.0,0.0,0.0,0.0,0.0,0.0,-0.4042,0.0,0.0,0.0,0.0,0.0,0.0,0.0,0.0,0.0,0.0,0.0,0.0,0.0,0.0,0.0,0.0,0.0,0.0,0.0,0.0,0.0,0.0,0.0,0.0,0.0,0.0,0.0,0.0,0.0,0.0,0.0,0.0,0.0,0.0,0.0,0.0,0.0,0.0,0.0,0.0,0.0,-0.0107,-0.0233,-0.0637,-0.1253,-0.1607,-0.1804,-0.1805,-0.14,-0.1354,-0.1782,-0.2182,0.0,0.0,0.0,0.0,0.0,0.0,0.0,0.0,0.0,0.0,0.0,0.0,0.0,0.0,0.0,0.0,0.0,0.0,0.0,0.0,0.0,0.0,0.0,0.0,0.0,0.0,0.0,0.0,0.0,0.0,0.0,0.0,0.0,0.0,0.0,0.0,0.0,0.0,0.0,0.0,0.0,0.0,0.0,0.0,0.0,0.0,0.0,0.0,0.0,0.0,0.0,0.0,0.0,0.0,0.0,0.0,0.0,0.0,0.0,0.0,-0.3886,0.0,0.0,0.0,0.0,0.0,0.0,0.0,0.0,0.0,0.0,0.0,0.0,0.0,0.0,0.0,0.0,0.0,0.0,0.0,0.0,0.0,0.0,0.0,0.0,0.0,0.0,0.0,0.0,0.0,0.0,0.0,0.0,0.0,0.0,0.0,0.0,0.0,0.0,0.0,0.0,-0.0688,-0.061,-0.0924,-0.1699,-0.1895,-0.1828,-0.1401,-0.1613,-0.1527,-0.0974,-0.2045,0.0,0.0,0.0,0.0,0.0,0.0,0.0,0.0,0.0,0.0,0.0,0.0,0.0,0.0,0.0,0.0,0.0,0.0,0.0,0.0,0.0,0.0,0.0,0.0,0.0,0.0,0.0,0.0,0.0,0.0,0.0,0.0,0.0,0.0,0.0,0.0,0.0,0.0,0.0,0.0,0.0,0.0,0.0,0.0,0.0,0.0,0.0,0.0,0.0,0.0,0.0,0.0,0.0,-0.8459,-0.8513,-0.814,-0.777,-0.7317,-0.6699,-0.521,-0.4342,-0.3946,-0.3507,0.0,0.0,0.0,0.0,0.0,0.0,0.0,0.0,0.0,0.0,0.0,0.0,0.0,0.0,0.0,0.0,0.0,0.0,0.0,0.0,0.0,0.0,0.0,0.0,-0.4008,-0.4391,0.0,0.0,0.0,0.0,0.0,0.0,0.0,0.0,0.0,0.0,0.0,0.0,-0.1546,-0.1529,-0.1759,-0.2339,-0.2325,-0.1964,-0.1202,-0.1789,-0.1579,-0.0101,-0.1406,-0.1566,0.0,0.0,0.0,0.0,0.0,0.0,0.0,0.0,0.0,0.0,0.0,0.0,0.0,0.0,0.0,0.0,0.0,0.0,0.0,0.0,0.0,0.0,0.0,0.0,0.0,0.0,0.0,0.0,0.0,0.0,0.0,0.0,-0.957,-1.042,0.0,0.0,0.0,0.0,0.0,0.0,0.0,0.0,0.0,0.0,0.0,0.0,0.0,-0.8765,-0.8212,-0.837,-0.8245,-0.7843,-0.8471,-0.8743,-0.8671,-0.8299,-0.8216,-0.8309,-0.6645,0.0,-0.4694,-0.3822,0.0,0.0,0.0,0.0,0.0,0.0,0.0,0.0,0.0,0.0,0.0,0.0,0.0,0.0,0.0,0.0,0.0,0.0,0.0,0.0,0.0,0.0,-0.2927,-0.3474,-0.4008,-0.4264,0.0,-0.3711,-0.3667,-0.3622,-0.3581,0.0,0.0,0.0,0.0,0.0,0.0,0.0,-0.257,-0.2515,-0.2499,-0.2408,-0.2542,-0.2482,-0.2074,-0.1007,-0.0269,-0.0,-0.0237,-0.0243,-0.0,-0.0,0.0,0.0,0.0,0.0,0.0,0.0,0.0,0.0,0.0,0.0,0.0,0.0,0.0,0.0,0.0,0.0,0.0,0.0,0.0,0.0,0.0,0.0,0.0,0.0,0.0,0.0,0.0,0.0,0.0,-1.2259,-1.2014,-1.2482,-1.2701,-1.2541,0.0,0.0,0.0,0.0,0.0,0.0,0.0,0.0,0.0,-0.8124,-0.8803,-0.8887,-0.8281,-0.8824,-0.9004,-0.8806,-0.9608,-0.9876,-0.9635,-0.9223,-0.9014,-0.883,-0.7495,-0.6599,-0.5988,-0.499,-0.4572,-0.4541,0.0,0.0,0.0,0.0,-0.5132,-0.4762,-0.4749,-0.4548,0.0,-0.4309,0.0,0.0,0.0,0.0,0.0,0.0,0.0,0.0,0.0,0.0,-0.3028,-0.3504,-0.3796,-0.388,-0.3667,-0.3581,-0.3581,0.0,-0.3581,-0.3605,-0.3687,0.0,0.0,0.0,0.0,-0.313,-0.2937,-0.278,-0.2652,-0.2588,-0.2649,-0.2629,-0.2501,-0.1389,-0.0536,-0.0034,-0.0,-0.0,-0.0,-0.0,-0.0,0.0,0.0,0.0,0.0,0.0,0.0,0.0,0.0,0.0,0.0,0.0,0.0,0.0,0.0,0.0,0.0,0.0,0.0,0.0,0.0,0.0,0.0,0.0,0.0,0.0,0.0,0.0,0.0,-1.2656,-1.3639,-1.3361,-1.2914,-1.2492,0.0,0.0,0.0,0.0,0.0,0.0,-0.8672,-0.8977,-0.8965,-0.86,-0.9104,-0.9165,-0.8733,-0.9517,-0.9923,-0.9933,-1.084,-1.099,-1.0536,-1.0081,-0.9644,-0.9209,-0.8098,-0.7455,-0.7135,-0.6061,-0.5356,-0.4959,-0.5127,-0.5434,-0.5868,-0.5868,-0.5664,-0.5389,-0.5249,-0.4703,-0.4121,-0.4235,-0.4328,-0.4314,-0.3934,0.0,0.0,0.0,0.0,-0.2636,-0.2775,-0.3004,-0.3271,-0.3571,-0.3636,-0.3646,-0.3683,-0.3693,-0.367,0.0,-0.3581,-0.3612,-0.3721,0.0,0.0,0.0,0.0,-0.3125,-0.3088,-0.2862,-0.2712,-0.2712,-0.2712,-0.2686,-0.2696,-0.1911,-0.1104,-0.0369,-0.0134,-0.0,-0.0,-0.0,-0.0,-0.0,0.0,0.0,0.0,0.0,0.0,0.0,0.0,0.0,0.0,0.0,0.0,0.0,0.0,0.0,0.0,0.0,0.0,0.0,0.0,0.0,0.0,0.0,0.0,0.0,0.0,0.0,0.0,0.0,0.0,-0.9952,-0.9757,0.0,0.0,0.0,0.0,-1.0262,-1.035,-0.9872,-0.8588,-0.9185,-0.9333,-0.8814,-0.9304,-0.9785,-1.0186,-1.0625,-1.084,-1.0859,-1.1738,-1.1807,-1.1147,-1.0617,-1.0148,-0.9709,-0.8428,-0.7848,-0.7769,-0.6697,-0.6098,-0.5832,-0.59,-0.5969,-0.5969,-0.5969,-0.5914,-0.5738,-0.5495,-0.4804,-0.4109,-0.4117,-0.375,-0.3298,-0.3424,-0.3155,0.0,0.0,-0.2998,-0.3143,-0.3091,-0.3102,-0.3213,-0.3668,-0.3782,-0.3822,-0.3968,-0.3995,-0.3914,0.0,-0.3581,-0.3581,-0.3588,0.0,-0.3737,-0.3609,-0.3446,-0.3246,-0.3102,-0.2862,-0.2712,-0.2712,-0.2712,-0.2686,-0.2696,-0.2117,-0.1609,-0.1271,-0.0469,-0.0,-0.0,-0.0,-0.0,-0.0,-0.0,0.0,0.0,0.0,0.0,0.0,0.0,0.0,0.0,0.0,0.0,0.0,0.0,0.0,0.0,0.0,0.0,0.0,0.0,0.0,0.0,0.0,0.0,0.0,0.0,0.0,0.0,0.0,0.0,-1.2497,-1.1794,0.0,-1.2216,-1.161,-1.0926,-1.0285,-1.0245,-0.9826,-0.8855,-0.9316,-0.9777,-1.0138,-1.0332,-1.0664,-1.1145,-1.1543,-1.1525,-1.1093,-1.1657,-1.1567,-1.0921,-1.0282,-0.9957,-0.9755,-0.8885,-0.839,-0.819,-0.7822,-0.7352,-0.6943,-0.7159,-0.7225,-0.7225,-0.7225,-0.7199,-0.7086,-0.6657,-0.5989,-0.5193,-0.4409,-0.4039,-0.384,-0.3734,-0.3583,-0.3427,-0.3163,-0.3259,-0.3389,-0.3381,-0.3523,-0.3711,-0.391,-0.3938,-0.3955,-0.4009,-0.4019,-0.3988,-0.3883,-0.3785,-0.3748,-0.3846,-0.3748,-0.367,-0.371,-0.3422,-0.3142,-0.3088,-0.2862,-0.2712,-0.2712,-0.2712,-0.2686,-0.2696,-0.2493,-0.232,-0.2217,-0.1914,-0.1208,-0.0034,-0.0,-0.0,-0.0,-0.0,0.0307,0.0,0.0,0.0,0.0,0.0,0.0,0.0,0.0,0.0,0.0,0.0,0.0,0.0,0.0,0.0,0.0,0.0,0.0,0.0,0.0,0.0,0.0,0.0,0.0,0.0,0.0,-1.2289,-1.3899,-1.3037,-1.263,-1.3485,-1.2415,-1.1419,-1.0788,-1.0647,-1.0287,-0.9685,-1.0049,-1.0485,-1.1008,-1.0984,-1.1236,-1.1645,-1.194,-1.1836,-1.1388,-1.1688,-1.1316,-1.0466,-1.0012,-0.9666,-0.9465,-0.9008,-0.8697,-0.8517,-0.8517,-0.8283,-0.7916,-0.7929,-0.7882,-0.7882,-0.7882,-0.7996,-0.7944,-0.7183,-0.6606,-0.5969,-0.4707,-0.4321,-0.4257,-0.4046,-0.3997,-0.3971,-0.3584,-0.3617,-0.3746,-0.3694,-0.385,-0.4033,-0.4033,-0.4046,-0.4111,-0.4158,-0.4168,-0.4168,-0.4168,-0.4005,-0.3883,-0.3934,-0.3782,-0.3683,-0.3778,-0.3453,-0.3215,-0.3269,-0.2974,-0.2757,-0.2757,-0.2713,-0.2683,-0.269,-0.274,-0.2751,-0.27,-0.2713,-0.2162,-0.0977,-0.0308,-0.0,-0.0,-0.0,-0.0,-0.0,0.0,0.0,0.0,0.0,0.0,0.0,0.0,0.0,0.0,0.0,0.0,0.0,0.0,0.0,0.0,0.0,0.0,0.0,0.0,0.0,0.0,0.0,0.0,-1.3361,-1.3277,-1.3331,-1.3694,-1.3063,-1.2622,-1.2755,-1.1926,-1.1526,-1.1822,-1.1627,-1.1328,-1.0947,-1.1348,-1.15,-1.1237,-1.1208,-1.1388,-1.1765,-1.1765,-1.1765,-1.1765,-1.1765,-1.1065,-0.9762,-0.9762,-0.9413,-0.8804,-0.8804,-0.8804,-0.8804,-0.8804,-0.8804,-0.8751,-0.8176,-0.7908,-0.7908,-0.7908,-0.8143,-0.8221,-0.7046,-0.6642,-0.6367,-0.5007,-0.4515,-0.4491,-0.4244,-0.4351,-0.4457,-0.4114,-0.409,-0.4167,-0.4073,-0.4033,-0.407,-0.4167,-0.4204,-0.4241,-0.4433,-0.4519,-0.4519,-0.4519,-0.4229,-0.3985,-0.3832,-0.3795,-0.3785,-0.3792,-0.3585,0.0,-0.3598,-0.3188,-0.2917,-0.2917,-0.2788,-0.2733,-0.273,-0.2835,-0.2862,-0.272,-0.2705,-0.2688,-0.27,-0.1032,-0.0073,-0.0,-0.0,-0.0,-0.0,0.0,0.0,0.0,0.0,0.0,0.0,0.0,0.0,0.0,0.0,0.0,0.0,0.0,0.0,0.0,0.0,0.0,0.0,0.0,0.0,0.0,0.0,-1.4166,-1.3697,-1.3254,-1.3439,-1.4648,-1.4306,-1.417,-1.4689,-1.3852,-1.3112,-1.2856,-1.2369,-1.2022,-1.1846,-1.1982,-1.1892,-1.1643,-1.1652,-1.146,-1.1065,-1.1065,-1.0813,-1.0364,-1.0364,-0.9917,-0.9061,-0.9061,-0.8956,-0.8804,-0.8804,-0.8804,-0.8804,-0.8804,-0.8804,-0.8791,-0.8631,-0.8564,-0.8564,-0.8564,-0.8617,-0.8593,-0.77,-0.702,-0.6421,-0.5546,-0.4893,-0.4512,-0.4416,-0.4429,-0.4498,-0.4362,-0.4372,-0.4392,-0.4351,-0.4341,-0.4351,-0.4392,-0.4402,-0.4412,-0.4508,-0.4519,-0.4519,-0.4519,-0.445,-0.4294,-0.4097,-0.3853,-0.3673,-0.3775,-0.3585,0.0,-0.3451,-0.3208,-0.3063,-0.3063,-0.3085,-0.3082,-0.3008,-0.3102,-0.3129,-0.291,-0.2901,-0.287,-0.2688,-0.2218,-0.133,-0.0041,-0.0,-0.0,0.0,0.0,0.0,0.0,0.0,0.0,0.0,0.0,0.0,0.0,0.0,0.0,0.0,0.0,0.0,0.0,0.0,0.0,0.0,0.0,0.0,0.0,-1.4881,-1.4878,-1.4593,-1.4149,-1.4233,-1.5224,-1.527,-1.5335,-1.5544,-1.4812,-1.4158,-1.3846,-1.3026,-1.2528,-1.249,-1.25,-1.2301,-1.1805,-1.1516,-1.1216,-1.0813,-1.0517,-1.0167,-0.9814,-0.9814,-0.9465,-0.8804,-0.8804,-0.8804,-0.8804,-0.8804,-0.8804,-0.8804,-0.8804,-0.8804,0.0,0.0,0.0,0.0,0.0,-0.8804,-0.8646,-0.7616,-0.6966,-0.6426,-0.5437,-0.4842,-0.4529,-0.4594,-0.457,-0.4532,-0.4594,-0.4567,-0.4519,-0.4519,-0.4519,-0.4519,-0.4519,-0.4519,-0.4519,-0.4519,-0.4519,-0.4519,-0.4519,-0.4412,0.0,-0.4341,-0.4073,-0.3866,-0.3883,-0.3687,-0.3581,-0.3581,-0.3347,-0.3215,-0.3215,-0.3239,-0.3179,-0.3088,-0.3219,0.0,0.0,0.0,-0.2216,-0.1577,-0.1577,0.0,0.0,0.0,-0.0,-0.0,0.0,0.0,0.0,0.1776,0.2782,0.0,0.0,0.0,0.0,0.0,0.0,0.0,0.0,0.0,0.0,0.0,0.0,0.0,0.0,0.0,0.0,-1.5208,-1.5526,-1.5906,-1.5722,-1.5564,-1.5591,-1.6049,-1.6162,-1.5822,-1.5119,-1.4698,-1.4698,-1.3563,-1.2881,-1.2881,0.0,0.0,0.0,0.0,-1.0762,-1.0669,-1.0012,-0.9718,-0.9814,-0.971,-0.9413,-0.8903,-0.8857,-0.8804,-0.8804,-0.8804,-0.8804,-0.8804,-0.8804,-0.8804,-0.8804,-0.8804,-0.8804,-0.8804,-0.8804,-0.8804,-0.8586,-0.7182,0.0,0.0,-0.5199,-0.4664,-0.4594,-0.4789,-0.4734,-0.4594,-0.4657,-0.4592,-0.4539,-0.4522,-0.4519,-0.4519,-0.4519,-0.4519,-0.4519,-0.4519,-0.4519,-0.4519,-0.4519,-0.4358,-0.4311,-0.4494,-0.4328,-0.4123,-0.4039,-0.389,-0.3785,-0.3771,-0.3585,-0.342,-0.342,0.0,0.0,-0.3174,-0.3273,-0.3341,-0.332,-0.2227,-0.1096,-0.0042,-0.0,-0.0,-0.0,-0.0,-0.0,-0.0,-0.0,-0.0,-0.0,-0.0,0.0694,0.0,0.0,0.0,0.0,0.0,0.0,0.0,0.0,0.0,0.0,0.0,0.0,0.0,0.0,0.0,-1.5454,-1.6351,-1.7144,-1.7639,-1.7662,-1.7308,-1.641,-1.641,-1.6431,-1.6358,-1.5374,-1.4698,-1.4698,-1.3563,-1.2881,-1.2881,-1.2881,-1.2559,-1.1814,-1.1166,-1.0517,-1.0012,-0.9309,-0.9263,-0.9814,0.0,0.0,-0.9562,-0.9061,-0.8804,-0.8804,-0.8804,-0.8804,-0.8804,-0.8804,-0.8804,-0.8804,-0.8804,-0.8804,-0.8804,-0.8804,-0.8804,-0.8699,-0.7777,-0.7198,-0.6788,-0.6624,-0.5769,-0.4953,-0.5688,-0.5381,0.0,-0.4718,-0.467,-0.4619,-0.4549,-0.4519,-0.4519,-0.4519,-0.4519,-0.4519,-0.4519,-0.4519,-0.4519,-0.4519,-0.4494,-0.4429,-0.4512,-0.4239,-0.4053,-0.4026,-0.389,-0.3751,-0.3636,-0.3571,-0.3581,-0.3581,-0.3612,-0.3615,-0.35,-0.3622,-0.3646,-0.3547,-0.1536,-0.0265,-0.0,-0.0,-0.0,-0.0,-0.0,-0.0,-0.0,-0.0,-0.0,-0.0,-0.0,0.0151,0.0,0.0,0.0,0.0,0.0,0.0,0.0,0.0,0.0,0.0,0.0,-1.3407,0.0,0.0,-1.5425,-1.5808,-1.6954,-1.789,-1.8166,-1.8204,-1.799,-1.7426,-1.6819,-1.6455,-1.6455,-1.5108,-1.4236,-1.4236,-1.343,-1.2881,-1.2881,-1.2881,-1.2715,-1.2344,-1.1674,-1.1166,-1.0813,-0.9814,-0.9465,-0.9814,-0.9106,-0.8956,-0.9309,-0.9309,-0.9106,-0.8804,-0.9159,-0.9309,-0.9323,-0.9479,-0.9342,-0.9038,-0.9185,-0.9158,-0.9025,-0.9025,-0.9118,-0.9072,-0.7931,-0.7323,-0.6953,-0.6262,-0.5799,-0.5646,-0.6157,-0.5941,-0.5555,-0.5466,-0.5093,-0.4657,-0.456,-0.4519,-0.4519,-0.4519,-0.4519,-0.4519,-0.4519,-0.4519,-0.4519,-0.4519,-0.4519,-0.4519,-0.4519,-0.4341,-0.4216,-0.4093,-0.402,-0.3968,-0.3819,-0.3734,-0.3687,-0.3687,-0.3687,-0.3656,-0.3585,-0.3646,-0.3656,-0.3585,-0.246,-0.1252,-0.0045,-0.0,-0.0,-0.0,-0.0,-0.0,-0.0,-0.0,-0.0,-0.0,-0.0,-0.0,0.0,0.0,0.0,0.0,0.0,0.0,0.0,0.0,-1.3662,-1.3839,-1.3768,-1.3726,-1.4041,-1.5115,-1.598,-1.6136,-1.734,-1.836,-1.8518,-1.8518,-1.8419,-1.8223,-1.7108,-1.6371,-1.6264,-1.4771,-1.3815,-1.3815,-1.3238,-1.2881,-1.2881,-1.2881,-1.2881,-1.2881,-1.2187,-1.1814,-1.1814,-1.0466,-0.9895,-1.006,-0.9239,-0.899,-0.9302,-0.9643,-0.9562,-0.9211,-0.9762,-1.0051,-1.0135,-1.0409,-1.0133,-0.9562,-0.9809,-0.9714,-0.9479,-0.9309,-0.9479,-0.9499,-0.8069,-0.7558,-0.7355,-0.6103,-0.6067,-0.6603,-0.6894,-0.6763,-0.6506,-0.6289,-0.5612,-0.493,-0.4601,-0.4539,-0.4519,-0.4519,-0.4519,-0.4519,-0.4519,-0.4519,-0.4519,-0.4519,-0.4519,-0.4519,-0.4519,-0.4519,-0.4412,-0.4217,-0.4197,-0.413,-0.3999,-0.3866,-0.3782,-0.3751,-0.3649,-0.3581,-0.3581,-0.3581,-0.3581,-0.3581,-0.3619,-0.262,-0.0447,-0.0136,-0.0,-0.0,-0.0,-0.0,-0.0,-0.0,-0.0,-0.0,-0.0,-0.0,-1.3029,-1.3311,-1.3147,-1.3357,-1.3066,-1.2912,0.0,0.0,-1.4266,-1.4548,-1.458,-1.4493,-1.4398,-1.5117,-1.5936,-1.6607,-1.7816,-1.8863,-1.952,-1.9623,-1.9231,-1.8234,-1.7075,-1.6228,-1.5718,-1.4525,-1.3815,-1.3815,-1.3238,-1.2881,-1.2881,-1.2881,-1.2881,-1.2881,-1.2187,-1.1814,-1.1814,-1.0466,-1.0269,-1.1088,-0.9549,-0.9556,-1.0974,-1.015,-1.0064,-1.0568,-1.0661,-1.09,-1.1308,-1.135,-1.1122,-1.0684,-1.0778,-1.0607,-1.0409,-0.9826,-0.9653,-0.9563,-0.8727,-0.8508,-0.8632,-0.8577,-0.8226,-0.7955,-0.8762,-0.8425,-0.759,-0.6652,-0.6218,-0.5795,-0.4933,-0.4565,-0.4519,-0.4519,-0.4519,-0.4519,-0.4519,-0.4519,-0.4519,-0.4519,-0.4519,-0.4519,-0.4519,-0.4519,-0.4412,-0.4217,-0.4197,-0.4093,-0.3856,-0.3802,-0.3744,-0.3615,-0.3588,-0.3581,-0.3581,-0.3581,-0.3581,-0.3581,-0.3576,-0.2982,-0.1654,-0.0557,-0.0,-0.0,-0.0,-0.0,-0.0,-0.0,-0.0,-0.0,-0.0,-0.0,-1.1918,-1.2559,-1.2896,-1.3225,-1.3238,-1.3474,-1.4328,-1.4567,-1.4809,-1.5395,-1.5275,-1.5174,-1.5325,-1.6168,-1.6911,0.0,-1.8441,-1.9423,-1.9747,-1.9547,-1.8933,-1.7772,-1.6596,-1.5622,-1.5076,-1.3984,-1.3286,-1.3286,-1.3065,-1.2881,-1.2881,-1.2881,-1.2881,-1.2881,-1.2608,-1.2565,-1.2802,-1.1825,-1.1703,-1.234,-1.1215,-1.0949,-1.1411,-1.1375,-1.1515,-1.1774,-1.1774,-1.1834,-1.1869,-1.2474,-1.2208,-1.1421,-1.1421,-1.1167,-1.0742,-1.0154,-1.0154,-1.0296,-0.937,-0.9015,-0.9035,-0.8587,-0.8595,-0.8812,-0.921,-0.9075,-0.8628,-0.8069,-0.713,-0.6223,-0.5684,-0.5107,-0.4596,-0.4596,-0.4584,-0.4519,-0.4519,-0.4519,-0.4519,-0.4519,-0.4519,-0.4519,-0.4519,-0.4519,-0.4498,-0.4382,-0.4372,-0.4328,-0.4199,-0.4107,-0.3999,-0.3853,-0.3836,-0.3836,-0.3836,-0.3792,-0.3795,-0.3795,-0.3675,-0.3389,-0.2846,-0.1026,-0.0,-0.0,-0.0,-0.0,-0.0,-0.0,-0.0,-0.0,-0.0,-0.0,-1.1566,-1.2173,-1.285,-1.3366,-1.3631,-1.4052,-1.5139,-1.5389,-1.5562,-1.6176,-1.5996,-1.5801,-1.5869,-1.654,-1.7159,-1.7377,-1.8448,-1.9418,-1.9722,-1.9359,-1.8512,-1.7203,-1.613,-1.5141,-1.4244,-1.338,-1.2881,-1.2881,-1.2881,-1.2881,-1.2881,-1.2881,-1.293,-1.3047,-1.3057,-1.3262,-1.3682,-1.2986,-1.286,-1.3249,-1.2479,-1.2113,-1.2098,-1.2545,-1.2767,-1.2767,-1.2767,-1.2787,-1.2879,-1.3623,-1.3261,-1.2204,-1.2174,-1.1716,-1.1049,-1.0541,-1.0628,-1.091,-1.0118,-0.9878,-0.9747,-0.9139,-0.929,-0.9768,-0.9768,-0.9719,-0.9551,-0.9164,-0.7985,-0.6661,-0.6336,-0.5512,-0.4755,-0.4755,-0.4636,-0.458,-0.458,-0.4546,-0.4519,-0.4519,-0.4519,-0.4519,-0.4519,-0.4519,-0.4519,-0.4519,-0.4519,-0.4501,-0.4409,-0.4277,-0.409,-0.4033,-0.4019,-0.4019,-0.4019,-0.3929,-0.3883,-0.3883,-0.3732,-0.3595,-0.361,-0.1273,-0.0,-0.0,-0.0,-0.0,-0.0,-0.0,-0.0,-0.0,-0.0,-0.0,0.0,0.0,-1.3172,-1.3997,-1.4132,-1.4424,-1.5772,-1.64,-1.666,-1.6709,-1.6636,-1.6436,-1.5586,-1.5578,-1.603,-1.6886,-1.7554,-1.8401,-1.962,-1.9359,-1.8363,-1.6619,-1.5898,-1.4827,0.0,-1.2939,-1.2881,-1.2881,-1.2881,-1.2881,-1.2881,-1.2881,-1.3066,-1.3477,-1.3486,-1.3691,-1.4058,-1.3403,-1.3267,-1.3552,-1.2599,-1.2616,-1.3507,-1.3508,-1.3455,-1.3455,-1.3455,-1.3931,-1.471,-1.4775,-1.4205,-1.3298,-1.3079,-1.2304,-1.1376,-1.1076,-1.0975,-1.1029,-1.1235,-1.1328,-1.1328,-1.1328,-1.1142,-1.0982,-1.0982,-1.0782,-1.0364,-0.9518,-0.8491,-0.7494,-0.6625,-0.5632,-0.4911,-0.4911,-0.4796,-0.4684,-0.4684,-0.4568,-0.4519,-0.4519,-0.4519,-0.4519,-0.4519,-0.4519,-0.4519,-0.4519,-0.4519,-0.4412,-0.422,-0.407,-0.4026,-0.4019,-0.4019,-0.4019,-0.4019,-0.3929,-0.3883,-0.3883,-0.3718,-0.3586,-0.3613,-0.1305,-0.0,-0.0,-0.0,-0.0,-0.0,-0.0,-0.0,-0.0,-0.0,-0.0,0.0,0.0,-1.4466,-1.5255,-1.5418,-1.5684,-1.6709,-1.6836,-1.6665,-1.6665,-1.6156,-1.5578,-1.5277,-1.559,-1.6203,-1.7123,-1.8041,-1.8882,-1.9672,-1.9359,-1.8512,-1.7154,-1.6379,0.0,0.0,0.0,0.0,-1.2881,-1.3135,-1.3301,-1.3301,-1.3555,-1.3779,-1.3863,-1.3926,-1.4131,-1.4561,-1.434,-1.443,-1.4773,-1.3858,-1.3605,-1.3936,-1.3603,-1.3662,-1.3945,-1.4228,-1.4678,-1.5225,-1.5518,-1.4903,-1.3762,-1.3704,-1.2899,-1.171,-1.161,-1.1577,-1.1557,-1.1463,-1.1423,-1.1423,-1.1423,-1.1363,-1.1283,-1.1283,-1.1076,-1.0783,-1.0516,-0.959,-0.8557,-0.7659,-0.6683,-0.574,-0.5182,-0.4948,-0.4843,-0.4843,-0.4802,-0.4765,-0.4765,-0.4765,-0.4731,-0.4629,-0.4613,-0.4579,-0.4532,-0.4519,-0.4498,-0.4395,-0.4345,-0.4314,-0.4314,-0.4314,-0.4317,-0.4324,-0.4334,-0.4291,-0.4298,-0.2356,-0.1207,-0.1193,-0.0438,-0.0,-0.0,-0.0,-0.0,-0.0,-0.0,-0.0,-0.0,-0.0,0.1065,0.0,-1.4933,-1.5726,-1.6176,-1.6533,-1.6904,-1.748,-1.7275,-1.6875,-1.6553,-1.586,-1.5175,-1.4776,-1.5032,-1.5596,-1.6563,-1.7264,-1.8067,-1.9206,-1.8854,-1.8273,-1.7652,-1.6792,-1.5791,0.0,0.0,0.0,-1.333,-1.3584,-1.373,-1.373,-1.3984,-1.4209,-1.4355,-1.4365,-1.457,-1.501,-1.501,-1.5146,-1.54,-1.4853,-1.4512,-1.4355,-1.4082,-1.4111,-1.4385,-1.4824,-1.5156,-1.54,-1.5731,-1.5033,-1.3892,-1.3693,-1.29,-1.187,-1.187,-1.187,-1.1857,-1.177,-1.1737,-1.1737,-1.1737,-1.167,-1.1583,-1.1583,-1.1383,-1.1149,-1.1149,-1.0337,-0.9361,-0.8843,-0.7647,-0.6369,-0.5925,-0.5392,-0.4996,-0.4996,-0.4955,-0.4918,-0.4918,-0.4918,-0.4887,-0.4789,-0.4728,-0.4657,-0.4558,-0.4553,-0.4519,-0.4519,-0.4519,-0.4519,-0.4519,-0.4519,-0.4522,-0.4473,-0.3974,-0.3699,-0.3705,-0.1344,-0.0,-0.0,-0.0,-0.0,-0.0,-0.0,-0.0,-0.0,-0.0,-0.0,-0.0,0.1121,0.2639,-1.4345,-1.5567,-1.684,-1.6868,-1.7488,-1.8095,-1.8114,-1.7693,-1.7125,-1.6264,-1.5703,-1.508,0.0,0.0,-1.4381,-1.5401,-1.5515,-1.6187,-1.8369,-1.8111,-1.7827,0.0,0.0,0.0,0.0,0.0,0.0,-1.4214,0.0,-1.4116,-1.4116,-1.4136,-1.4385,-1.4805,-1.4814,-1.501,-1.541,-1.541,-1.541,-1.541,-1.5391,-1.5176,-1.4785,-1.4785,-1.4785,-1.4805,-1.5234,-1.542,-1.5449,-1.5322,-1.4746,-1.385,-1.3088,-1.2408,-1.1891,-1.1891,-1.1891,-1.1931,-1.2204,-1.2305,-1.2305,-1.2305,-1.2118,-1.1891,-1.1891,-1.1683,-1.145,-1.145,-1.0621,-0.986,-1.0042,-0.8441,-0.6862,-0.7052,-0.6094,-0.5162,-0.5155,-0.5047,-0.4952,-0.4945,-0.4935,-0.4935,-0.4942,-0.4809,-0.4701,-0.4694,-0.4568,-0.4525,-0.4519,-0.4519,-0.4519,-0.4519,-0.4519,-0.4519,-0.4519,-0.3178,-0.2232,-0.212,-0.0783,-0.0,-0.0,-0.0,-0.0,-0.0,-0.0,-0.0,-0.0,-0.0,0.0056,0.028,0.3147,0.4514,-1.5904,-1.691,-1.7859,-1.8475,-1.906,-1.9354,-1.9308,-1.8268,-1.7103,-1.605,-1.495,-1.4115,-1.3668,0.0,0.0,-1.6561,-1.7148,0.0,-1.9295,-1.9358,0.0,-1.9343,0.0,-1.7701,-1.7534,-1.6611,0.0,0.0,-1.5166,-1.4619,-1.4619,-1.4912,-1.5137,-1.5244,-1.5254,-1.5303,-1.541,-1.541,-1.541,-1.541,-1.5098,-1.4893,-1.4785,-1.4785,-1.4785,-1.4805,-1.5234,-1.5596,-1.5877,-1.5441,-1.4901,-1.4307,-1.3676,-1.2906,-1.2191,-1.2191,-1.2191,-1.2204,-1.2278,-1.2305,-1.2305,-1.2305,-1.2251,-1.2191,-1.2191,-1.1984,-1.1757,-1.1757,-1.1398,-1.0846,-1.0221,-0.9098,-0.7984,-0.7412,-0.6448,-0.5603,-0.5498,-0.5443,-0.5386,-0.527,-0.5155,-0.5114,-0.523,-0.5033,-0.4823,-0.4707,-0.4657,-0.4592,-0.4532,-0.4519,-0.4519,-0.4519,-0.4519,-0.4525,-0.4487,-0.415,-0.2965,-0.0727,-0.0224,-0.0,-0.0,-0.0,-0.0,-0.0,-0.0,-0.0,-0.0,-0.0,0.1177,0.3375,0.4113,0.4504,-1.7262,-1.8459,-1.9448,-2.0371,-2.0539,-2.0324,-1.97,-1.8331,-1.6863,-1.5637,-1.4654,-1.3941,-1.3704,-1.4085,-1.482,0.0,0.0,0.0,-1.8735,-1.9294,-1.9737,0.0,-1.93,0.0,-1.8639,-1.7482,-1.6665,0.0,-1.5869,-1.5352,-1.5352,-1.5391,-1.5498,-1.5693,-1.5693,-1.5791,-1.5996,-1.5996,-1.5889,-1.5693,-1.5459,-1.5244,-1.5059,-1.5059,-1.5166,-1.5371,0.0,-1.6016,-1.6062,-1.5471,-1.4824,-1.4166,-1.3415,-1.2732,-1.2305,-1.2305,-1.2305,-1.2305,-1.2305,-1.2305,-1.2305,-1.2305,-1.2305,-1.2305,-1.2305,-1.2184,-1.2058,-1.2058,-1.185,-1.1504,-1.1133,-0.9842,-0.8508,-0.8174,-0.6861,-0.5688,-0.5606,-0.5538,-0.5464,-0.5446,-0.5345,-0.5338,-0.5425,-0.5165,-0.4962,-0.4813,-0.4731,-0.4636,-0.4536,-0.4519,-0.4519,-0.4519,-0.4522,-0.4473,-0.4487,-0.4497,-0.3766,-0.2076,-0.0728,-0.0,-0.0,-0.0,-0.0,-0.0,-0.0,-0.0,-0.0,-0.0,0.0897,0.2581,0.3881,0.4501,-1.8511,-2.002,-2.1301,-2.2059,-2.1777,-2.0921,-1.9688,-1.8107,-1.6507,-1.5289,-1.4636,-1.4197,-1.3961,-1.3873,-1.4143,-1.5025,0.0,-1.6059,-1.774,-1.8754,-1.9724,-2.0693,-1.9968,-1.9377,-1.9392,-1.8009,-1.7101,-1.7101,-1.675,-1.6444,-1.6335,-1.6078,-1.6049,-1.6315,-1.6213,-1.6338,-1.6728,-1.6665,-1.6533,-1.6152,-1.6152,-1.5957,-1.5586,-1.5586,-1.5791,-1.6172,-1.6562,-1.6543,-1.6195,-1.5453,-1.4681,-1.3961,-1.2741,-1.2305,-1.2305,-1.2305,-1.2305,-1.2305,-1.2305,-1.2305,-1.2305,-1.2305,-1.2305,-1.2305,-1.2305,-1.2305,-1.2305,-1.2305,-1.2124,-1.1984,-1.2238,-1.0538,-0.8765,-0.903,-0.7364,-0.5674,-0.5654,-0.5528,-0.5426,-0.5447,-0.5542,-0.5576,-0.5443,-0.5294,-0.5135,-0.4972,-0.4819,-0.4667,-0.4567,-0.4529,-0.4519,-0.4519,-0.4473,-0.4421,-0.4196,-0.4386,-0.434,-0.3943,-0.1457,-0.0,-0.0,-0.0,-0.0,-0.0,-0.0,-0.0,-0.0,-0.0,-0.0,0.0056,0.2687,0.4098,-1.9692,-2.117,-2.2554,-2.2601,-2.2133,-2.1339,-2.0229,-1.8289,0.0,-1.5334,-1.4576,-1.408,-1.3937,-1.4377,-1.507,-1.6032,-1.6371,-1.7053,-1.8601,-1.9321,-2.0139,0.0,-2.0979,-2.0711,-2.0848,-1.9937,0.0,0.0,-1.894,-1.8425,-1.7728,-1.8267,-1.8316,-1.7686,-1.6976,-1.665,-1.6665,-1.6665,-1.6626,-1.6621,-1.6621,-1.6572,-1.6441,-1.6441,-1.6543,-1.6621,-1.6699,0.0,-1.7038,-1.5325,-1.4747,-1.4779,-1.2976,-1.2305,-1.2305,-1.2305,-1.2305,-1.2305,-1.2305,-1.2305,-1.2305,-1.2305,-1.2305,-1.2305,-1.2305,-1.2305,-1.2305,-1.2305,-1.2265,-1.2238,-1.2285,-1.073,-0.919,-0.9231,-0.7685,-0.6108,-0.5979,-0.5833,-0.5762,-0.5888,-0.5833,-0.5755,-0.5728,-0.5606,-0.5416,-0.5135,-0.4972,-0.4823,-0.467,-0.4541,-0.4519,-0.4519,-0.4473,-0.3968,-0.2734,-0.3761,-0.3429,-0.0953,-0.028,-0.0,-0.0,-0.0,-0.0,-0.0,-0.0,-0.0,-0.0,-0.0,-0.0,-0.0,0.0558,0.2124,-2.1228,-2.2536,-2.3337,-2.4062,-2.3093,-2.1633,-2.022,0.0,0.0,-1.4961,-1.4441,-1.4185,-1.4132,-1.4573,-1.5092,-1.5541,-1.6281,-1.713,-1.813,-1.9409,-2.0564,-2.1393,-2.1496,-2.149,-2.1539,-2.0807,-2.0081,-1.9624,-2.027,-2.0139,-1.9058,-1.8953,-1.8768,-1.8343,-1.771,-1.7393,-1.7393,-1.7393,-1.7285,-1.707,-1.707,-1.6953,-1.6665,-1.6665,-1.6855,-1.707,-1.707,-1.7187,-1.7261,-1.5592,-1.4821,-1.4689,-1.2954,-1.2305,-1.2305,-1.2305,-1.2305,-1.2305,-1.2305,-1.2305,-1.2305,-1.2305,-1.2305,-1.2305,-1.2305,-1.2305,-1.2305,-1.2305,-1.2305,-1.2305,-1.2305,-1.0801,-0.9296,-0.9296,-0.7706,-0.6098,-0.5942,-0.5915,-0.5918,-0.5911,-0.5915,-0.5871,-0.5718,-0.5637,-0.5484,-0.5176,-0.5074,-0.4914,-0.4777,-0.4693,-0.4589,-0.4487,-0.448,-0.4206,-0.3477,-0.2635,-0.1514,-0.0112,-0.0,-0.0,-0.0,-0.0,-0.0,-0.0,-0.0,-0.0,-0.0,-0.0,-0.0,-0.0,-0.0,0.1173,-2.228,-2.355,-2.4159,-2.4916,-2.359,-2.163,-1.9739,-1.7592,0.0,-1.4606,-1.4332,-1.43,-1.43,-1.4547,-1.4793,0.0,-1.5659,-1.6616,-1.7435,-1.9157,-2.0652,-2.1556,-2.2089,0.0,-2.2365,-2.1684,0.0,-2.0182,-2.1522,-2.1806,-2.065,-1.9747,-1.919,-1.8998,-1.8537,-1.8202,-1.8008,-1.8008,-1.7842,-1.7519,-1.7519,-1.7334,-1.7002,-1.7002,-1.7197,-1.7519,-1.7519,-1.7519,0.0,-1.5826,-1.499,-1.4482,-1.2919,-1.2305,-1.2305,-1.2305,-1.2305,-1.2305,-1.2305,-1.2305,-1.2305,-1.2305,-1.2305,-1.2305,-1.2305,-1.2345,-1.2385,-1.2318,-1.2345,-1.2385,-1.2318,-1.0801,-0.9221,-0.8765,-0.7291,-0.6047,-0.5925,-0.5996,-0.6044,-0.5922,-0.5996,-0.5996,-0.5728,-0.5657,-0.5545,-0.5274,-0.5176,-0.5034,-0.4937,-0.4519,-0.4294,-0.4492,-0.4505,-0.4495,-0.4502,-0.1745,-0.0,-0.0,-0.0,-0.0,-0.0,-0.0,-0.0,-0.0,-0.0,-0.0,-0.0,-0.0,-0.0,-0.0,-0.0,0.0951,-2.1884,-2.3717,-2.504,-2.3666,-2.2447,-2.0961,-1.8596,0.0,-1.5262,-1.4459,-1.43,-1.43,-1.43,-1.4341,-1.4426,-1.4594,0.0,-1.5402,-1.7175,-1.8417,-1.9936,-2.1995,0.0,0.0,-2.399,-2.342,-2.3003,-2.2936,-2.3457,-2.3542,-2.2834,-2.2053,-2.1232,-2.0459,-1.9596,-1.8787,-1.8008,-1.8008,-1.7988,-1.7949,-1.7949,-1.793,-1.7891,-1.7891,-1.791,-1.7949,-1.7949,-1.7949,0.0,-1.593,-1.5138,-1.4972,-1.3004,-1.2305,-1.2305,-1.2305,-1.2305,-1.2305,-1.2305,-1.2305,-1.2305,-1.2305,-1.2305,-1.2305,-1.2305,-1.2492,-1.2728,-1.2378,-1.2498,-1.2721,-1.2371,-1.0801,-0.8841,-0.7022,-0.6402,-0.6237,-0.6224,-0.623,-0.6237,-0.6224,-0.623,-0.6186,-0.6017,-0.5874,-0.5732,-0.5658,-0.5325,-0.5152,-0.5293,-0.3636,-0.2948,-0.4363,-0.4499,-0.4481,-0.4481,-0.1712,-0.0,-0.0,-0.0,-0.0,-0.0,-0.0,-0.0,-0.0,-0.0,-0.0,-0.0,-0.0,-0.0,-0.0,-0.0,0.1515,-2.2063,-2.3604,-2.4393,-2.3389,-2.1908,-2.0246,-1.8332,0.0,-1.499,-1.443,-1.43,-1.43,-1.43,-1.4189,-1.4159,-1.4218,0.0,0.0,-1.6379,-1.7428,-1.8982,-2.1518,-2.251,0.0,0.0,0.0,-2.4051,-2.3732,-2.3132,-2.3018,-2.3616,-2.287,-2.1958,-2.1093,-1.9899,-1.8844,-1.8008,-1.8008,-1.8008,-1.8008,-1.8008,-1.8008,-1.8008,-1.8008,-1.8008,-1.8008,-1.8008,-1.8008,0.0,-1.5948,-1.5234,-1.5021,-1.3091,-1.2305,-1.2305,-1.2305,-1.2305,-1.2305,-1.2305,-1.2305,-1.2331,-1.2512,-1.2565,-1.2532,-1.2358,-1.2512,-1.2795,-1.2681,-1.2792,-1.2953,-1.2645,-1.0994,-0.877,-0.6795,-0.6338,-0.6338,-0.6338,-0.6338,-0.6338,-0.6338,-0.6338,-0.621,-0.6057,-0.5979,-0.5864,-0.5713,-0.5573,-0.5466,-0.5397,-0.4665,-0.424,-0.4454,-0.4519,-0.3743,-0.1947,-0.0711,-0.0,-0.0,-0.0,-0.0,-0.0,-0.0,-0.0,-0.0,-0.0,-0.0,-0.0,-0.0,-0.0,-0.0,-0.0,0.1628,-2.1335,-2.2506,-2.2874,-2.2284,-2.0889,-1.9285,0.0,0.0,-1.4958,-1.4571,-1.4401,-1.4351,-1.4351,-1.4111,-1.3914,0.0,0.0,-1.4443,-1.5515,-1.6519,-1.8028,-2.0476,0.0,-2.2723,0.0,-2.4598,-2.4288,-2.3466,-2.2733,-2.2849,-2.402,-2.3433,-2.2662,-2.1793,-2.0653,-1.9628,-1.8787,-1.8529,-1.8395,-1.8405,-1.8134,-1.8008,-1.8008,-1.8008,-1.8008,-1.8008,-1.8008,-1.8008,0.0,-1.606,-1.532,-1.5113,-1.3266,-1.2512,-1.2432,-1.2432,-1.2378,-1.2305,-1.2305,-1.2305,-1.2351,-1.2728,-1.2761,-1.2667,-1.2472,-1.2705,-1.2973,-1.2876,-1.2906,-1.2863,-1.2093,-1.0608,-0.877,-0.6795,-0.6338,-0.6338,-0.6338,-0.6295,-0.6312,-0.6271,-0.6295,-0.6274,-0.6125,-0.6061,-0.5966,-0.5922,-0.524,-0.4591,-0.39,-0.476,-0.4809,-0.3316,-0.3193,-0.2318,-0.0182,-0.0,-0.0,-0.0,-0.0,-0.0,-0.0,-0.0,-0.0,-0.0,-0.0,-0.0,-0.0,-0.0,-0.0,-0.0,0.0911,0.2211,-1.9131,-2.0054,-2.0618,-1.9987,-1.9155,-1.8164,0.0,0.0,-1.5167,-1.5003,-1.469,-1.4406,-1.4406,-1.4078,-1.3741,-1.356,0.0,0.0,-1.4765,-1.5831,-1.7162,0.0,0.0,-2.2159,-2.3853,-2.4105,-2.3582,-2.2012,-2.2796,0.0,-2.4184,-2.4054,-2.3603,-2.2726,-2.2151,-2.1428,-2.059,-1.9694,-1.9299,-1.9309,-1.8395,-1.8008,-1.8008,-1.8008,-1.8008,-1.8008,-1.8008,-1.8008,0.0,-1.6275,-1.5618,-1.5429,-1.3839,-1.3013,-1.2815,-1.2815,-1.2552,-1.2305,-1.2305,-1.2305,-1.2351,-1.2728,-1.2545,-1.2365,-1.2728,-1.316,-1.3507,-1.2913,-1.2829,-1.2356,-1.025,-0.954,-0.877,-0.6795,-0.6338,-0.6338,-0.6338,-0.6373,-0.6427,-0.6288,-0.6373,-0.6424,-0.6285,-0.6132,-0.604,-0.6228,-0.4272,-0.2095,-0.0281,-0.3164,-0.3999,-0.0404,-0.0067,-0.0067,-0.0,-0.0,-0.0,-0.0,-0.0,-0.0,-0.0,-0.0,-0.0,-0.0,-0.0,-0.0,-0.0,-0.0,-0.0,0.0059,0.3075,0.3658,-1.8106,-1.8879,-1.9304,-1.8851,-1.8156,-1.737,-1.6637,0.0,-1.4956,-1.4899,-1.4529,-1.4254,-1.4254,-1.3894,-1.356,-1.3514,-1.3391,0.0,0.0,0.0,0.0,-2.0376,-2.3175,-2.4888,0.0,0.0,-2.3672,-2.3456,-2.3121,-2.3525,-2.5105,-2.4453,-2.3763,-2.3251,-2.2341,-2.1491,-2.059,-1.9759,-1.9299,-1.9299,-1.8395,-1.8008,-1.8008,-1.8008,-1.8008,-1.8008,-1.8008,-1.8008,0.0,-1.6078,-1.5396,-1.5413,-1.3598,-1.2909,-1.2822,-1.2822,-1.2559,-1.2331,-1.2532,-1.2605,-1.2685,-1.3193,-1.3293,-1.324,-1.3327,-1.3353,-1.3347,-1.3353,-1.306,-1.2356,-1.025,-0.954,-0.877,-0.6795,-0.6338,-0.6338,-0.6338,-0.6373,-0.643,-0.6288,-0.6376,-0.6427,-0.6285,-0.622,-0.6235,-0.6303,-0.4839,-0.3268,-0.2035,-0.1736,-0.1303,-0.0135,-0.0,-0.0,-0.0,-0.0,-0.0,-0.0,-0.0,-0.0,-0.0,-0.0,-0.0,-0.0,-0.0,-0.0,-0.0,-0.0,-0.0,0.0061,0.3102,0.4235,0.0,-1.7258,-1.7548,-1.7631,-1.7033,0.0,0.0,0.0,-1.4994,-1.4856,-1.4511,-1.4203,-1.4124,-1.3648,-1.3386,-1.3671,-1.3581,0.0,0.0,0.0,0.0,-2.143,0.0,0.0,0.0,-2.4176,-2.4054,-2.3967,-2.3547,-2.3863,-2.5276,-2.4501,-2.3977,-2.3976,-2.2943,-2.2063,-2.1542,-2.0398,-1.9814,-1.9759,-1.8586,-1.8008,-1.8008,-1.8008,-1.8008,-1.8008,-1.8008,0.0,0.0,-1.6688,-1.622,-1.6237,-1.4996,-1.4173,-1.3769,-1.3769,-1.3271,-1.2672,-1.2859,-1.2919,-1.2999,-1.3487,-1.3559,-1.3539,-1.3514,-1.3427,-1.3434,-1.3728,-1.346,-1.2576,-1.0486,-0.9667,-0.8942,-0.681,-0.6338,-0.6338,-0.6338,-0.6373,-0.643,-0.6288,-0.6376,-0.6427,-0.6285,-0.6338,-0.6311,-0.6304,-0.5544,-0.4773,-0.4126,-0.29,-0.1526,-0.0136,-0.0,-0.0,-0.0,-0.0,-0.0,-0.0,-0.0,-0.0,-0.0,-0.0,-0.0,-0.0,-0.0,-0.0,-0.0,-0.0,-0.0,0.0063,0.1946,0.348,0.0,0.0,0.0,0.0,0.0,0.0,0.0,0.0,0.0,0.0,0.0,-1.4235,-1.3987,-1.3429,-1.3247,-1.4011,-1.3976,0.0,0.0,-1.7338,0.0,0.0,-2.3464,0.0,-2.3375,-2.4305,-2.4636,-2.3672,-2.3909,-2.4422,-2.5052,-2.4378,-2.4205,-2.4808,-2.3666,-2.3078,-2.3078,-2.1416,-2.059,-2.059,-1.8844,-1.8008,-1.8008,-1.8008,-1.8008,0.0,-1.8008,0.0,0.0,-1.7797,-1.7683,-1.7632,-1.7267,-1.6371,-1.5298,-1.5218,-1.4315,-1.3213,-1.3233,-1.324,-1.3287,-1.3554,-1.3661,-1.3539,-1.3327,-1.3414,-1.3674,-1.3975,-1.3841,-1.3052,-1.0908,-1.0041,-0.912,-0.6928,-0.6352,-0.6352,-0.6342,-0.6373,-0.643,-0.6288,-0.6376,-0.6427,-0.6285,-0.6338,-0.6264,-0.6274,-0.6311,-0.6296,-0.6296,-0.5813,-0.4137,-0.0766,-0.0272,-0.0134,-0.0,-0.0,-0.0,-0.0,-0.0,-0.0,-0.0,-0.0,-0.0,-0.0,-0.0,-0.0,-0.0,-0.0,-0.0,-0.0,-0.0,0.1604,0.0,0.0,0.0,0.0,0.0,0.0,0.0,0.0,0.0,0.0,0.0,0.0,0.0,0.0,0.0,-1.4347,0.0,-1.4777,-1.6128,0.0,0.0,-2.3427,-2.4946,-2.5239,-2.3482,-2.4305,-2.4933,-2.4636,-2.3918,-2.4302,-2.6045,-2.4341,-2.3791,-2.4795,-2.3666,-2.3078,-2.3078,-2.1416,-2.059,-2.059,-1.8844,-1.8008,-1.8008,-1.8008,-1.8008,-1.8008,0.0,0.0,-1.7979,-1.7493,-1.7505,-1.7596,-1.6276,-1.5606,-1.5218,-1.4353,-1.3695,-1.324,-1.346,-1.354,-1.3554,-1.3539,-1.3801,-1.3928,-1.3627,-1.3434,-1.3373,-1.3667,-1.3534,-1.2968,-1.168,-1.0637,-0.9492,-0.8111,-0.7051,-0.6393,-0.6285,-0.6373,-0.643,-0.6288,-0.6376,-0.6427,-0.6285,-0.6338,-0.6264,-0.6264,-0.6311,-0.6204,-0.5971,-0.5885,-0.5399,-0.4287,-0.2891,-0.1473,-0.0134,-0.0,-0.0,-0.0,-0.0,-0.0,-0.0,-0.0,-0.0,-0.0,-0.0,-0.0,-0.0,-0.0,-0.0,-0.0,-0.0,0.0382,-1.3357,-1.3674,-1.4072,-1.4227,0.0,0.0,0.0,0.0,0.0,0.0,0.0,0.0,0.0,0.0,0.0,0.0,-1.4722,0.0,0.0,0.0,-2.1572,-2.3567,-2.4628,-2.5095,0.0,-2.531,-2.5664,-2.5664,-2.5115,-2.5136,-2.6038,-2.4695,-2.4079,-2.4431,-2.359,-2.2944,-2.2567,-2.1227,-2.0398,-2.0009,-1.8664,-1.791,-1.7734,-1.793,-1.791,-1.7734,0.0,0.0,-1.7979,-1.7887,-1.7677,-1.7394,-1.6716,-1.6023,-1.5218,-1.4588,-1.4021,-1.3634,-1.3794,-1.3761,-1.3594,-1.332,-1.3527,-1.3801,-1.3367,-1.3313,-1.3474,-1.3761,-1.3309,-1.2562,-1.1368,-1.0264,-0.9037,-0.7721,-0.6947,-0.6434,-0.6291,-0.6322,-0.6352,-0.6352,-0.6322,-0.6349,-0.6274,-0.6338,-0.6338,-0.6338,-0.6338,-0.62,-0.6034,-0.5971,-0.5823,-0.5596,-0.4563,-0.3553,-0.2551,-0.1745,-0.0874,-0.0067,-0.0,-0.0,-0.0,-0.0,-0.0,-0.0,-0.0,-0.0,-0.0,-0.0,-0.0,-0.0,-0.0,-0.0,-1.3198,-1.3501,-1.3879,-1.3993,-1.4246,0.0,0.0,0.0,0.0,0.0,0.0,0.0,0.0,-1.3608,0.0,0.0,0.0,0.0,-1.9833,-2.0027,-2.0851,-2.3468,-2.3965,0.0,-2.6088,-2.6433,-2.6496,-2.6339,-2.6319,-2.6,-2.5498,-2.4895,-2.4317,-2.3816,-2.3169,-2.2372,-2.1436,-2.0876,-2.0139,-1.9299,-1.8335,-1.7725,-1.7393,-1.7754,-1.7715,-1.7402,0.0,0.0,-1.8037,-1.8247,-1.7906,-1.7225,-1.7391,-1.6519,-1.5223,-1.5063,-1.4533,-1.3955,-1.3955,-1.3788,-1.3487,-1.2926,-1.3153,-1.3534,-1.2926,-1.3166,-1.3687,-1.3895,-1.3109,-1.1962,-1.091,-0.9719,-0.8388,-0.7141,-0.6666,-0.6461,-0.6295,-0.6338,-0.6338,-0.6338,-0.6338,-0.6338,-0.6338,-0.6338,-0.6338,-0.6264,-0.6264,-0.6321,-0.628,-0.5966,-0.5789,-0.5681,-0.5528,-0.5386,-0.541,-0.3966,-0.2482,-0.0943,-0.0539,-0.0269,-0.0,-0.0,-0.0,-0.0,-0.0,-0.0,-0.0,-0.0,-0.0,-0.0,-0.0,-0.0,-1.3198,-1.3607,-1.3989,-1.3676,-1.3947,0.0,0.0,0.0,0.0,0.0,0.0,0.0,0.0,-1.4256,-1.436,0.0,0.0,-1.9811,0.0,0.0,-2.3567,-2.4518,0.0,-2.5812,-2.5146,-2.5912,-2.6319,-2.5774,-2.5322,-2.5034,-2.4946,-2.3954,-2.3245,-2.2919,-2.1969,-2.0703,-1.9147,-2.0123,-2.0139,-1.9299,-1.8091,-1.7451,-1.7383,-1.7451,-1.7451,-1.7402,0.0,-1.8008,-1.7969,-1.7595,-1.7333,-1.7072,-1.5802,-1.5134,-1.4799,-1.3887,-1.3459,-1.3347,-1.3347,-1.3313,-1.322,-1.2936,-1.3153,-1.3534,-1.2926,-1.3166,-1.3601,-1.34,-1.2675,-1.191,-1.1704,-1.0254,-0.8751,-0.8205,-0.739,-0.659,-0.6318,-0.6338,-0.6338,-0.6338,-0.6338,-0.6338,-0.6338,-0.6338,-0.6264,-0.6274,-0.6268,-0.6252,-0.6082,-0.5916,-0.5708,-0.5471,-0.5406,-0.5386,-0.541,-0.5129,-0.4852,-0.4593,-0.3157,-0.1607,-0.0067,-0.0,-0.0,-0.0,-0.0,-0.0,-0.0,-0.0,-0.0,-0.0,-0.0,-0.0,-1.3198,-1.3421,-1.3657,-1.3801,0.0,-1.5284,-1.5284,0.0,0.0,0.0,0.0,0.0,0.0,0.0,-1.5466,-1.7696,0.0,-2.0926,-2.2871,-2.2622,-2.2774,0.0,0.0,-2.4691,-2.5197,-2.5435,-2.5473,-2.5197,-2.4958,-2.4695,-2.4393,-2.3416,-2.2601,-2.188,-2.1391,-2.0387,-1.8899,-1.9855,-1.9548,-1.788,-1.7313,-1.7031,-1.7041,-1.7275,-1.7383,-1.7402,0.0,-1.7716,-1.7226,-1.6985,-1.6279,-1.521,-1.4498,-1.4004,-1.3649,-1.3297,-1.3213,-1.3186,-1.3019,-1.2959,-1.2906,-1.2605,-1.2806,-1.3073,-1.2639,-1.2812,-1.3014,-1.2171,-1.1461,-1.1001,-1.0865,-0.9344,-0.7714,-0.7453,-0.6975,-0.6519,-0.6305,-0.6338,-0.6338,-0.6338,-0.6338,-0.6338,-0.6338,-0.6338,-0.6264,-0.6278,-0.6274,-0.6304,-0.618,-0.5935,-0.5779,-0.565,-0.4583,-0.4364,-0.5333,-0.4776,-0.4706,-0.5336,-0.4643,-0.3761,-0.2956,-0.1072,-0.0,-0.0,-0.0,-0.0,-0.0,-0.0,-0.0,-0.0,-0.0,-0.0,-1.3198,-1.3286,-1.3521,-1.3912,0.0,-1.5752,-1.6209,-1.7127,0.0,0.0,0.0,0.0,0.0,-1.5486,0.0,-1.9515,-2.0861,-2.1931,-2.3014,-2.2362,-2.2337,-2.3729,-2.3542,-2.3854,-2.5297,-2.5059,-2.4628,-2.4362,-2.4491,-2.419,-2.3229,-2.2693,-2.1925,-2.0852,-2.0593,-1.991,-1.8944,-1.9345,-1.8818,-1.7201,-1.6924,-1.6822,-1.6832,-1.6978,-1.7129,-1.7246,-1.7568,-1.7263,-1.6491,-1.6216,-1.5101,-1.3569,-1.3426,-1.31,-1.2748,-1.2913,-1.2999,-1.2966,-1.2726,-1.2721,-1.2605,-1.2378,-1.2505,-1.2768,-1.2392,-1.2512,-1.2527,-1.1166,-1.0399,-0.9921,-0.9585,-0.8152,-0.6807,-0.6536,-0.6471,-0.6434,-0.6291,-0.6338,-0.6338,-0.6338,-0.6338,-0.6338,-0.6338,-0.6338,-0.6264,-0.6278,-0.6278,-0.6268,-0.624,-0.5706,-0.5318,-0.5284,-0.3866,-0.3618,-0.5259,-0.4564,-0.4225,-0.4709,-0.5189,-0.5399,-0.5413,-0.2753,-0.0873,-0.0,-0.0,-0.0,-0.0,-0.0,-0.0,-0.0,-0.0,-0.0,-1.3198,-1.3609,-1.3998,-1.3877,-1.4002,0.0,-1.6572,-1.7444,0.0,-1.9444,0.0,0.0,0.0,-1.7311,-1.8046,-2.0192,-2.1896,-2.3645,-2.5601,0.0,-2.4745,-2.4734,-2.4655,-2.468,-2.4858,-2.4845,-2.4261,-2.2951,-2.3589,-2.3154,-2.0926,-2.1143,-2.085,-1.9829,-1.9073,-1.8599,-1.8371,-1.7969,-1.8136,-1.8731,-1.7662,-1.7176,-1.7116,-1.6497,-1.6387,-1.6777,-1.6753,-1.656,-1.6075,-1.5061,-1.4117,-1.3256,-1.2629,-1.2385,-1.2338,-1.2358,-1.2365,-1.2365,-1.2345,-1.2338,-1.2331,-1.2311,-1.2505,-1.2768,-1.2392,-1.2512,-1.2527,-1.1166,-1.0231,-0.934,-0.8383,-0.7404,-0.6675,-0.6512,-0.6471,-0.6434,-0.6291,-0.6338,-0.6338,-0.6338,-0.6338,-0.6338,-0.6338,-0.6338,-0.6264,-0.6278,-0.6278,-0.6227,-0.6081,-0.4876,-0.3956,-0.3786,-0.3608,-0.402,-0.5322,-0.5326,-0.4573,-0.3013,-0.4503,-0.5399,-0.5413,-0.5138,-0.3437,-0.0067,-0.0,-0.0,-0.0,-0.0,-0.0,-0.0,-0.0,-0.0,-1.3357,-1.396,-1.4492,-1.4351,-1.4615,0.0,0.0,-1.9286,-2.0291,-2.0112,-2.0965,0.0,0.0,0.0,-2.0769,-2.1641,-2.3624,-2.5353,-2.6116,-2.5848,-2.5387,-2.4847,-2.4519,-2.4167,-2.3816,-2.301,-2.2213,-2.1356,-2.1139,-2.0682,-1.9817,-1.9867,-1.9604,-1.8944,-1.9034,-1.8751,-1.8047,-1.8346,-1.8622,-1.8952,-1.7476,-1.6911,-1.7183,-1.6417,-1.6309,-1.6665,-1.6665,-1.6419,-1.5945,-1.5239,-1.4408,-1.3502,-1.2618,-1.2305,-1.2305,-1.2305,-1.2305,-1.2305,-1.2305,-1.2305,-1.2305,-1.2305,-1.2378,-1.2452,-1.2338,-1.1919,-1.1295,-1.0218,-0.9199,-0.8344,-0.7957,-0.7236,-0.6522,-0.6376,-0.6339,-0.6349,-0.6383,-0.6322,-0.6288,-0.6376,-0.6322,-0.6338,-0.6338,-0.6338,-0.6264,-0.6278,-0.6278,-0.5783,-0.4402,-0.4702,-0.5012,-0.4742,-0.4688,-0.4903,-0.5393,-0.437,-0.3894,-0.4378,-0.3964,-0.4236,-0.5346,-0.5413,-0.2621,0.3234,0.337,0.2825,0.1677,0.0537,-0.0,-0.0,-0.0,-0.0,-1.3408,-1.3689,-1.4003,0.0,0.0,0.0,-1.8724,-2.064,-2.1853,-2.1796,-2.2253,0.0,-1.9918,0.0,0.0,0.0,-2.4319,-2.5759,-2.5661,-2.5486,-2.5043,-2.4141,-2.3703,-2.3238,-2.2673,-2.1604,-2.0688,-2.003,-1.9538,-1.9182,-1.8824,-1.8859,-1.8847,-1.8794,-1.8861,-1.872,-1.827,-1.8586,-1.8857,-1.8983,-1.7626,-1.7056,-1.7301,-1.6316,-1.6103,-1.6523,-1.6523,-1.6154,-1.5593,-1.551,-1.4806,-1.3578,-1.2453,-1.2138,-1.2291,-1.2198,-1.2225,-1.2305,-1.2305,-1.2305,-1.2305,-1.2305,-1.2305,-1.2305,-1.2305,-1.162,-1.0559,-0.9599,-0.8765,-0.8237,-0.7859,-0.7102,-0.638,-0.6285,-0.6338,-0.6288,-0.6383,-0.6329,-0.6288,-0.6386,-0.6329,-0.6338,-0.6338,-0.6338,-0.6264,-0.6271,-0.6278,-0.5799,-0.4295,-0.511,-0.5663,-0.5419,-0.5433,-0.5379,-0.5389,-0.3756,-0.3489,-0.5276,-0.3185,-0.2372,-0.3641,-0.2619,0.0335,0.5276,0.541,0.4785,0.3553,0.2278,0.1406,0.087,0.0873,0.0874,-1.3259,-1.2718,0.0,0.0,0.0,0.0,-1.9634,-2.1177,-2.2501,-2.4896,-2.364,-2.2179,-2.2437,-2.1322,0.0,-2.2245,-2.3686,-2.4534,-2.4424,-2.4391,-2.3851,-2.2457,-2.2297,-2.2083,-2.1531,-2.0836,-1.9995,-1.916,-1.9219,-1.8813,-1.7842,-1.8232,-1.8782,-1.9388,-1.8436,-1.827,-1.897,-1.848,-1.848,-1.897,-1.8258,-1.7787,-1.7578,-1.6083,-1.5644,-1.6115,-1.6115,-1.5619,-1.4925,-1.5638,-1.5024,-1.3519,-1.1992,-1.1784,-1.2265,-1.1977,-1.2051,-1.2305,-1.2305,-1.2305,-1.2305,-1.2305,-1.2305,-1.2305,-1.2305,-1.162,-1.0559,-0.9593,-0.9296,-0.9069,-0.8089,-0.7099,-0.6338,-0.6338,-0.6338,-0.6338,-0.6342,-0.6338,-0.6338,-0.6342,-0.6264,-0.6338,-0.6338,-0.6338,-0.6338,-0.6338,-0.6271,-0.6274,-0.6257,-0.5932,-0.5641,-0.5396,-0.5428,-0.5432,-0.5379,-0.3754,-0.3491,-0.5209,-0.2005,-0.0,-0.0,0.3439,0.5346,0.5413,0.5403,0.5396,0.5396,0.5396,0.4503,0.2744,0.2744,0.2744,-1.2998,-1.3985,0.0,-1.5004,0.0,0.0,0.0,-2.0871,0.0,0.0,-2.3555,-2.236,-2.1873,0.0,0.0,-2.2505,-2.3686,-2.4435,-2.3895,-2.3851,-2.3325,-2.1888,-2.1732,-2.1518,-2.0966,-1.9817,-1.8805,-1.8092,-1.7628,-1.7179,-1.689,-1.7991,-1.8736,-1.8898,-1.9129,-1.9169,-1.8983,-1.8869,-1.8668,-1.8455,-1.7572,-1.7311,-1.7578,-1.6585,-1.6002,-1.5605,-1.5605,-1.5652,-1.5666,-1.4962,-1.4156,-1.3365,-1.1948,-1.1663,-1.1991,-1.1904,-1.2051,-1.2305,-1.2305,-1.2305,-1.2305,-1.2305,-1.2305,-1.2305,-1.2305,-1.162,-1.0708,-1.0415,-0.982,-0.9221,-0.8922,-0.8618,-0.8389,-0.8389,-0.7859,-0.7358,-0.7477,-0.6872,-0.6291,-0.639,-0.6329,-0.6338,-0.6338,-0.6338,-0.6338,-0.6338,-0.6264,-0.6186,-0.5966,-0.5861,-0.5694,-0.5459,-0.5428,-0.5369,-0.5389,-0.4934,-0.3737,-0.1732,-0.0569,-0.0,-0.0,0.104,0.2773,0.5349,0.5383,0.5386,0.5372,0.5379,0.5109,0.4631,0.457,0.4573,-1.2889,-1.3718,0.0,-1.5804,-1.7239,-1.8749,-2.0127,0.0,0.0,0.0,0.0,-2.2974,-2.2761,-2.3038,0.0,-2.2659,-2.3496,-2.3877,-2.2964,-2.3013,-2.2609,-2.099,-2.0815,-2.0526,-1.9761,-1.8839,-1.8104,-1.7741,-1.7247,-1.709,-1.7357,-1.8232,-1.8821,-1.915,-1.9169,-1.912,-1.8983,-1.8319,-1.8204,-1.8482,-1.7435,-1.7172,-1.7578,-1.6528,-1.5806,-1.541,-1.541,-1.5762,-1.6195,-1.4386,-1.3702,-1.3494,-1.1751,-1.1329,-1.169,-1.169,-1.1877,-1.2144,-1.2265,-1.2305,-1.2305,-1.2305,-1.2305,-1.2305,-1.2305,-1.1537,-1.0654,-1.0754,-1.0273,-0.9776,-0.9868,-1.0196,-1.0271,-0.9523,-0.8542,-0.7812,-0.7918,-0.7091,-0.6285,-0.6373,-0.6318,-0.6338,-0.6338,-0.6338,-0.6338,-0.6338,-0.6338,-0.6149,-0.584,-0.58,-0.5688,-0.5459,-0.5432,-0.5396,-0.5403,-0.5431,-0.4445,-0.2281,-0.0803,-0.0735,-0.2465,-0.0859,0.0995,0.3197,0.4648,0.541,0.5396,0.5406,0.5379,0.5379,0.5379,0.5382,-1.2939,0.0,0.0,-1.6619,-1.7492,0.0,-2.0332,-2.2679,-2.4745,-2.5901,0.0,-2.3699,-2.4328,-2.343,-2.2634,-2.2634,-2.3056,-2.2966,-2.1727,-2.2056,-2.1754,-1.9953,-1.975,-1.9321,-1.8304,-1.8006,-1.7867,-1.782,-1.776,-1.797,-1.8519,-1.872,-1.9049,-1.966,-1.8756,-1.8493,-1.8895,-1.7438,-1.7368,-1.8758,-1.758,-1.7139,-1.7346,-1.6042,-1.5468,-1.541,-1.541,-1.5869,-1.6418,-1.3961,-1.3397,-1.3786,-1.1518,-1.0902,-1.1383,-1.1383,-1.1577,-1.187,-1.2131,-1.2238,-1.2258,-1.2184,-1.2204,-1.2298,-1.2191,-1.1405,-1.0599,-1.0837,-1.073,-1.0611,-1.0867,-1.162,-1.1848,-0.99,-0.8689,-0.7936,-0.7859,-0.7022,-0.6338,-0.6338,-0.6338,-0.6338,-0.6338,-0.6338,-0.6338,-0.6338,-0.6247,-0.6132,-0.5837,-0.5789,-0.5674,-0.5459,-0.5382,-0.5315,-0.5168,-0.5294,-0.5451,-0.5507,-0.2398,-0.2203,-0.5885,-0.2146,-0.0,-0.0,0.3193,0.4984,0.5123,0.518,0.5243,0.5379,0.5369,0.5432,0.0,-1.4013,0.0,0.0,-1.8759,-2.0658,-2.1712,-2.2409,-2.2943,-2.344,-2.3182,-2.2921,-2.3071,-2.2443,-2.1904,-2.1904,-2.2024,-2.1824,-2.1012,-2.104,-2.0631,-1.9323,-1.917,-1.8905,-1.8276,-1.8006,-1.7713,-1.7298,-1.8024,-1.8148,-1.7488,-1.8802,-1.9257,-1.8581,-1.8744,-1.8694,-1.8392,-1.8028,-1.7545,0.0,-1.6587,-1.6136,-1.5648,-1.6046,-1.5921,-1.541,-1.541,-1.5518,-1.5555,-1.3735,-1.3099,-1.3037,-1.129,-1.0775,-1.1089,-1.1089,-1.1269,-1.153,-1.159,-1.177,-1.1886,-1.1075,-1.1516,-1.2104,-1.1137,-1.1181,-1.1585,-1.1651,-1.1625,-1.1638,-1.1924,-1.215,-1.2003,-1.0789,-0.9739,-0.8765,-0.7931,-0.7022,-0.6338,-0.6338,-0.6338,-0.6338,-0.6338,-0.6338,-0.6338,-0.6338,-0.6159,-0.6013,-0.5827,-0.5705,-0.5566,-0.5449,-0.541,-0.4798,-0.3418,-0.4592,-0.5631,-0.6051,-0.541,-0.4606,-0.3807,-0.1366,-0.0075,-0.0299,0.0643,0.1885,0.3283,0.326,0.4025,0.5393,0.5389,0.5389,0.0,0.0,0.0,-1.7291,0.0,-2.1466,-2.2019,-2.2399,-2.2611,-2.2522,-2.235,-2.2203,-2.2203,-2.1934,-2.159,-2.1276,-2.1485,-2.1346,-2.0361,-2.0495,-2.0274,-1.9098,-1.8985,-1.8689,-1.7862,-1.7962,-1.7824,-1.7288,-1.7995,-1.8215,-1.7654,-1.8511,-1.8781,-1.8229,-1.8229,-1.8229,-1.8204,-1.7362,-1.6925,-1.68,-1.5796,-1.5213,-1.4952,-1.5675,-1.5748,-1.541,-1.541,-1.5167,-1.4746,-1.3485,-1.2757,-1.2328,-1.1108,-1.0719,-1.0802,-1.0942,-1.1089,-1.1263,-1.1543,-1.1449,-1.1084,-1.0694,-1.0967,-1.1247,-1.0593,-1.0879,-1.1476,-1.1617,-1.1557,-1.1447,-1.1301,-1.1329,-1.1052,-0.9564,-0.9285,-0.8993,-0.8008,-0.7022,-0.6338,-0.6338,-0.6338,-0.6338,-0.6338,-0.6338,-0.6338,-0.6338,-0.6129,-0.5976,-0.582,-0.5677,-0.5559,-0.5481,-0.5418,-0.4669,-0.282,-0.4633,-0.5977,-0.6287,-0.6133,-0.557,-0.4535,-0.3503,-0.2118,-0.0226,-0.0073,0.0498,0.1424,0.1384,0.1913,0.2804,0.3715,0.4097,0.0,0.0,-1.5049,-1.801,-2.0086,0.0,-2.1855,-2.2369,-2.2627,-2.2181,-2.1858,-2.1618,-2.153,-2.1503,-2.1233,-2.0617,-2.1129,-2.115,-1.986,-2.0222,-2.0191,-1.903,-1.8895,-1.8438,-1.7404,-1.7741,-1.7827,-1.7275,-1.784,-1.8116,-1.7928,-1.8091,-1.8116,-1.7915,-1.7564,-1.7505,-1.775,-1.6312,-1.5982,-1.6703,-1.5034,-1.4357,-1.458,-1.5,-1.5273,-1.541,-1.5225,-1.4815,-1.4154,-1.3183,-1.2389,-1.171,-1.0926,-1.0624,-1.0651,-1.0828,-1.0915,-1.0995,-1.1536,-1.1095,-1.0372,-1.0583,-1.0542,-1.039,-1.0301,-1.0604,-1.1042,-1.1283,-1.1176,-1.0856,-1.0242,-1.0219,-0.9896,-0.7928,-0.8314,-0.8765,-0.7783,-0.6868,-0.6338,-0.6338,-0.6338,-0.6338,-0.6338,-0.6338,-0.6338,-0.6338,-0.6105,-0.5945,-0.5817,-0.5677,-0.5589,-0.5589,-0.551,-0.477,-0.3079,-0.4642,-0.5873,-0.6312,-0.6036,-0.595,-0.6013,-0.617,-0.4626,-0.1133,-0.037,-0.0,-0.0,-0.0,-0.0,0.007,0.2183,0.3165,0.0,0.0,-1.7555,0.0,-2.0127,-2.1577,0.0,0.0,-2.1661,0.0,-2.1283,-2.1253,-2.0903,-2.0649,-2.0334,-1.9897,-2.0528,-2.0782,-1.9846,-2.0091,-2.0005,-1.9022,-1.8498,-1.7963,-1.7366,-1.7439,-1.725,-1.6672,-1.7601,-1.7777,-1.6798,-1.7677,-1.7752,-1.6773,-1.7149,-1.6925,-1.5948,-1.5703,-1.5153,-1.4243,-1.3831,-1.3667,-1.3691,-1.4111,-1.4707,-1.5352,-1.4688,-1.4332,-1.4085,-1.2565,-1.1896,-1.171,-1.0926,-1.0624,-1.0624,-1.0665,-1.0678,-1.0732,-1.0995,-1.0579,-1.0003,-1.0038,-1.0178,-1.0319,-0.9804,-1.0305,-1.1002,-1.1042,-1.1022,-1.0856,-1.0242,-1.0219,-0.9896,-0.7928,-0.7789,-0.7706,-0.6718,-0.6412,-0.6338,-0.6338,-0.6338,-0.6338,-0.6338,-0.6338,-0.6338,-0.6338,-0.6017,-0.5823,-0.5803,-0.5677,-0.5589,-0.5589,-0.5758,-0.5321,-0.3834,-0.3611,-0.429,-0.6203,-0.6264,-0.6251,-0.6247,-0.6125,-0.5839,-0.5478,-0.1886,-0.0,-0.0,-0.0,-0.0,0.007,0.3496,0.5046,-1.4498,-1.5833,-1.7261,0.0,-1.9669,-2.1032,-2.1311,0.0,-2.1869,-2.1446,-2.1231,-2.0917,-2.027,-2.0248,-2.0246,-2.0054,-2.0565,-2.0764,-2.0124,-2.0193,-1.9954,-1.8991,-1.8675,-1.8222,-1.738,-1.7375,-1.7137,0.0,-1.6974,-1.7036,-1.6547,-1.6986,-1.7036,-1.6534,-1.6429,-1.6163,-1.5588,-1.4949,-1.4143,-1.3286,-1.3204,-1.3281,-1.3516,-1.3701,-1.4121,-1.4642,-1.3894,-1.3309,-1.2843,-1.1741,-1.1049,-1.0608,-1.0424,-1.0314,-1.0327,-1.0557,-1.0624,-1.0665,-1.0895,-1.0397,-0.969,-0.9829,-0.9927,-0.9863,-0.9568,-1.0077,-1.0755,-1.0755,-1.0755,-1.0516,-0.923,-0.9129,-0.8832,-0.6977,-0.6749,-0.6872,-0.6412,-0.6338,-0.6338,-0.6338,-0.6338,-0.6338,-0.6338,-0.6338,-0.6338,-0.6338,-0.6071,-0.5928,-0.5928,-0.58,-0.5742,-0.5827,-0.5962,-0.5773,-0.5307,-0.5054,-0.5326,-0.621,-0.62,-0.6156,-0.6325,-0.5878,-0.5698,-0.579,-0.3947,-0.2044,-0.0,-0.0,-0.0,0.0072,0.1624,0.3462,0.0,0.0,-1.6743,-1.7744,-1.9302,-2.0727,0.0,0.0,-2.218,0.0,-2.1368,-2.0926,-2.0174,-2.0261,-2.0483,-2.0483,-2.0846,-2.0959,-2.0382,-2.0314,-1.9954,-1.8991,-1.8773,-1.8317,-1.7393,-1.7234,-1.6986,0.0,-1.6522,-1.6522,-1.6522,-1.6522,-1.6423,-1.6281,-1.582,-1.5454,-1.5129,-1.4097,-1.3324,-1.2881,-1.2881,-1.3047,-1.335,-1.335,-1.3516,-1.3776,-1.3104,-1.2457,-1.1839,-1.0956,-1.0236,-0.9706,-0.992,-1.0053,-1.014,-1.0367,-1.0557,-1.0665,-1.0895,-1.0315,-0.96,-0.9997,-0.9858,-0.9559,-0.9694,-1.0135,-1.0624,-1.0624,-1.0678,-1.0277,-0.8505,-0.8303,-0.8061,-0.6284,-0.6064,-0.6338,-0.6338,-0.6338,-0.6338,-0.6338,-0.6338,-0.6338,-0.6338,-0.6338,-0.6338,-0.6338,-0.6129,-0.603,-0.603,-0.5928,-0.5901,-0.6017,-0.6037,-0.6105,-0.6261,-0.624,-0.624,-0.6288,-0.5628,-0.5575,-0.6301,-0.5841,-0.5533,-0.5381,-0.4525,-0.2668,-0.0,-0.0,-0.0,-0.0,0.0495,0.2142,0.0,-1.5677,0.0,-1.755,-1.9367,0.0,0.0,0.0,0.0,-2.1688,-2.1582,-2.143,-2.0991,-2.0959,-2.0959,-2.0959,-2.1306,-2.1259,-2.04,-2.0314,-1.9954,-1.8991,-1.8447,-1.7935,-1.7353,-1.682,-1.6547,0.0,-1.6522,-1.6522,-1.6522,-1.6522,-1.6238,-1.5676,-1.5632,-1.5039,-1.3909,-1.3238,-1.2929,-1.2881,-1.2881,-1.2891,-1.291,-1.291,-1.293,-1.2939,-1.2253,-1.195,-1.1783,-1.0351,-0.9737,-0.9686,-0.9699,-0.9873,-1.012,-1.0134,-1.0321,-1.0665,-1.0895,-1.0315,-0.9638,-1.0599,-1.0261,-0.9657,-1.0335,-1.0568,-1.0624,-1.0624,-1.0755,-1.0567,-0.8684,-0.8459,-0.8344,-0.6455,-0.6142,-0.6338,-0.6338,-0.6338,-0.6338,-0.6338,-0.6338,-0.6338,-0.6338,-0.6338,-0.6338,-0.6338,-0.6129,-0.603,-0.603,-0.6023,-0.602,-0.603,-0.603,-0.6095,-0.6247,-0.6139,-0.6122,-0.6268,-0.4373,-0.4146,-0.6234,-0.6237,-0.5999,-0.5448,-0.2041,-0.0155,-0.0,-0.0,-0.0,0.007,0.1751,0.2687,0.0,0.0,0.0,-1.6725,-1.8182,-1.9529,-1.9529,-2.0608,-2.1457,-2.0978,-2.1253,-2.1568,-2.1399,-2.1399,-2.1399,-2.1399,-2.1491,-2.1399,-2.0829,-2.023,-1.9477,-1.8482,-1.7907,-1.7394,-1.6837,-1.6595,-1.6522,0.0,0.0,-1.6522,-1.6522,-1.6139,-1.582,-1.5588,-1.4858,-1.405,-1.3238,-1.3017,-1.2881,-1.2881,-1.2881,-1.2881,-1.2881,-1.2881,-1.2657,-1.2147,-1.1507,-1.1201,-1.1096,-0.9695,-0.9118,-0.9158,-0.9539,-0.9746,-0.988,-1.0261,-1.053,-1.0638,-1.0681,-1.0515,-1.0251,-1.0651,-1.0515,-1.0232,-1.0524,-1.0624,-1.0498,-0.9913,-0.9854,-0.9468,-0.7683,-0.7449,-0.7415,-0.63,-0.6149,-0.6234,-0.6135,-0.6193,-0.6338,-0.6338,-0.6338,-0.6338,-0.6338,-0.6338,-0.6338,-0.6338,-0.6213,-0.6176,-0.6176,-0.6176,-0.6139,-0.604,-0.603,-0.6054,-0.6118,-0.6078,-0.6122,-0.6298,-0.5593,-0.4247,-0.2357,-0.2278,-0.2121,-0.1965,-0.0696,-0.0,-0.0,-0.0,-0.0,-0.0,0.0636,0.221,-1.4842,0.0,0.0,0.0,0.0,-1.8535,-1.8577,0.0,-2.0527,-2.0504,-2.092,-2.1332,-2.1549,-2.1414,-2.1332,-2.1549,-2.1491,-2.1244,-2.0813,-1.9974,-1.9037,-1.821,-1.7626,-1.7076,-1.6552,-1.6522,-1.6522,0.0,0.0,0.0,-1.6522,-1.5908,-1.5398,-1.4994,-1.4003,-1.342,-1.319,-1.32,-1.3286,-1.3478,-1.3286,-1.32,-1.32,-1.2968,-1.251,-1.1765,-1.1116,-1.0661,-1.0364,-0.9263,-0.8804,-0.8858,-0.9345,-0.9593,-0.974,-1.0227,-1.0474,-1.0624,-1.0624,-1.0624,-1.0624,-1.0624,-1.0624,-1.0624,-1.0624,-1.0624,-1.0434,-0.953,-0.9332,-0.9,-0.7211,-0.6708,-0.661,-0.6438,-0.6514,-0.6753,-0.6931,-0.6601,-0.6338,-0.6338,-0.6338,-0.6338,-0.6338,-0.6338,-0.6338,-0.6338,-0.6217,-0.6203,-0.6254,-0.6213,-0.6146,-0.6122,-0.6037,-0.5966,-0.5904,-0.5832,-0.5907,-0.624,-0.4969,-0.2909,-0.0079,-0.0,-0.0,-0.0,-0.0,-0.0,-0.0,-0.0,-0.0,-0.0,-0.0,0.1301,0.0,0.0,0.0,0.0,0.0,0.0,-1.8468,0.0,-1.9398,-2.0225,-2.0475,-2.0751,-2.1401,-2.0969,-2.0768,-2.1417,-2.1195,-2.0797,-2.0348,-1.9492,-1.8688,-1.8185,-1.7626,-1.7076,-1.6552,-1.6522,0.0,0.0,-1.6522,-1.6522,-1.6522,-1.5908,-1.5039,-1.3815,-1.3238,-1.319,-1.3768,-1.3815,-1.4097,-1.4698,-1.4097,-1.3815,-1.3779,-1.32,-1.2501,-1.1765,-1.1116,-1.0415,-0.9769,-0.9113,-0.8857,-0.8884,-0.9186,-0.9475,-0.9764,-1.0013,-1.0301,-1.0611,-1.0618,-1.0624,-1.0624,-1.0624,-1.0624,-1.0624,-1.0624,-1.0624,-1.0428,-0.953,-0.945,-0.9237,-0.741,-0.6379,-0.6079,-0.6928,-0.7351,-0.7772,-0.8558,-0.748,-0.6331,-0.6335,-0.6338,-0.6338,-0.6338,-0.6338,-0.6335,-0.6254,-0.6129,-0.6088,-0.623,-0.6122,-0.6108,-0.6264,-0.6115,-0.5972,-0.5842,-0.5548,-0.5619,-0.6159,-0.2356,-0.0078,-0.0079,-0.0,-0.0,-0.0,-0.0,-0.0,-0.0,-0.0,-0.0,-0.0,-0.0,-0.0,-1.4669,0.0,0.0,0.0,0.0,0.0,0.0,0.0,0.0,-1.8037,-1.877,-1.9405,-1.9305,-1.937,-1.9405,-1.9305,-1.9594,-1.9952,-2.0252,-1.9148,-1.8263,-1.8145,-1.7271,-1.668,-1.6522,0.0,0.0,0.0,-1.6522,-1.6522,-1.6522,-1.5511,-1.4606,-1.3815,-1.3647,-1.3637,-1.3815,-1.4236,-1.4514,-1.4698,-1.4097,-1.3815,-1.3779,-1.32,-1.2255,-1.1116,-1.1416,-1.0864,-0.9762,-0.9614,-0.9814,-1.0324,-1.0911,-1.0728,-1.0212,-1.1046,-1.089,-1.0274,-1.0551,-1.0624,-1.0624,-1.0624,-1.0624,-1.0624,-1.0624,-1.0624,-1.0301,-0.8807,-0.8398,-0.8225,-0.717,-0.6769,-0.681,-0.7706,-0.7995,-0.8028,-0.7534,-0.7198,-0.7088,-0.7298,-0.6795,-0.6338,-0.6338,-0.6338,-0.6224,-0.6108,-0.6152,-0.6132,-0.5952,-0.5986,-0.5952,-0.5898,-0.583,-0.5752,-0.5765,-0.5715,-0.5214,-0.4068,-0.2695,-0.2074,-0.2265,-0.0832,-0.0,-0.0,-0.0,-0.0,-0.0,-0.0,-0.0,-0.0,-0.0,-0.0,0.0,0.0,0.0,0.0,0.0,0.0,-1.6468,-1.6818,-1.7167,0.0,-1.7934,-1.8371,-1.8406,-1.8365,-1.8342,-1.8376,-1.8315,-1.8587,-1.9504,-1.8928,-1.8341,-1.8145,-1.7353,-1.6752,0.0,-1.6522,-1.6522,-1.6522,-1.6522,-1.638,-1.6139,-1.5466,-1.4789,-1.419,-1.419,-1.4283,-1.4549,-1.4915,-1.5197,-1.5421,-1.4595,-1.419,-1.4143,-1.3286,-1.2304,-1.1266,-1.1616,-1.1366,-1.061,-1.061,-1.0712,-1.0871,-1.1449,-1.1277,-1.0787,-1.1308,-1.1088,-1.0511,-1.058,-1.0624,-1.0624,-1.0624,-1.0624,-1.0624,-1.0624,-1.0624,-1.0301,-0.8941,-0.8291,-0.7922,-0.7456,-0.7354,-0.7555,-0.8429,-0.8529,-0.8304,-0.8117,-0.7654,-0.726,-0.7005,-0.6627,-0.624,-0.6176,-0.6217,-0.6207,-0.6054,-0.6051,-0.6003,-0.5823,-0.5878,-0.5874,-0.586,-0.5368,-0.4935,-0.4672,-0.5469,-0.5475,-0.432,-0.4114,-0.4013,-0.4024,-0.3104,-0.1822,-0.0,-0.0,-0.0,-0.0,-0.0,-0.0,-0.0,-0.0,-0.0,0.0,0.0,0.0,0.0,0.0,0.0,-1.668,-1.6231,-1.6024,-1.7486,-1.7453,-1.7325,-1.7899,-1.7558,-1.737,-1.7945,-1.7349,-1.7249,-1.8523,-1.8702,-1.8541,-1.8131,-1.7585,0.0,-1.6552,-1.6522,-1.6522,-1.6522,-1.6522,-1.6281,-1.572,-1.5632,-1.5365,-1.4835,-1.4789,-1.505,-1.5576,-1.5676,-1.5964,-1.638,-1.5242,-1.4652,-1.456,-1.343,-1.251,-1.1814,-1.1873,-1.1864,-1.1814,-1.1873,-1.1566,-1.1057,-1.1435,-1.1447,-1.1338,-1.1203,-1.1137,-1.0982,-1.0602,-1.0544,-1.0514,-1.0514,-1.0598,-1.0624,-1.0624,-1.0624,-1.0434,-0.953,-0.8678,-0.8027,-0.8027,-0.8027,-0.8221,-0.9075,-0.8909,-0.8657,-0.9336,-0.8432,-0.7103,-0.5965,-0.6,-0.6166,-0.6027,-0.6118,-0.6162,-0.6023,-0.5901,-0.5817,-0.5783,-0.5806,-0.5892,-0.6018,-0.5066,-0.4164,-0.3477,-0.5172,-0.6133,-0.5852,-0.5816,-0.567,-0.5482,-0.5906,-0.4375,-0.0419,-0.0489,-0.0622,-0.0606,-0.0202,-0.0,-0.0,-0.0,-0.0,0.0,0.0,0.0,0.0,0.0,0.0,-1.4875,-1.5006,-1.5147,0.0,-1.5424,-1.5608,-1.5589,-1.5652,-1.5757,-1.589,-1.6703,-1.7659,-1.8563,-1.7985,-1.7592,-1.8051,-1.7229,0.0,-1.6522,-1.6522,-1.6522,-1.6522,-1.6522,-1.6466,-1.6324,-1.5864,-1.5543,-1.541,-1.541,-1.5499,-1.5588,-1.6095,-1.6139,-1.5776,-1.5062,-1.4468,-1.3956,-1.3248,-1.251,-1.1814,-1.2452,-1.2344,-1.1864,-1.2452,-1.2618,-1.2508,-1.2916,-1.2494,-1.1718,-1.1729,-1.1216,-1.0379,-1.0038,-1.0007,-1.02,-1.02,-1.0367,-1.0624,-1.0624,-1.0624,-1.0434,-0.953,-0.8678,-0.8027,-0.8027,-0.8027,-0.8221,-0.9075,-0.918,-0.895,-0.8419,-0.8204,-0.7496,-0.5805,-0.5688,-0.5881,-0.585,-0.5871,-0.5881,-0.585,-0.5925,-0.5898,-0.5661,-0.5837,-0.5974,-0.5962,-0.5765,-0.562,-0.5673,-0.5924,-0.6002,-0.5966,-0.5745,-0.5651,-0.5734,-0.5603,-0.462,-0.2512,-0.3705,-0.4344,-0.4319,-0.1414,-0.0,-0.0,-0.0,-0.0,0.0,0.0,0.0,-1.4241,0.0,0.0,0.0,-1.4818,-1.4805,-1.5049,-1.4977,-1.4873,-1.4876,-1.5027,-1.5133,-1.5283,-1.6254,-1.7116,-1.7361,-1.7756,-1.803,-1.8104,-1.7394,0.0,-1.6522,-1.6522,-1.6522,-1.6522,-1.6522,-1.6522,-1.6522,-1.6194,-1.6051,-1.6051,-1.6051,-1.6051,-1.6051,-1.6337,-1.6194,-1.5588,-1.4971,-1.4376,-1.3779,-1.32,-1.2715,-1.2344,-1.2725,-1.2666,-1.2393,-1.2774,-1.2881,-1.292,-1.334,-1.3032,-1.2339,-1.2404,-1.1734,-1.0748,-1.0473,-1.0279,-1.014,-1.0294,-1.0441,-1.0624,-1.0624,-1.0624,-1.0498,-1.0047,-0.9652,-0.932,-0.932,-0.932,-0.939,-0.9849,-0.9594,-0.9075,-0.8156,-0.772,-0.7038,-0.5638,-0.5481,-0.5606,-0.5684,-0.5752,-0.5776,-0.5705,-0.5759,-0.5755,-0.561,-0.5779,-0.5891,-0.5974,-0.6098,-0.6122,-0.6125,-0.604,-0.5973,-0.582,-0.5671,-0.5589,-0.5583,-0.5457,-0.4599,-0.294,-0.3652,-0.4512,-0.5403,-0.3567,-0.2218,-0.1343,-0.1343,-0.0873,0.0,0.0,0.0,0.0,0.0,-1.4376,0.0,0.0,0.0,0.0,0.0,0.0,0.0,0.0,0.0,0.0,0.0,0.0,0.0,-1.7426,0.0,-1.7799,-1.737,0.0,-1.6456,-1.6358,-1.6409,-1.6509,-1.6421,-1.6409,-1.6509,-1.6522,-1.6522,-1.6522,-1.6522,-1.6522,-1.6522,-1.6522,-1.6151,-1.541,-1.4926,-1.4329,-1.36,-1.3104,-1.2881,-1.2881,-1.2881,-1.2881,-1.2881,-1.2881,-1.2881,-1.291,-1.3262,-1.3184,-1.2861,-1.273,-1.2051,-1.119,-1.0997,-1.0562,-1.008,-1.0381,-1.0577,-1.0624,-1.0624,-1.0624,-1.0624,-1.0624,-1.0624,-1.0561,-1.0364,-1.0364,-1.0364,-1.0364,-0.9658,-0.8877,-0.8156,-0.7307,-0.6461,-0.5557,-0.5428,-0.5466,-0.5525,-0.564,-0.5688,-0.5603,-0.5589,-0.5589,-0.5589,-0.5715,-0.5847,-0.5973,-0.6098,-0.6132,-0.6037,-0.5976,-0.5844,-0.5606,-0.5562,-0.5491,-0.5432,-0.5372,-0.4712,-0.3311,-0.3224,-0.3969,-0.5437,-0.5406,-0.464,-0.3218,-0.3218,-0.2414,0.0,0.0,0.0,0.0,-1.3908,0.0,0.0,0.0,-1.3628,-1.3726,0.0,0.0,0.0,0.0,0.0,0.0,0.0,0.0,-1.5951,-1.6471,-1.676,-1.6437,-1.6505,0.0,0.0,-1.5916,-1.5994,-1.6441,-1.607,-1.6007,-1.6497,-1.6522,-1.6522,-1.6522,-1.6522,-1.6522,-1.6522,-1.6522,-1.5932,-1.4789,-1.4744,-1.4107,-1.3017,-1.2929,-1.2881,-1.2881,-1.2881,-1.2881,-1.2881,-1.2881,-1.2881,-1.2881,-1.293,-1.292,-1.2832,-1.219,-1.1471,-1.0834,-1.0509,-1.0123,-0.978,-1.0074,-1.0347,-1.0624,-1.0624,-1.0624,-1.0624,-1.0624,-1.0624,-1.0428,-0.9658,-0.9466,-0.9466,-0.9466,-0.8807,-0.8091,-0.8027,-0.7307,-0.6461,-0.5557,-0.5428,-0.5432,-0.5452,-0.5466,-0.5454,-0.5572,-0.5589,-0.5589,-0.5589,-0.5715,-0.581,-0.5827,-0.5844,-0.5901,-0.602,-0.5789,-0.5627,-0.5593,-0.546,-0.5446,-0.5428,-0.5372,-0.5447,-0.5454,-0.5245,-0.5309,-0.5655,-0.5514,-0.5319,-0.5068,-0.5068,-0.5007,0.0,0.0,0.0,0.0,0.0,0.0,-1.3659,0.0,-1.356,0.0,0.0,0.0,0.0,0.0,0.0,0.0,-1.557,0.0,0.0,0.0,-1.6316,0.0,0.0,0.0,0.0,0.0,0.0,0.0,-1.6007,-1.5932,-1.6484,-1.6522,-1.6522,-1.6522,-1.6522,-1.6522,-1.6522,-1.6139,-1.5555,-1.4698,-1.4329,-1.3742,-1.2881,-1.2881,-1.2881,-1.2881,-1.2881,-1.2881,-1.2881,-1.2881,-1.2881,-1.2881,-1.2881,-1.2881,-1.2852,-1.2365,-1.1713,-1.1027,-1.0637,-1.0243,-0.9987,-1.0274,-1.0517,-1.0624,-1.0624,-1.0624,-1.0624,-1.0624,-1.0624,-1.0498,-1.0174,-0.9658,-0.9274,-0.9274,-0.8613,-0.7827,-0.7372,-0.6981,-0.6461,-0.5557,-0.5428,-0.5428,-0.5428,-0.5428,-0.5449,-0.5447,-0.5457,-0.5491,-0.5579,-0.564,-0.5708,-0.5793,-0.58,-0.5793,-0.5776,-0.5661,-0.5552,-0.5464,-0.5463,-0.5428,-0.5428,-0.5432,-0.547,-0.5542,-0.547,-0.5466,-0.5535,-0.5466,-0.4834,-0.383,-0.383,-0.4381,-1.5022,0.0,0.0,0.0,0.0,0.0,0.0,0.0,0.0,0.0,0.0,0.0,0.0,0.0,0.0,0.0,0.0,-1.5521,0.0,-1.5369,0.0,0.0,0.0,0.0,0.0,0.0,0.0,-1.6233,-1.5781,-1.5781,-1.6471,-1.6522,-1.6522,-1.6522,-1.6522,-1.6423,-1.6238,-1.582,-1.5231,-1.4468,-1.4003,-1.3457,-1.2881,-1.2881,-1.2881,-1.2881,-1.2881,-1.2881,-1.2881,-1.2881,-1.2881,-1.2881,-1.2881,-1.2783,-1.2558,-1.2379,-1.18,-1.1125,-1.0811,-1.0498,-1.0274,-1.0488,-1.0624,-1.0624,-1.0624,-1.0624,-1.0624,-1.0624,-1.0624,-1.0624,-1.0624,-0.9983,-0.9274,-0.9274,-0.842,-0.7502,-0.685,-0.6527,-0.6141,-0.5491,-0.5428,-0.5428,-0.5428,-0.5428,-0.5428,-0.5428,-0.5428,-0.5403,-0.5511,-0.5528,-0.5583,-0.5728,-0.5705,-0.5657,-0.5596,-0.5552,-0.5481,-0.5435,-0.5428,-0.5428,-0.5428,-0.5428,-0.5449,-0.5423,-0.5449,-0.5449,-0.5423,-0.5452,-0.4694,-0.342,-0.2947,-0.3155,0.0,0.0,0.0,-1.414,0.0,0.0,0.0,0.0,-1.3615,0.0,0.0,0.0,0.0,0.0,0.0,0.0,0.0,0.0,0.0,0.0,0.0,0.0,0.0,0.0,0.0,-1.4462,-1.4588,-1.5643,-1.5255,-1.5379,-1.6459,-1.6522,-1.6522,-1.6522,-1.6522,-1.6238,-1.5632,-1.5632,-1.4994,-1.3815,-1.3815,-1.3457,-1.2881,-1.2881,-1.2881,-1.2881,-1.2881,-1.2881,-1.2881,-1.2881,-1.2881,-1.2881,-1.2881,-1.2471,-1.185,-1.1841,-1.1384,-1.0783,-1.0728,-1.064,-1.0611,-1.0618,-1.0624,-1.0624,-1.0624,-1.0624,-1.0624,-1.0624,-1.0624,-1.0624,-1.0624,-0.9983,-0.9274,-0.9274,-0.7962,-0.6719,-0.6719,-0.6009,-0.5428,-0.5428,-0.5428,-0.5428,-0.5428,-0.5428,-0.5428,-0.5428,-0.5428,-0.5428,-0.5435,-0.5435,-0.5426,-0.5583,-0.5464,-0.5433,-0.5579,-0.5454,-0.5432,-0.5428,-0.5428,-0.5428,-0.5428,-0.5428,-0.5433,-0.5579,-0.5437,-0.5437,-0.5583,-0.5447,-0.5382,-0.5259,-0.3487,-0.1811,0.0,0.0,-1.733,-1.5351,0.0,0.0,0.0,0.0,0.0,0.0,0.0,0.0,0.0,0.0,0.0,0.0,0.0,0.0,0.0,0.0,0.0,0.0,0.0,0.0,0.0,0.0,0.0,-1.5643,-1.5517,-1.5731,-1.6471,-1.6522,-1.6522,-1.6522,-1.6522,-1.6194,-1.5588,-1.5186,-1.4595,-1.3815,-1.342,-1.3113,-1.2881,-1.2881,-1.2881,-1.2881,-1.2881,-1.2881,-1.2881,-1.2881,-1.2881,-1.2832,-1.2344,-1.203,-1.1724,-1.1316,-1.0867,-1.044,-1.0328,-1.0275,-1.0301,-1.0557,-1.0624,-1.0624,-1.0624,-1.0624,-1.0624,-1.0624,-1.0624,-1.0624,-1.0624,-0.9983,-0.9139,-0.8549,-0.7567,-0.6527,-0.5947,-0.5624,-0.5428,-0.5428,-0.5428,-0.5428,-0.5428,-0.5428,-0.5428,-0.5428,-0.5428,-0.5428,-0.5428,-0.5428,-0.5449,-0.5433,-0.5459,-0.5449,-0.5433,-0.5459,-0.5428,-0.5428,-0.5428,-0.5428,-0.5428,-0.5428,-0.5452,-0.5437,-0.5456,-0.5456,-0.544,-0.5494,-0.5474,-0.5329,-0.3553,-0.1724,-1.7914,-1.8165,0.0,-1.6318,-1.6263,0.0,-1.4908,0.0,-1.4777,0.0,0.0,0.0,0.0,0.0,0.0,0.0,0.0,0.0,0.0,-1.4578,0.0,0.0,0.0,0.0,0.0,0.0,-1.4664,-1.5341,-1.5404,-1.5643,0.0,0.0,-1.638,-1.6194,-1.6194,-1.5776,-1.4949,-1.4549,-1.4061,-1.3457,-1.3113,-1.2881,-1.2881,-1.2881,-1.3017,-1.319,-1.2968,-1.3017,-1.319,-1.2968,-1.2881,-1.2832,-1.208,-1.1665,-1.1366,-1.0712,-1.0226,-0.9888,-0.9782,-0.994,-1.0147,-1.0341,-1.0474,-1.0624,-1.0624,-1.0624,-1.0624,-1.0624,-1.0624,-1.0624,-1.0624,-0.9983,-0.9139,-0.8613,-0.7567,-0.6527,-0.6009,-0.562,-0.5428,-0.5428,-0.5428,-0.5428,-0.5428,-0.5428,-0.5428,-0.5428,-0.5428,-0.5428,-0.5428,-0.5428,-0.5428,-0.5428,-0.5428,-0.5428,-0.5428,-0.541,-0.542,-0.5432,-0.546,-0.5471,-0.5432,-0.5413,-0.5443,-0.5443,-0.5456,-0.5456,-0.5443,-0.5488,-0.5538,-0.5466,-0.3621,-0.174]},{"header":{"parameterUnit":"m.s-1","parameterCategory":1,"la1":30.6,"la2":29.2853,"lo1":-89.7004,"lo2":-87.6739,"dy":0.0162,"dx":0.0183,"nx":112,"ny":82,"refTime":"2023-03-07T06:00:00:Z","depth":0,"parameterNumber":3,"parameterNumberName":"V-component_of_WINDS"},"data":[0.0,0.0,0.0,0.0,0.0,0.0,0.0,0.0,0.0,0.0,0.0,0.0,0.0,0.0,0.0,0.0,0.0,0.0,0.0,0.0,0.0,0.0,0.0,0.0,0.0,0.0,0.0,0.0,0.0,0.0,0.0,0.0,0.0,0.0,0.0,0.0,0.0,0.0,0.0,0.0,0.0,0.0,0.0,0.0,0.0,0.0,0.0,0.0,0.0,0.0,0.0,0.0,0.0,0.0,0.0,0.0,0.0,0.0,0.0,0.0,0.0,0.0,0.0,0.0,0.0,0.0,0.0,0.0,0.0,0.0,0.0,0.0,0.0,0.0,0.0,0.0,0.0,0.0,0.0,0.0,0.0,0.0,0.0,0.0,0.0,0.0,0.0,0.0,0.0,0.0,-1.1436,-1.1122,-1.0372,-0.9599,-0.8792,-0.9857,-1.0676,-1.0929,0.0,0.0,0.0,0.0,0.0,0.0,0.0,0.0,0.0,0.0,0.0,0.0,0.0,0.0,0.0,0.0,0.0,0.0,0.0,0.0,0.0,0.0,0.0,0.0,0.0,0.0,0.0,0.0,0.0,0.0,0.0,0.0,0.0,0.0,0.0,0.0,0.0,0.0,0.0,0.0,0.0,0.0,0.0,0.0,0.0,0.0,0.0,0.0,0.0,0.0,0.0,0.0,0.0,0.0,0.0,0.0,0.0,0.0,0.0,0.0,0.0,0.0,0.0,0.0,0.0,0.0,0.0,0.0,0.0,0.0,0.0,0.0,0.0,0.0,0.0,0.0,0.0,0.0,0.0,0.0,0.0,0.0,0.0,0.0,0.0,0.0,0.0,0.0,0.0,0.0,0.0,0.0,0.0,0.0,0.0,0.0,0.0,0.0,0.0,0.0,0.0,0.0,0.0,0.0,-1.1692,-1.0281,-1.0041,-0.9908,-0.9712,-0.9894,-1.0863,-1.2844,0.0,0.0,0.0,0.0,0.0,0.0,0.0,0.0,0.0,0.0,0.0,0.0,0.0,0.0,0.0,0.0,0.0,0.0,0.0,0.0,0.0,0.0,0.0,0.0,0.0,0.0,0.0,0.0,0.0,0.0,0.0,0.0,0.0,0.0,0.0,0.0,0.0,0.0,0.0,0.0,0.0,0.0,0.0,0.0,0.0,0.0,0.0,0.0,0.0,0.0,0.0,0.0,0.0,0.0,0.0,0.0,0.0,0.0,0.0,0.0,0.0,0.0,0.0,0.0,0.0,0.0,0.0,0.0,0.0,0.0,0.0,0.0,0.0,0.0,0.0,0.0,0.0,0.0,0.0,0.0,0.0,0.0,0.0,0.0,0.0,0.0,0.0,0.0,0.0,0.0,0.0,0.0,0.0,0.0,0.0,0.0,0.0,0.0,0.0,0.0,0.0,0.0,0.0,-1.214,-1.1389,-1.0144,-1.0044,-1.0034,-0.9965,-0.996,-1.0961,-1.3359,-1.3415,0.0,0.0,0.0,0.0,0.0,0.0,0.0,0.0,0.0,0.0,0.0,0.0,0.0,0.0,0.0,0.0,0.0,0.0,0.0,0.0,0.0,0.0,0.0,0.0,0.0,0.0,0.0,0.0,0.0,0.0,0.0,0.0,0.0,0.0,0.0,0.0,0.0,0.0,0.0,0.0,0.0,0.0,0.0,0.0,0.0,0.0,0.0,0.0,0.0,0.0,0.0,0.0,0.0,0.0,0.0,0.0,0.0,0.0,0.0,0.0,0.0,0.0,0.0,0.0,0.0,0.0,0.0,0.0,0.0,0.0,0.0,0.0,0.0,0.0,0.0,0.0,0.0,0.0,0.0,0.0,0.0,0.0,0.0,0.0,0.0,0.0,0.0,0.0,0.0,0.0,0.0,0.0,0.0,0.0,0.0,0.0,0.0,0.0,0.0,0.0,0.0,0.0,-1.1455,-1.0848,-1.0171,-1.0094,-1.0078,-1.0039,-1.0015,-1.1149,-1.3758,-1.3055,0.0,0.0,0.0,0.0,0.0,0.0,0.0,0.0,0.0,0.0,0.0,0.0,0.0,0.0,0.0,0.0,0.0,0.0,0.0,0.0,0.0,0.0,0.0,0.0,0.0,0.0,0.0,0.0,0.0,0.0,0.0,0.0,0.0,0.0,0.0,0.0,0.0,0.0,0.0,0.0,0.0,0.0,0.0,0.0,0.0,0.0,0.0,0.0,0.0,0.0,0.0,0.0,0.0,0.0,0.0,0.0,0.0,0.0,0.0,0.0,0.0,0.0,0.0,0.0,0.0,0.0,0.0,0.0,0.0,0.0,0.0,0.0,0.0,0.0,0.0,0.0,0.0,0.0,0.0,0.0,0.0,0.0,0.0,0.0,0.0,0.0,0.0,0.0,0.0,0.0,0.0,0.0,0.0,0.0,0.0,0.0,0.0,0.0,0.0,0.0,0.0,0.0,-1.1628,-1.0171,-1.0113,-1.0094,-1.0094,-1.009,-1.009,-1.1469,-1.4703,-1.3499,0.0,0.0,0.0,0.0,0.0,0.0,0.0,0.0,0.0,0.0,0.0,0.0,0.0,0.0,0.0,0.0,0.0,0.0,0.0,0.0,0.0,0.0,0.0,0.0,0.0,0.0,0.0,0.0,0.0,0.0,0.0,0.0,0.0,0.0,0.0,0.0,0.0,0.0,0.0,0.0,0.0,0.0,0.0,0.0,0.0,0.0,0.0,0.0,0.0,0.0,0.0,0.0,0.0,0.0,0.0,0.0,0.0,0.0,0.0,0.0,0.0,0.0,0.0,0.0,0.0,0.0,0.0,0.0,0.0,0.0,0.0,0.0,0.0,0.0,0.0,0.0,0.0,0.0,0.0,0.0,0.0,0.0,0.0,0.0,0.0,0.0,0.0,0.0,0.0,0.0,0.0,0.0,0.0,0.0,0.0,0.0,0.0,0.0,0.0,0.0,0.0,0.0,-1.2156,-1.0694,-1.0152,-1.0094,-1.0094,-1.0094,-1.0094,-1.1542,-1.4903,0.0,0.0,0.0,0.0,0.0,0.0,0.0,0.0,0.0,0.0,0.0,0.0,0.0,0.0,0.0,0.0,0.0,0.0,0.0,0.0,0.0,0.0,0.0,0.0,0.0,0.0,0.0,0.0,0.0,0.0,0.0,0.0,0.0,0.0,0.0,0.0,0.0,0.0,0.0,0.0,0.0,0.0,0.0,0.0,0.0,0.0,0.0,0.0,0.0,0.0,0.0,0.0,0.0,0.0,0.0,0.0,0.0,0.0,0.0,0.0,0.0,0.0,0.0,0.0,0.0,0.0,0.0,0.0,0.0,0.0,0.0,0.0,0.0,0.0,0.0,0.0,0.0,0.0,0.0,0.0,0.0,0.0,0.0,0.0,0.0,0.0,0.0,0.0,0.0,0.0,0.0,0.0,0.0,0.0,0.0,0.0,0.0,0.0,0.0,0.0,0.0,0.0,-1.4555,-1.241,-1.0752,-1.0152,-1.0094,-1.0094,-1.0094,-1.0344,-1.1853,-1.5034,0.0,0.0,0.0,0.0,0.0,0.0,0.0,0.0,0.0,0.0,0.0,0.0,0.0,0.0,0.0,0.0,0.0,0.0,0.0,0.0,0.0,0.0,0.0,0.0,0.0,0.0,0.0,0.0,0.0,0.0,0.0,0.0,0.0,0.0,0.0,0.0,0.0,0.0,0.0,0.0,0.0,0.0,0.0,0.0,0.0,0.0,0.0,0.0,0.0,0.0,0.0,0.0,0.0,0.0,0.0,0.0,0.0,0.0,0.0,0.0,0.0,0.0,0.0,0.0,0.0,0.0,0.0,0.0,0.0,0.0,0.0,0.0,0.0,0.0,0.0,0.0,0.0,0.0,0.0,0.0,0.0,0.0,0.0,0.0,0.0,0.0,0.0,0.0,0.0,0.0,0.0,0.0,0.0,0.0,0.0,0.0,0.0,0.0,0.0,0.0,0.0,0.0,-1.5289,-1.2251,-1.0094,-1.0094,-1.0094,-1.0094,-1.0094,-1.0906,-1.2517,0.0,0.0,0.0,0.0,0.0,0.0,0.0,0.0,0.0,0.0,0.0,0.0,0.0,0.0,0.0,0.0,0.0,0.0,0.0,0.0,0.0,0.0,0.0,0.0,0.0,0.0,0.0,0.0,0.0,0.0,0.0,0.0,0.0,0.0,0.0,0.0,0.0,0.0,0.0,0.0,0.0,0.0,0.0,0.0,0.0,0.0,0.0,0.0,0.0,0.0,0.0,0.0,0.0,0.0,0.0,0.0,0.0,0.0,0.0,0.0,0.0,0.0,0.0,0.0,0.0,0.0,0.0,0.0,0.0,0.0,0.0,0.0,0.0,0.0,0.0,0.0,0.0,0.0,0.0,0.0,0.0,0.0,0.0,0.0,0.0,0.0,0.0,0.0,0.0,0.0,0.0,0.0,0.0,0.0,0.0,0.0,0.0,0.0,0.0,0.0,0.0,0.0,0.0,-1.5356,-1.2339,-1.0156,-1.0113,-1.0094,-1.0094,-1.0094,-1.0906,-1.2517,-1.5124,0.0,0.0,0.0,0.0,0.0,0.0,0.0,0.0,0.0,0.0,0.0,0.0,0.0,0.0,0.0,0.0,0.0,0.0,0.0,0.0,0.0,0.0,0.0,0.0,0.0,0.0,0.0,0.0,0.0,0.0,0.0,0.0,0.0,0.0,0.0,0.0,0.0,0.0,0.0,0.0,0.0,0.0,0.0,0.0,0.0,0.0,0.0,0.0,0.0,0.0,0.0,0.0,0.0,0.0,0.0,0.0,0.0,0.0,0.0,0.0,0.0,0.0,0.0,0.0,0.0,0.0,0.0,0.0,0.0,0.0,0.0,0.0,0.0,0.0,0.0,0.0,0.0,0.0,0.0,0.0,0.0,0.0,0.0,0.0,0.0,0.0,0.0,0.0,0.0,0.0,0.0,0.0,0.0,0.0,0.0,0.0,0.0,0.0,0.0,0.0,0.0,0.0,-1.5387,-1.2352,-1.0175,-1.0133,-1.0452,-1.0668,-1.0668,-1.1755,-1.3277,-1.5217,0.0,0.0,0.0,0.0,0.0,0.0,0.0,0.0,0.0,0.0,0.0,0.0,0.0,0.0,0.0,0.0,0.0,0.0,0.0,0.0,0.0,0.0,0.0,0.0,0.0,0.0,0.0,0.0,0.0,0.0,0.0,0.0,0.0,0.0,0.0,0.0,0.0,0.0,0.0,0.0,0.0,0.0,0.0,0.0,0.0,0.0,0.0,0.0,0.0,0.0,0.0,0.0,0.0,0.0,0.0,0.0,0.0,0.0,0.0,0.0,0.0,0.0,0.0,0.0,0.0,0.0,0.0,0.0,0.0,0.0,0.0,0.0,0.0,0.0,0.0,0.0,0.0,0.0,0.0,0.0,0.0,0.0,0.0,0.0,0.0,0.0,0.0,0.0,0.0,0.0,0.0,0.0,0.0,0.0,0.0,0.0,0.0,0.0,0.0,0.0,0.0,0.0,-1.5508,-1.2483,-1.0317,-1.0325,-1.1108,-1.1598,-1.1501,-1.3043,-1.4403,-1.5342,0.0,0.0,0.0,0.0,0.0,0.0,0.0,0.0,0.0,0.0,0.0,0.0,0.0,0.0,0.0,0.0,0.0,0.0,0.0,0.0,0.0,0.0,0.0,0.0,0.0,0.0,0.0,0.0,0.0,0.0,0.0,0.0,0.0,0.0,0.0,0.0,0.0,0.0,0.0,0.0,0.0,0.0,0.0,0.0,0.0,0.0,0.0,0.0,0.0,0.0,0.0,0.0,0.0,0.0,0.0,0.0,0.0,0.0,0.0,0.0,-1.3754,0.0,0.0,0.0,0.0,0.0,0.0,0.0,0.0,0.0,0.0,0.0,0.0,0.0,0.0,0.0,0.0,0.0,0.0,0.0,0.0,0.0,0.0,0.0,0.0,0.0,0.0,0.0,0.0,0.0,0.0,0.0,0.0,0.0,0.0,0.0,0.0,0.0,0.0,0.0,0.0,0.0,-1.6328,-1.3377,-1.1212,-1.1219,-1.2002,-1.2251,-1.1559,-1.305,-1.439,-1.5346,-1.6576,0.0,0.0,0.0,0.0,0.0,0.0,0.0,0.0,0.0,0.0,0.0,0.0,0.0,0.0,0.0,0.0,0.0,0.0,0.0,0.0,0.0,0.0,0.0,0.0,0.0,0.0,0.0,0.0,0.0,0.0,0.0,0.0,0.0,0.0,0.0,0.0,0.0,0.0,0.0,0.0,0.0,0.0,0.0,0.0,0.0,0.0,0.0,0.0,0.0,0.0,0.0,0.0,0.0,0.0,0.0,0.0,0.0,0.0,0.0,0.0,-1.4892,0.0,0.0,0.0,0.0,0.0,0.0,0.0,0.0,0.0,0.0,0.0,0.0,0.0,0.0,0.0,0.0,0.0,0.0,0.0,0.0,0.0,0.0,0.0,0.0,0.0,0.0,0.0,0.0,0.0,0.0,0.0,0.0,0.0,0.0,0.0,0.0,0.0,0.0,0.0,0.0,-1.6587,-1.3971,-1.2074,-1.2088,-1.2869,-1.3214,-1.2795,-1.3891,-1.4843,-1.5379,-1.6357,0.0,0.0,0.0,0.0,0.0,0.0,0.0,0.0,0.0,0.0,0.0,0.0,0.0,0.0,0.0,0.0,0.0,0.0,0.0,0.0,0.0,0.0,0.0,0.0,0.0,0.0,0.0,0.0,0.0,0.0,0.0,0.0,0.0,0.0,0.0,0.0,0.0,0.0,0.0,0.0,0.0,0.0,0.0,0.0,0.0,0.0,0.0,0.0,0.0,0.0,0.0,0.0,0.0,-1.6602,-1.6618,-1.6063,-1.715,-1.703,-1.5976,-1.6153,-1.5395,-1.4229,-1.7045,0.0,0.0,0.0,0.0,0.0,0.0,0.0,0.0,0.0,0.0,0.0,0.0,0.0,0.0,0.0,0.0,0.0,0.0,0.0,0.0,0.0,0.0,0.0,0.0,-2.0152,-2.0012,0.0,0.0,0.0,0.0,0.0,0.0,0.0,0.0,0.0,0.0,0.0,0.0,-1.6824,-1.4549,-1.2928,-1.2935,-1.371,-1.4201,-1.4089,-1.4834,-1.5349,-1.539,-1.6071,-1.6645,0.0,0.0,0.0,0.0,0.0,0.0,0.0,0.0,0.0,0.0,0.0,0.0,0.0,0.0,0.0,0.0,0.0,0.0,0.0,0.0,0.0,0.0,0.0,0.0,0.0,0.0,0.0,0.0,0.0,0.0,0.0,0.0,-0.7889,-1.024,0.0,0.0,0.0,0.0,0.0,0.0,0.0,0.0,0.0,0.0,0.0,0.0,0.0,-1.5731,-1.5608,-1.4945,-1.4723,-1.4986,-1.5602,-1.5854,-1.5805,-1.6922,-1.7719,-1.8128,-1.7198,0.0,-1.5598,-1.5472,0.0,0.0,0.0,0.0,0.0,0.0,0.0,0.0,0.0,0.0,0.0,0.0,0.0,0.0,0.0,0.0,0.0,0.0,0.0,0.0,0.0,0.0,-1.8481,-1.9954,-2.0152,-2.006,0.0,-2.0269,-2.0277,-2.0285,-2.0312,0.0,0.0,0.0,0.0,0.0,0.0,0.0,-1.7725,-1.5441,-1.3819,-1.3835,-1.4605,-1.4833,-1.4086,-1.4868,-1.5388,-1.5391,-1.5506,-1.5936,-1.6719,-1.7266,0.0,0.0,0.0,0.0,0.0,0.0,0.0,0.0,0.0,0.0,0.0,0.0,0.0,0.0,0.0,0.0,0.0,0.0,0.0,0.0,0.0,0.0,0.0,0.0,0.0,0.0,0.0,0.0,0.0,-1.0061,-1.0352,-1.2266,-1.3095,-1.3807,0.0,0.0,0.0,0.0,0.0,0.0,0.0,0.0,0.0,-1.4657,-1.517,-1.5392,-1.5172,-1.5518,-1.5753,-1.5887,-1.6982,-1.7279,-1.6944,-1.86,-1.933,-1.9264,-1.9026,-1.8507,-1.7768,-1.712,-1.6771,-1.6799,0.0,0.0,0.0,0.0,-1.8987,-1.8579,-1.8199,-1.7747,0.0,-1.7947,0.0,0.0,0.0,0.0,0.0,0.0,0.0,0.0,0.0,0.0,-1.9394,-2.0127,-2.0233,-2.0197,-2.0277,-2.0312,-2.0312,0.0,-2.0312,-2.0446,-2.0908,0.0,0.0,0.0,0.0,-1.7753,-1.7787,-1.5971,-1.4664,-1.4676,-1.5022,-1.5105,-1.475,-1.5112,-1.5362,-1.5391,-1.5391,-1.5566,-1.5957,-1.6543,-1.7402,0.0,0.0,0.0,0.0,0.0,0.0,0.0,0.0,0.0,0.0,0.0,0.0,0.0,0.0,0.0,0.0,0.0,0.0,0.0,0.0,0.0,0.0,0.0,0.0,0.0,0.0,0.0,0.0,-1.0954,-1.2173,-1.2846,-1.2746,-1.3106,0.0,0.0,0.0,0.0,0.0,0.0,-1.4362,-1.5317,-1.5528,-1.4746,-1.5378,-1.5637,-1.5435,-1.6652,-1.7274,-1.7291,-1.8775,-1.9229,-1.8813,-2.0442,-2.104,-2.0807,-2.0825,-2.0482,-1.9871,-1.8793,-1.752,-1.6477,-1.8644,-1.943,-1.9344,-1.9344,-1.912,-1.8793,-1.861,-1.8352,-1.8211,-1.8906,-2.0146,-2.1445,-2.1756,0.0,0.0,0.0,0.0,-1.9372,-1.9136,-1.9516,-2.0087,-2.0512,-2.0619,-2.0677,-2.0889,-2.0946,-2.0812,0.0,-2.0312,-2.0485,-2.11,0.0,0.0,0.0,0.0,-1.7953,-1.7741,-1.6234,-1.5189,-1.5189,-1.5189,-1.5234,-1.5291,-1.5291,-1.5312,-1.5367,-1.539,-1.5391,-1.5391,-1.6016,-1.6777,-1.7656,0.0,0.0,0.0,0.0,0.0,0.0,0.0,0.0,0.0,0.0,0.0,0.0,0.0,0.0,0.0,0.0,0.0,0.0,0.0,0.0,0.0,0.0,0.0,0.0,0.0,0.0,0.0,0.0,0.0,-0.8883,-0.9799,0.0,0.0,0.0,0.0,-1.4655,-1.5564,-1.5572,-1.4435,-1.5829,-1.633,-1.5658,-1.6279,-1.6948,-1.7642,-1.8403,-1.8775,-1.8809,-2.0331,-2.1191,-2.1413,-2.1768,-2.2527,-2.344,-2.2246,-2.1711,-2.149,-1.9177,-1.771,-1.7058,-1.8024,-1.8371,-1.8371,-1.8371,-1.8901,-1.9526,-1.8701,-1.9092,-1.9972,-2.0011,-2.0738,-2.1743,-2.2574,-2.281,0.0,0.0,-2.0366,-2.0127,-1.9245,-1.9046,-1.9463,-2.107,-2.1446,-2.1677,-2.2504,-2.2658,-2.2197,0.0,-2.0312,-2.0312,-2.035,0.0,-2.1196,-2.0465,-1.9542,-1.8645,-1.7818,-1.6234,-1.5189,-1.5189,-1.5189,-1.5234,-1.5291,-1.5303,-1.5306,-1.5299,-1.5364,-1.5391,-1.5391,-1.5449,-1.5879,-1.6758,-1.7051,0.0,0.0,0.0,0.0,0.0,0.0,0.0,0.0,0.0,0.0,0.0,0.0,0.0,0.0,0.0,0.0,0.0,0.0,0.0,0.0,0.0,0.0,0.0,0.0,0.0,0.0,0.0,0.0,-1.1252,-1.1794,0.0,-1.339,-1.4147,-1.4632,-1.4758,-1.5117,-1.5277,-1.5185,-1.6136,-1.702,-1.7737,-1.7986,-1.8471,-1.9208,-1.9993,-2.0475,-2.0646,-2.1695,-2.2339,-2.2641,-2.2959,-2.3315,-2.3696,-2.3451,-2.3052,-2.2501,-2.1637,-2.0478,-1.9338,-2.0215,-2.0544,-2.0544,-2.0544,-2.076,-2.1025,-2.0796,-2.1059,-2.1631,-2.2422,-2.2908,-2.3259,-2.3573,-2.328,-2.2593,-2.1487,-2.1176,-2.1097,-2.0762,-2.1055,-2.1597,-2.2177,-2.2331,-2.2427,-2.2735,-2.2793,-2.262,-2.2023,-2.1466,-2.1254,-2.1812,-2.1254,-2.0812,-2.1043,-1.9408,-1.8049,-1.7741,-1.6234,-1.5189,-1.5189,-1.5189,-1.5234,-1.5291,-1.5306,-1.5294,-1.5289,-1.5311,-1.5343,-1.5391,-1.5391,-1.5801,-1.668,-1.6953,-1.7575,0.0,0.0,0.0,0.0,0.0,0.0,0.0,0.0,0.0,0.0,0.0,0.0,0.0,0.0,0.0,0.0,0.0,0.0,0.0,0.0,0.0,0.0,0.0,0.0,0.0,0.0,-1.1764,-1.2961,-1.3037,-1.3485,-1.4717,-1.5128,-1.5361,-1.5479,-1.5859,-1.6303,-1.669,-1.7405,-1.8438,-1.9757,-1.9816,-2.0167,-2.0901,-2.1429,-2.1799,-2.1992,-2.2452,-2.2947,-2.3369,-2.3588,-2.3774,-2.3876,-2.4094,-2.3896,-2.34,-2.34,-2.2758,-2.1749,-2.1785,-2.1803,-2.1803,-2.1803,-2.1969,-2.2278,-2.2781,-2.3036,-2.329,-2.4215,-2.4505,-2.4456,-2.4176,-2.3887,-2.3416,-2.2312,-2.2207,-2.2384,-2.2076,-2.2406,-2.287,-2.3167,-2.3244,-2.3312,-2.3581,-2.3639,-2.3639,-2.3639,-2.2716,-2.2023,-2.2312,-2.1446,-2.0889,-2.1427,-1.9581,-1.8234,-1.8542,-1.6869,-1.5638,-1.5638,-1.5388,-1.5214,-1.5253,-1.5541,-1.5599,-1.5311,-1.5586,-1.5632,-1.5418,-1.5681,-1.6113,-1.6699,-1.7363,-1.8574,-2.0293,0.0,0.0,0.0,0.0,0.0,0.0,0.0,0.0,0.0,0.0,0.0,0.0,0.0,0.0,0.0,0.0,0.0,0.0,0.0,0.0,0.0,0.0,0.0,-1.3896,-1.2934,-1.2595,-1.3457,-1.3177,-1.3359,-1.448,-1.5196,-1.5937,-1.6805,-1.7904,-1.8668,-1.8961,-1.9655,-2.0534,-2.1586,-2.1645,-2.1992,-2.2721,-2.2721,-2.2721,-2.2721,-2.2721,-2.3069,-2.3714,-2.3714,-2.3896,-2.419,-2.419,-2.419,-2.419,-2.419,-2.419,-2.4043,-2.2464,-2.1876,-2.1876,-2.1876,-2.2373,-2.3216,-2.4373,-2.479,-2.4842,-2.5171,-2.5284,-2.5149,-2.4379,-2.4678,-2.4957,-2.3331,-2.3494,-2.3937,-2.3101,-2.287,-2.3081,-2.3937,-2.4149,-2.436,-2.5139,-2.5303,-2.5303,-2.5303,-2.3985,-2.2601,-2.1735,-2.1523,-2.1466,-2.1504,-2.0073,0.0,-2.015,-1.808,-1.6542,-1.6542,-1.5811,-1.5305,-1.5285,-1.608,-1.6234,-1.5426,-1.6162,-1.6283,-1.5509,-1.6295,-1.6758,-1.6777,-1.8184,-2.0039,-2.2285,0.0,0.0,0.0,0.0,0.0,0.0,0.0,0.0,0.0,0.0,0.0,0.0,0.0,0.0,0.0,0.0,0.0,0.0,0.0,0.0,0.0,0.0,-1.5391,-1.4947,-1.4213,-1.4038,-1.4906,-1.5208,-1.5599,-1.6314,-1.7106,-1.7801,-1.8275,-1.8865,-1.9617,-2.0517,-2.0754,-2.1344,-2.2366,-2.2383,-2.2613,-2.3069,-2.3069,-2.3189,-2.3414,-2.3414,-2.3649,-2.4074,-2.4074,-2.4113,-2.419,-2.419,-2.419,-2.419,-2.419,-2.419,-2.4153,-2.3712,-2.3529,-2.3529,-2.3529,-2.3676,-2.3934,-2.442,-2.4685,-2.4828,-2.5018,-2.5173,-2.5264,-2.5043,-2.512,-2.5187,-2.4736,-2.4793,-2.4909,-2.4678,-2.462,-2.4678,-2.4909,-2.4966,-2.5024,-2.5245,-2.5303,-2.5303,-2.5303,-2.4918,-2.4351,-2.3533,-2.185,-2.0831,-2.1408,-2.0073,0.0,-1.9323,-1.8196,-1.7369,-1.7369,-1.7722,-1.7702,-1.7061,-1.7818,-1.7972,-1.7157,-1.7337,-1.7382,-1.7213,-1.7438,-1.79,-1.8574,-1.8984,-2.0117,0.0,0.0,0.0,0.0,0.0,0.0,0.0,0.0,0.0,0.0,0.0,0.0,0.0,0.0,0.0,0.0,0.0,0.0,0.0,0.0,0.0,0.0,-1.6746,-1.667,-1.6713,-1.5645,-1.5196,-1.6113,-1.6737,-1.7257,-1.7724,-1.8789,-1.9577,-1.9775,-2.0348,-2.0954,-2.1634,-2.1651,-2.1966,-2.2678,-2.2848,-2.2996,-2.3189,-2.3346,-2.3522,-2.3692,-2.3692,-2.3876,-2.419,-2.419,-2.419,-2.419,-2.419,-2.419,-2.419,-2.419,-2.419,0.0,0.0,0.0,0.0,0.0,-2.419,-2.4247,-2.4528,-2.47,-2.4847,-2.5041,-2.5203,-2.536,-2.5726,-2.5591,-2.538,-2.5726,-2.5572,-2.5303,-2.5303,-2.5303,-2.5303,-2.5303,-2.5303,-2.5303,-2.5303,-2.5303,-2.5303,-2.5303,-2.5024,0.0,-2.462,-2.3101,-2.1927,-2.2023,-2.0908,-2.0054,-2.0054,-1.8984,-1.8234,-1.8234,-1.8369,-1.8261,-1.7741,-1.8491,0.0,0.0,0.0,-1.8382,-1.8488,-1.8488,0.0,0.0,0.0,-2.0527,-2.1894,0.0,0.0,0.0,-2.3213,-2.3075,0.0,0.0,0.0,0.0,0.0,0.0,0.0,0.0,0.0,0.0,0.0,0.0,0.0,0.0,0.0,0.0,-1.7885,-1.8178,-1.8957,-1.7461,-1.6545,-1.7316,-1.7902,-1.8429,-1.8772,-2.0155,-2.0991,-2.0991,-2.1811,-2.231,-2.231,0.0,0.0,0.0,0.0,-2.3212,-2.3277,-2.3588,-2.3753,-2.3692,-2.3735,-2.3896,-2.4133,-2.417,-2.419,-2.419,-2.419,-2.419,-2.419,-2.419,-2.419,-2.419,-2.419,-2.419,-2.419,-2.419,-2.419,-2.4247,-2.4639,0.0,0.0,-2.5271,-2.5475,-2.5726,-2.6484,-2.6177,-2.5726,-2.6409,-2.6043,-2.5418,-2.5322,-2.5303,-2.5303,-2.5303,-2.5303,-2.5303,-2.5303,-2.5303,-2.5303,-2.5303,-2.4716,-2.4447,-2.5168,-2.4543,-2.3687,-2.2908,-2.2062,-2.1466,-2.1389,-2.0073,-1.915,-1.915,0.0,0.0,-1.8003,-1.8799,-1.8946,-1.8136,-1.8814,-1.9305,-1.9434,-1.9434,-1.9805,-2.0586,-2.0605,-2.0977,-2.1758,-2.1758,-2.2129,-2.2793,-2.2227,-2.2704,0.0,0.0,0.0,0.0,0.0,0.0,0.0,0.0,0.0,0.0,0.0,0.0,0.0,0.0,0.0,-1.8418,-1.94,-2.0341,-2.1021,-2.0771,-2.0175,-1.9298,-1.9298,-1.9409,-1.9495,-2.0403,-2.0991,-2.0991,-2.1811,-2.231,-2.231,-2.231,-2.2426,-2.2695,-2.3021,-2.3346,-2.3588,-2.3937,-2.3976,-2.3692,0.0,0.0,-2.3816,-2.4074,-2.419,-2.419,-2.419,-2.419,-2.419,-2.419,-2.419,-2.419,-2.419,-2.419,-2.419,-2.419,-2.419,-2.4228,-2.4478,-2.5102,-2.5782,-2.5844,-2.6568,-2.7388,-2.7344,-2.7366,0.0,-2.6755,-2.6486,-2.6197,-2.5476,-2.5303,-2.5303,-2.5303,-2.5303,-2.5303,-2.5303,-2.5303,-2.5303,-2.5303,-2.5168,-2.512,-2.5264,-2.4043,-2.2985,-2.2831,-2.2062,-2.1273,-2.0619,-2.0254,-2.0054,-2.0054,-2.0485,-2.0504,-1.985,-2.0542,-2.0677,-1.9862,-2.0078,-2.0233,-2.0273,-2.0312,-2.043,-2.0605,-2.0605,-2.0684,-2.0859,-2.0859,-2.0937,-2.1113,-2.2305,-2.3027,0.0,0.0,0.0,0.0,0.0,0.0,0.0,0.0,0.0,0.0,0.0,-1.8118,0.0,0.0,-1.9922,-2.0143,-2.0751,-2.1321,-2.165,-2.1695,-2.144,-2.0767,-2.0585,-2.0502,-2.0502,-2.0987,-2.1306,-2.1306,-2.1915,-2.231,-2.231,-2.231,-2.236,-2.25,-2.2789,-2.3021,-2.3189,-2.3692,-2.3876,-2.3692,-2.4036,-2.4113,-2.3937,-2.3937,-2.4036,-2.419,-2.4016,-2.3937,-2.3974,-2.4374,-2.4657,-2.4832,-2.5236,-2.5162,-2.4795,-2.4795,-2.5052,-2.5443,-2.5739,-2.6183,-2.6647,-2.6858,-2.7281,-2.7752,-2.8063,-2.795,-2.7611,-2.717,-2.6825,-2.6409,-2.5534,-2.5303,-2.5303,-2.5303,-2.5303,-2.5303,-2.5303,-2.5303,-2.5303,-2.5303,-2.5303,-2.5303,-2.5303,-2.462,-2.3908,-2.3514,-2.309,-2.2504,-2.1658,-2.1177,-2.0908,-2.0908,-2.0908,-2.0735,-2.0331,-2.0677,-2.0735,-2.0331,-2.0399,-2.047,-2.0508,-2.0566,-2.0605,-2.0605,-2.0605,-2.0605,-2.0605,-2.0605,-2.082,-2.1269,-2.2109,-2.2715,0.0,0.0,0.0,0.0,0.0,0.0,0.0,0.0,-1.8464,-2.0231,-2.0703,-2.1035,-2.1622,-2.189,-2.1995,-2.1906,-2.2094,-2.2174,-2.2069,-2.2069,-2.2049,-2.2009,-2.1605,-2.1239,-2.11,-2.1392,-2.1582,-2.1582,-2.2032,-2.231,-2.231,-2.231,-2.231,-2.231,-2.2563,-2.2695,-2.2695,-2.3369,-2.3743,-2.3844,-2.4069,-2.4205,-2.4233,-2.3868,-2.3816,-2.3996,-2.3714,-2.3678,-2.3876,-2.4523,-2.5081,-2.5575,-2.6234,-2.6332,-2.6043,-2.5752,-2.6043,-2.6638,-2.7024,-2.7253,-2.745,-2.7815,-2.7943,-2.8042,-2.8715,-2.8445,-2.7904,-2.7793,-2.728,-2.6598,-2.5764,-2.5418,-2.5303,-2.5303,-2.5303,-2.5303,-2.5303,-2.5303,-2.5303,-2.5303,-2.5303,-2.5303,-2.5303,-2.5303,-2.5024,-2.4225,-2.411,-2.3725,-2.2677,-2.1927,-2.1446,-2.1273,-2.0696,-2.0312,-2.0312,-2.0312,-2.0312,-2.0312,-2.0523,-2.0596,-2.0483,-2.0722,-2.0762,-2.0605,-2.0762,-2.0859,-2.0859,-2.1016,-2.1465,-2.2168,-2.2305,-2.2734,-1.8869,-1.8237,-1.7849,-1.8469,-1.8149,-1.8019,0.0,0.0,-2.1051,-2.2084,-2.2344,-2.2423,-2.26,-2.2949,-2.3079,-2.265,-2.3429,-2.3928,-2.3471,-2.3385,-2.333,-2.313,-2.2053,-2.1054,-2.0485,-2.1134,-2.1582,-2.1582,-2.2032,-2.231,-2.231,-2.231,-2.231,-2.231,-2.2563,-2.2695,-2.2695,-2.3369,-2.3903,-2.4331,-2.4242,-2.426,-2.4361,-2.3911,-2.3566,-2.3323,-2.3259,-2.3644,-2.4251,-2.4339,-2.498,-2.5953,-2.602,-2.71,-2.8407,-2.6998,-2.6521,-2.6636,-2.686,-2.7401,-2.8017,-2.8054,-2.8688,-2.9432,-2.9345,-2.9382,-2.9347,-2.8812,-2.8049,-2.7262,-2.6617,-2.589,-2.5303,-2.5303,-2.5303,-2.5303,-2.5303,-2.5303,-2.5303,-2.5303,-2.5303,-2.5303,-2.5303,-2.5303,-2.5024,-2.4225,-2.411,-2.3514,-2.187,-2.1562,-2.1235,-2.0504,-2.035,-2.0312,-2.0312,-2.0312,-2.0312,-2.0312,-2.1086,-2.1217,-2.0441,-2.1282,-2.1387,-2.0625,-2.1367,-2.1758,-2.1758,-2.2539,-2.2969,-2.3066,-2.3789,-2.418,-1.9543,-1.8974,-1.8676,-1.9515,-1.9906,-2.0453,-2.1854,-2.2538,-2.3357,-2.5246,-2.5297,-2.5129,-2.5631,-2.5015,-2.4377,0.0,-2.4033,-2.3879,-2.3638,-2.3295,-2.2968,-2.2748,-2.2123,-2.17,-2.1632,-2.1845,-2.2003,-2.2003,-2.218,-2.231,-2.231,-2.231,-2.231,-2.231,-2.2398,-2.2668,-2.3095,-2.3589,-2.4128,-2.475,-2.4895,-2.4736,-2.4332,-2.3982,-2.3741,-2.3614,-2.3614,-2.4129,-2.5023,-2.5295,-2.618,-2.7403,-2.7403,-2.8349,-2.9512,-2.7897,-2.7897,-2.8676,-2.8417,-2.8593,-2.8873,-2.8989,-2.9252,-2.9513,-2.9433,-2.9454,-2.9364,-2.861,-2.8335,-2.8068,-2.7325,-2.6584,-2.6063,-2.6063,-2.5668,-2.5303,-2.5303,-2.5303,-2.5303,-2.5303,-2.5303,-2.5303,-2.5303,-2.5303,-2.5187,-2.4851,-2.4793,-2.4543,-2.3812,-2.3293,-2.2677,-2.185,-2.1754,-2.1754,-2.1754,-2.1782,-2.1801,-2.1801,-2.2257,-2.2342,-2.1985,-2.2379,-2.2441,-2.2129,-2.2461,-2.2637,-2.2598,-2.3008,-2.3437,-2.3906,-2.4238,-2.4668,-1.9345,-1.9293,-1.9507,-2.078,-2.1814,-2.2931,-2.4464,-2.5113,-2.5899,-2.7737,-2.7706,-2.7368,-2.7486,-2.6214,-2.5083,-2.4932,-2.4151,-2.3556,-2.3608,-2.3071,-2.2657,-2.2521,-2.2201,-2.2133,-2.2467,-2.2379,-2.231,-2.231,-2.231,-2.231,-2.231,-2.231,-2.2395,-2.2598,-2.2615,-2.297,-2.3697,-2.4041,-2.4573,-2.5317,-2.5444,-2.5253,-2.4805,-2.4098,-2.376,-2.376,-2.376,-2.4434,-2.5551,-2.5893,-2.704,-2.8577,-2.8335,-2.9181,-3.0356,-2.8962,-2.92,-3.0178,-3.0021,-2.9956,-2.9999,-3.0129,-2.9919,-2.9622,-2.9622,-2.9474,-2.918,-2.8628,-2.8553,-2.857,-2.8003,-2.74,-2.6967,-2.6967,-2.6294,-2.5649,-2.5649,-2.5457,-2.5303,-2.5303,-2.5303,-2.5303,-2.5303,-2.5303,-2.5303,-2.5303,-2.5303,-2.5207,-2.5005,-2.4255,-2.3494,-2.287,-2.2793,-2.2793,-2.2793,-2.2868,-2.2896,-2.2896,-2.3237,-2.3358,-2.3118,-2.3325,-2.3379,-2.3203,-2.3418,-2.3516,-2.3457,-2.375,-2.4199,-2.4766,-2.4766,-2.5098,0.0,0.0,-1.9621,-2.2184,-2.3636,-2.4983,-2.7181,-2.8262,-2.8856,-2.8941,-2.896,-2.8467,-2.6996,-2.5798,-2.4802,-2.4227,-2.3723,-2.3446,-2.3591,-2.3071,-2.2778,-2.2979,-2.2391,-2.2086,0.0,-2.2299,-2.231,-2.231,-2.231,-2.231,-2.231,-2.231,-2.2632,-2.3342,-2.3359,-2.3714,-2.4472,-2.4815,-2.5351,-2.6172,-2.569,-2.5725,-2.6085,-2.4245,-2.3422,-2.3422,-2.3422,-2.4252,-2.5607,-2.5592,-2.6999,-2.9012,-2.8209,-2.9341,-3.1256,-3.043,-3.0155,-3.0301,-3.1078,-3.1336,-3.1336,-3.1336,-3.0821,-3.0173,-3.0173,-2.9622,-2.9067,-2.9293,-2.8895,-2.8464,-2.8698,-2.8312,-2.7852,-2.7852,-2.7198,-2.6563,-2.6563,-2.5909,-2.5303,-2.5303,-2.5303,-2.5303,-2.5303,-2.5303,-2.5303,-2.5303,-2.5303,-2.5024,-2.4245,-2.3379,-2.2831,-2.2793,-2.2793,-2.2793,-2.2793,-2.2868,-2.2896,-2.2896,-2.3813,-2.3991,-2.3138,-2.391,-2.3984,-2.3223,-2.3965,-2.4355,-2.4355,-2.5215,-2.5644,-2.5664,-2.5664,-2.5664,0.0,0.0,-2.2927,-2.5514,-2.6438,-2.7165,-2.8941,-2.9161,-2.9011,-2.9011,-2.7703,-2.6185,-2.493,-2.3666,-2.2821,-2.2827,-2.2885,-2.3111,-2.3548,-2.3071,-2.2657,-2.2559,-2.2647,0.0,0.0,0.0,0.0,-2.231,-2.275,-2.3038,-2.3038,-2.3477,-2.3866,-2.4133,-2.412,-2.4475,-2.522,-2.5346,-2.5766,-2.6514,-2.539,-2.4927,-2.5012,-2.3922,-2.3663,-2.4154,-2.4644,-2.5423,-2.637,-2.6877,-2.8176,-2.9852,-2.9556,-3.0574,-3.2173,-3.1898,-3.1806,-3.1751,-3.1494,-3.1384,-3.1384,-3.1384,-3.1219,-3.0999,-3.0999,-3.043,-2.9829,-2.9904,-2.9516,-2.912,-2.9349,-2.8946,-2.853,-2.8656,-2.8063,-2.7467,-2.7467,-2.7236,-2.7024,-2.7024,-2.7024,-2.6832,-2.6255,-2.6159,-2.5967,-2.538,-2.5303,-2.5187,-2.4928,-2.4639,-2.4466,-2.4466,-2.4466,-2.4485,-2.4524,-2.4582,-2.4649,-2.4687,-2.5046,-2.5127,-2.4835,-2.5113,-2.5137,-2.4863,-2.5117,-2.5254,-2.5254,-2.5566,-2.5703,-2.5703,-2.5703,-2.5681,0.0,-2.344,-2.5662,-2.7737,-2.8636,-2.9279,-3.0277,-2.9922,-2.9228,-2.867,-2.679,-2.4763,-2.3193,-2.1568,-2.0603,-2.0916,-2.085,-2.1248,-2.2587,-2.2271,-2.2069,-2.2594,-2.2902,-2.3084,0.0,0.0,0.0,-2.3088,-2.3528,-2.3782,-2.3782,-2.4222,-2.4611,-2.4864,-2.4881,-2.5236,-2.5998,-2.5998,-2.6234,-2.6674,-2.5727,-2.5135,-2.4864,-2.4391,-2.4441,-2.4915,-2.5676,-2.6251,-2.6809,-2.7947,-2.9188,-3.0308,-3.0398,-3.1335,-3.2614,-3.2614,-3.2614,-3.2577,-3.2339,-3.2247,-3.2247,-3.2247,-3.2063,-3.1825,-3.1825,-3.1274,-3.0632,-3.0632,-3.0235,-2.9917,-3.0339,-2.9836,-2.9336,-2.9787,-2.9094,-2.8332,-2.8332,-2.8102,-2.789,-2.789,-2.789,-2.7717,-2.7159,-2.6813,-2.6409,-2.5851,-2.5495,-2.5303,-2.5303,-2.5303,-2.5303,-2.5303,-2.5303,-2.5322,-2.537,-2.5453,-2.5514,-2.5553,-2.5648,-2.5703,-2.5703,-2.5703,-2.5703,-2.5703,-2.5703,-2.5703,-2.5703,-2.5703,-2.5703,-2.5703,-2.5679,-2.5646,-2.2518,-2.5279,-2.7751,-2.878,-3.0137,-3.1185,-3.1061,-3.0492,-2.9512,-2.7889,-2.6133,-2.4133,0.0,0.0,-1.8407,-1.8767,-1.8085,-1.8458,-2.1039,-2.0927,-2.1246,0.0,0.0,0.0,0.0,0.0,0.0,-2.4743,0.0,-2.4574,-2.4574,-2.4608,-2.4915,-2.5642,-2.5659,-2.5998,-2.6691,-2.6691,-2.6691,-2.6691,-2.6657,-2.6285,-2.5609,-2.5609,-2.5609,-2.5642,-2.6387,-2.6708,-2.6894,-2.8816,-2.9902,-3.0391,-3.0833,-3.1701,-3.2669,-3.2669,-3.2669,-3.2779,-3.3532,-3.3807,-3.3807,-3.3807,-3.3293,-3.2669,-3.2669,-3.21,-3.1458,-3.1458,-3.1066,-3.0804,-3.1607,-3.096,-3.0327,-3.1165,-3.0291,-2.9275,-2.9236,-2.8621,-2.8082,-2.8044,-2.7986,-2.7986,-2.8025,-2.7274,-2.6659,-2.6621,-2.5909,-2.5341,-2.5303,-2.5303,-2.5303,-2.5303,-2.5303,-2.5303,-2.5303,-2.5427,-2.5508,-2.5517,-2.5633,-2.5703,-2.5703,-2.5703,-2.5703,-2.5703,-2.5703,-2.5703,-2.5703,-2.5703,-2.5703,-2.5682,-2.5628,-2.5601,-2.5576,-2.8142,-3.0169,-3.0002,-3.0651,-3.0974,-2.945,-2.8401,-2.7106,-2.4952,-2.2802,-2.0634,-1.8556,0.0,0.0,-1.8884,-1.9901,0.0,-2.2793,-2.2867,0.0,-2.3465,0.0,-2.5516,-2.5631,-2.6975,0.0,0.0,-2.6268,-2.5321,-2.5321,-2.5828,-2.6218,-2.6404,-2.642,-2.6505,-2.6691,-2.6691,-2.6691,-2.6691,-2.615,-2.5795,-2.5609,-2.5609,-2.5609,-2.5642,-2.6387,-2.7012,-2.7639,-2.9041,-3.0217,-3.1213,-3.2218,-3.2974,-3.3495,-3.3495,-3.3495,-3.3532,-3.3733,-3.3807,-3.3807,-3.3807,-3.366,-3.3495,-3.3495,-3.2926,-3.2302,-3.2302,-3.1746,-3.1278,-3.1693,-3.1729,-3.1726,-3.2105,-3.2053,-3.1775,-3.1179,-3.0871,-3.0544,-2.989,-2.9236,-2.9006,-2.966,-2.8544,-2.7351,-2.6697,-2.6409,-2.6043,-2.538,-2.5303,-2.5303,-2.5303,-2.5303,-2.5341,-2.5447,-2.5484,-2.5531,-2.5634,-2.5683,-2.5703,-2.5703,-2.5703,-2.5703,-2.5703,-2.5703,-2.5703,-2.5703,-2.5703,-2.5676,-2.5638,-2.5609,-2.5543,-2.7491,-2.9829,-3.1582,-3.0924,-3.0884,-3.0417,-2.8265,-2.6671,-2.5001,-2.2645,-2.0544,-1.867,-1.7151,-1.6712,-1.6825,0.0,0.0,0.0,-2.1936,-2.2691,-2.3314,0.0,-2.5612,0.0,-2.6743,-2.8113,-2.9011,0.0,-2.7486,-2.659,-2.659,-2.6657,-2.6843,-2.7182,-2.7182,-2.7351,-2.7706,-2.7706,-2.752,-2.7182,-2.6776,-2.6404,-2.6082,-2.6082,-2.6268,-2.6623,0.0,-2.774,-2.7961,-3.0039,-3.0906,-3.1084,-3.2792,-3.3606,-3.3807,-3.3807,-3.3807,-3.3807,-3.3807,-3.3807,-3.3807,-3.3807,-3.3807,-3.3807,-3.3807,-3.3476,-3.3128,-3.3128,-3.2559,-3.204,-3.2563,-3.2446,-3.2317,-3.2785,-3.2626,-3.2256,-3.1795,-3.141,-3.0987,-3.0494,-3.0314,-3.0275,-3.0379,-2.9294,-2.814,-2.7294,-2.6832,-2.6294,-2.5399,-2.5303,-2.5303,-2.5303,-2.5322,-2.537,-2.5447,-2.5505,-2.5584,-2.5658,-2.5673,-2.5703,-2.5703,-2.5703,-2.5703,-2.5703,-2.5703,-2.5703,-2.5703,-2.5703,-2.5687,-2.5632,-2.5586,-2.5524,-2.8779,-3.0828,-3.2183,-3.1358,-3.0672,-2.9603,-2.7099,-2.5037,-2.3036,-2.0662,-1.8902,-1.7531,-1.6637,-1.5889,-1.5571,-1.6113,0.0,-1.8311,-2.0318,-2.1765,-2.3094,-2.4552,-2.6259,-2.7418,-2.7694,-2.8682,-2.9323,-2.9323,-2.8578,-2.8056,-2.787,-2.716,-2.711,-2.7837,-2.7941,-2.8298,-2.8975,-2.9011,-2.8636,-2.7977,-2.7977,-2.7638,-2.6996,-2.6996,-2.7351,-2.801,-2.8687,-2.8653,-2.8335,-3.1164,-3.1664,-3.0813,-3.2976,-3.3807,-3.3807,-3.3807,-3.3807,-3.3807,-3.3807,-3.3807,-3.3807,-3.3807,-3.3807,-3.3807,-3.3807,-3.3807,-3.3807,-3.3807,-3.3311,-3.2926,-3.3623,-3.3171,-3.2713,-3.341,-3.2877,-3.2179,-3.2064,-3.1352,-3.0775,-3.0891,-3.1429,-3.1621,-3.0871,-3.0025,-2.9121,-2.8198,-2.7332,-2.6467,-2.5572,-2.536,-2.5303,-2.5303,-2.537,-2.5399,-2.5418,-2.5524,-2.5592,-2.5616,-2.5662,-2.5703,-2.5703,-2.5703,-2.5703,-2.5703,-2.5703,-2.5703,-2.5703,-2.5703,-2.5703,-2.5683,-2.5562,-2.5513,-3.0179,-3.1683,-3.2061,-3.0266,-2.9372,-2.8062,-2.4759,-2.2787,0.0,-1.8519,-1.7371,-1.6485,-1.5546,-1.5621,-1.6231,-1.7496,-1.8504,-1.9879,-2.1973,-2.2924,-2.3895,0.0,-2.6612,-2.8117,-2.9774,-3.0555,0.0,0.0,-3.0311,-2.9343,-2.8097,-2.7469,-2.7412,-2.8031,-2.8535,-2.8839,-2.9011,-2.9011,-2.8943,-2.8789,-2.8789,-2.8704,-2.8621,-2.8621,-2.8653,-2.8789,-2.8924,0.0,-2.981,-3.1075,-3.1806,-3.2243,-3.3367,-3.3807,-3.3807,-3.3807,-3.3807,-3.3807,-3.3807,-3.3807,-3.3807,-3.3807,-3.3807,-3.3807,-3.3807,-3.3807,-3.3807,-3.3807,-3.3697,-3.3623,-3.3752,-3.4032,-3.4298,-3.4449,-3.4666,-3.4641,-3.391,-3.3083,-3.2679,-3.3391,-3.3083,-3.2641,-3.2487,-3.1795,-3.0717,-2.9121,-2.8198,-2.7351,-2.6486,-2.5755,-2.5303,-2.5303,-2.537,-2.5415,-2.5479,-2.5545,-2.5611,-2.5685,-2.5682,-2.5703,-2.5703,-2.5703,-2.5703,-2.5703,-2.5703,-2.5703,-2.5703,-2.5703,-2.5664,-2.5625,-2.558,-2.5556,-3.0176,-3.1162,-3.1252,-3.025,-2.8773,-2.6714,-2.3467,0.0,0.0,-1.6543,-1.5828,-1.548,-1.5023,-1.5492,-1.6184,-1.6886,-1.8402,-1.9968,-2.1322,-2.3029,-2.4507,-2.5495,-2.7024,-2.8389,-2.9375,-2.9993,-3.0484,-3.0803,-2.9911,-2.903,-2.8255,-2.8232,-2.8355,-2.8655,-2.9621,-3.0125,-3.0125,-3.0125,-2.9939,-2.9567,-2.9567,-2.9364,-2.9011,-2.9011,-2.9194,-2.9567,-2.9567,-2.977,-3.02,-3.1444,-3.1966,-3.2048,-3.3312,-3.3807,-3.3807,-3.3807,-3.3807,-3.3807,-3.3807,-3.3807,-3.3807,-3.3807,-3.3807,-3.3807,-3.3807,-3.3807,-3.3807,-3.3807,-3.3807,-3.3807,-3.3807,-3.4255,-3.4694,-3.4694,-3.4761,-3.4584,-3.3699,-3.3545,-3.3564,-3.3526,-3.3545,-3.3295,-3.2429,-3.1968,-3.1102,-2.9352,-2.8775,-2.8228,-2.7439,-2.6958,-2.6361,-2.5447,-2.5409,-2.5475,-2.5546,-2.5607,-2.5678,-2.5703,-2.5703,-2.5703,-2.5703,-2.5703,-2.5703,-2.5703,-2.5703,-2.5703,-2.5703,-2.5703,-2.5684,-2.5644,-2.5625,-2.5579,-2.9432,-3.0279,-3.0372,-2.9958,-2.8113,-2.555,-2.2409,-1.9797,0.0,-1.5191,-1.4777,-1.4808,-1.4808,-1.5329,-1.5795,0.0,-1.7622,-1.9199,-2.0324,-2.2629,-2.4612,-2.5689,-2.74,0.0,-2.9146,-2.9438,0.0,-3.0347,-2.9218,-2.8418,-2.8162,-2.8732,-2.913,-2.9255,-3.0399,-3.1055,-3.119,-3.119,-3.0903,-3.0345,-3.0345,-3.0023,-2.9448,-2.9448,-2.9786,-3.0345,-3.0345,-3.0345,0.0,-3.1917,-3.2146,-3.1777,-3.3221,-3.3807,-3.3807,-3.3807,-3.3807,-3.3807,-3.3807,-3.3807,-3.3807,-3.3807,-3.3807,-3.3807,-3.3807,-3.3917,-3.4027,-3.3844,-3.3917,-3.4027,-3.3844,-3.4255,-3.4714,-3.4832,-3.4671,-3.4295,-3.3603,-3.4007,-3.4276,-3.3583,-3.4007,-3.4007,-3.2487,-3.2083,-3.1448,-2.991,-2.9352,-2.892,-2.8362,-2.8135,-2.7499,-2.614,-2.588,-2.5823,-2.5861,-2.5761,-2.5703,-2.5703,-2.5703,-2.5703,-2.5703,-2.5703,-2.5703,-2.5703,-2.5703,-2.5703,-2.5703,-2.5703,-2.5703,-2.5703,-2.5644,-2.5627,-2.8136,-2.955,-3.0108,-2.8329,-2.6752,-2.476,-2.1204,0.0,-1.6876,-1.517,-1.4808,-1.4808,-1.4808,-1.485,-1.5202,-1.6137,0.0,-1.7562,-2.0288,-2.1949,-2.3759,-2.6213,0.0,0.0,-3.1124,-3.0798,-3.0526,-3.0576,-2.9358,-2.8306,-2.77,-2.8227,-2.8825,-2.9355,-3.0031,-3.0658,-3.119,-3.119,-3.1157,-3.1089,-3.1089,-3.1055,-3.0987,-3.0987,-3.1021,-3.1089,-3.1089,-3.1089,0.0,-3.2127,-3.2464,-3.2477,-3.3439,-3.3807,-3.3807,-3.3807,-3.3807,-3.3807,-3.3807,-3.3807,-3.3807,-3.3807,-3.3807,-3.3807,-3.3807,-3.4321,-3.4734,-3.4009,-3.4339,-3.4715,-3.399,-3.4255,-3.4813,-3.5304,-3.5402,-3.5372,-3.5295,-3.5334,-3.5372,-3.5295,-3.5334,-3.5084,-3.4122,-3.3314,-3.2506,-3.1686,-3.0198,-2.9217,-2.9271,-2.8578,-2.8049,-2.7943,-2.7248,-2.6776,-2.6776,-2.6116,-2.5703,-2.5703,-2.5703,-2.5703,-2.5703,-2.5703,-2.5703,-2.5703,-2.5703,-2.5703,-2.5703,-2.5703,-2.5703,-2.5703,-2.5684,-2.5697,-2.7246,-2.8634,-2.9071,-2.7874,-2.5878,-2.3496,-2.0812,0.0,-1.6145,-1.5008,-1.4808,-1.4808,-1.4808,-1.4887,-1.5051,-1.5449,0.0,0.0,-1.9093,-2.0586,-2.2622,-2.5644,-2.6826,0.0,0.0,0.0,-2.9833,-2.9438,-3.001,-2.9728,-2.8269,-2.8752,-2.9405,-2.9984,-3.0207,-3.0601,-3.119,-3.119,-3.119,-3.119,-3.119,-3.119,-3.119,-3.119,-3.119,-3.119,-3.119,-3.119,0.0,-3.2162,-3.2484,-3.2583,-3.3447,-3.3807,-3.3807,-3.3807,-3.3807,-3.3807,-3.3807,-3.3807,-3.388,-3.4376,-3.4523,-3.4431,-3.3954,-3.4376,-3.4917,-3.4605,-3.5147,-3.5587,-3.4743,-3.4604,-3.4851,-3.5369,-3.5493,-3.5493,-3.5493,-3.5493,-3.5493,-3.5493,-3.5493,-3.5218,-3.4353,-3.391,-3.3256,-3.1994,-3.1205,-3.0609,-3.0225,-2.9872,-2.9699,-2.9806,-2.8531,-2.75,-2.7,-2.7159,-2.7031,-2.6523,-2.6484,-2.6484,-2.6484,-2.5977,-2.5703,-2.5703,-2.5703,-2.5703,-2.5703,-2.5703,-2.5703,-2.5703,-2.5703,-2.5691,-2.5314,-2.6703,-2.726,-2.6557,-2.4566,-2.2184,0.0,0.0,-1.5557,-1.4763,-1.4655,-1.4732,-1.4732,-1.4935,-1.5118,0.0,0.0,-1.6688,-1.8085,-1.9513,-2.1485,-2.4403,0.0,-2.7081,0.0,-2.984,-2.9993,-2.9501,-3.0582,-3.0738,-2.9531,-2.9327,-2.9534,-3.0133,-2.991,-3.0081,-3.0658,-3.0838,-3.0918,-3.0935,-3.1095,-3.119,-3.119,-3.119,-3.119,-3.119,-3.119,-3.119,0.0,-3.2389,-3.2854,-3.2971,-3.4113,-3.4376,-3.4156,-3.4156,-3.4009,-3.3807,-3.3807,-3.3807,-3.3935,-3.4734,-3.4825,-3.4568,-3.4266,-3.4908,-3.5642,-3.5137,-3.5459,-3.5827,-3.5373,-3.4969,-3.4851,-3.5369,-3.5493,-3.5493,-3.5493,-3.5699,-3.5795,-3.5565,-3.5699,-3.5584,-3.4737,-3.4372,-3.3833,-3.275,-3.2174,-3.1661,-3.1202,-3.0925,-3.0799,-3.0897,-2.9751,-2.8656,-2.7831,-2.8105,-2.8047,-2.7422,-2.7383,-2.7266,-2.7012,-2.666,-2.6348,-2.6094,-2.6348,-2.6465,-2.6465,-2.6465,-2.6348,-2.6074,-2.6078,-2.5921,-2.2007,-2.348,-2.4462,-2.3819,-2.2527,-2.0803,0.0,0.0,-1.5299,-1.4238,-1.431,-1.4596,-1.4596,-1.4966,-1.5328,-1.5463,0.0,0.0,-1.7518,-1.8867,-2.0453,0.0,0.0,-2.6408,-2.8427,-3.044,-3.1581,-3.1582,-3.0948,0.0,-3.1517,-2.9705,-2.8888,-2.9484,-2.8867,-2.8826,-2.9406,-3.0038,-3.0293,-3.0309,-3.0918,-3.119,-3.119,-3.119,-3.119,-3.119,-3.119,-3.119,0.0,-3.3002,-3.3684,-3.3857,-3.5587,-3.5752,-3.4972,-3.4972,-3.4486,-3.3807,-3.3807,-3.3807,-3.3935,-3.4734,-3.4468,-3.3972,-3.4734,-3.6156,-3.711,-3.5477,-3.5009,-3.5137,-3.5747,-3.5296,-3.4851,-3.5369,-3.5493,-3.5493,-3.5493,-3.6142,-3.6449,-3.5661,-3.6142,-3.643,-3.5641,-3.4776,-3.4257,-3.4441,-3.3006,-3.1963,-3.2167,-3.1423,-3.0895,-3.0896,-3.0879,-3.0527,-2.9648,-2.8789,-2.8301,-2.8281,-2.8281,-2.7891,-2.7031,-2.7812,-2.7871,-2.6992,-2.7832,-2.8262,-2.8262,-2.8262,-2.7832,-2.6992,-2.6993,-2.6447,-2.0465,-2.1527,-2.2012,-2.1213,-1.9814,-1.8304,-1.7004,0.0,-1.4569,-1.4262,-1.4529,-1.4825,-1.4825,-1.5163,-1.5463,-1.5477,-1.561,0.0,0.0,0.0,0.0,-2.4283,-2.7619,-3.0057,0.0,0.0,-3.2582,-3.1699,-3.1823,-3.1648,-3.0864,-2.9402,-2.9085,-3.0165,-2.9115,-2.8779,-2.9406,-2.9995,-3.0293,-3.0293,-3.0918,-3.119,-3.119,-3.119,-3.119,-3.119,-3.119,-3.119,0.0,-3.2424,-3.3206,-3.3821,-3.4968,-3.5229,-3.499,-3.499,-3.4504,-3.388,-3.4431,-3.4633,-3.4853,-3.6248,-3.6523,-3.6376,-3.6615,-3.6688,-3.667,-3.6688,-3.5881,-3.5137,-3.5747,-3.5296,-3.4851,-3.5369,-3.5493,-3.5493,-3.5493,-3.6142,-3.6469,-3.5661,-3.6161,-3.6449,-3.5641,-3.5276,-3.4916,-3.4428,-3.3895,-3.3179,-3.2123,-3.1789,-3.1418,-3.0839,-3.0859,-3.0547,-2.9668,-2.9883,-2.9824,-2.9238,-2.9199,-2.9062,-2.8789,-2.8476,-2.8164,-2.7891,-2.8164,-2.8301,-2.8301,-2.8301,-2.8164,-2.7871,-2.7226,-2.6737,0.0,-1.9336,-1.9575,-1.9157,-1.7871,0.0,0.0,0.0,-1.4105,-1.4222,-1.4574,-1.4902,-1.4949,-1.5359,-1.5742,-1.5936,-1.6114,0.0,0.0,0.0,0.0,-2.554,0.0,0.0,0.0,-3.2672,-3.2956,-3.239,-3.2262,-3.1956,-3.1353,-2.9591,-2.9087,-3.0143,-2.8843,-2.8367,-2.8717,-2.954,-2.9935,-2.9995,-3.0781,-3.119,-3.119,-3.119,-3.119,-3.119,-3.119,0.0,0.0,-3.2576,-3.3442,-3.4041,-3.5328,-3.575,-3.5636,-3.5636,-3.5261,-3.4816,-3.533,-3.5495,-3.5716,-3.7055,-3.7507,-3.7452,-3.7129,-3.689,-3.6909,-3.7716,-3.6982,-3.6012,-3.6269,-3.5767,-3.521,-3.5445,-3.5493,-3.5493,-3.5493,-3.6142,-3.6469,-3.5661,-3.6161,-3.6449,-3.5641,-3.5493,-3.5339,-3.4864,-3.4518,-3.3963,-3.3005,-3.2331,-3.176,-3.125,-3.0976,-3.0625,-3.0137,-3.0586,-3.0664,-3.0117,-3.0098,-2.9941,-2.9609,-2.9394,-2.9121,-2.8809,-2.9101,-2.9277,-2.9277,-2.8945,-2.8789,-2.8769,-2.7823,-2.7358,0.0,0.0,0.0,0.0,0.0,0.0,0.0,0.0,0.0,0.0,0.0,-1.4871,-1.5131,-1.5654,-1.6214,-1.6697,-1.6955,0.0,0.0,-2.0662,0.0,0.0,-2.7964,0.0,-3.0463,-3.1818,-3.2841,-3.3495,-3.2311,-3.1827,-3.2501,-2.997,-2.8846,-2.9564,-2.8329,-2.7625,-2.7625,-2.881,-2.9406,-2.9406,-3.0601,-3.119,-3.119,-3.119,-3.119,0.0,-3.119,0.0,0.0,-3.3296,-3.415,-3.4418,-3.6406,-3.6988,-3.6705,-3.6739,-3.6576,-3.6303,-3.6358,-3.6376,-3.6505,-3.7239,-3.7533,-3.7452,-3.6615,-3.6853,-3.7569,-3.8395,-3.8028,-3.7376,-3.7122,-3.6516,-3.5911,-3.5641,-3.557,-3.557,-3.5512,-3.6142,-3.6469,-3.5661,-3.6161,-3.6449,-3.5641,-3.5493,-3.5526,-3.5584,-3.4903,-3.4389,-3.4389,-3.2968,-3.196,-3.1905,-3.1171,-3.0742,-3.0879,-3.0898,-3.0898,-3.0898,-3.0898,-3.0547,-2.9726,-3.0469,-3.0527,-2.9707,-3.0488,-3.0898,-3.0898,-3.0098,-2.9687,-2.9668,-2.873,-2.8255,0.0,0.0,0.0,0.0,0.0,0.0,0.0,0.0,0.0,0.0,0.0,0.0,0.0,0.0,0.0,-1.756,0.0,-1.8167,-1.9306,0.0,0.0,-2.7919,-2.9729,-3.0754,-3.0603,-3.1818,-3.2641,-3.2841,-3.1597,-3.1105,-3.1736,-2.9267,-2.8353,-2.9549,-2.8329,-2.7625,-2.7625,-2.881,-2.9406,-2.9406,-3.0601,-3.119,-3.119,-3.119,-3.119,-3.119,0.0,0.0,-3.1297,-3.2727,-3.3627,-3.4349,-3.6132,-3.6766,-3.6739,-3.7148,-3.6875,-3.6376,-3.6982,-3.7202,-3.7239,-3.7452,-3.7918,-3.8267,-3.7441,-3.6909,-3.6743,-3.7551,-3.7184,-3.6619,-3.6763,-3.6794,-3.6703,-3.6212,-3.6274,-3.6257,-3.5641,-3.6142,-3.6469,-3.5661,-3.6161,-3.6449,-3.5641,-3.5493,-3.5526,-3.5526,-3.5339,-3.4743,-3.3436,-3.2955,-3.2266,-3.0994,-3.0724,-3.0668,-3.0742,-3.084,-3.0898,-3.0898,-3.0898,-3.0801,-3.0605,-3.0781,-3.0801,-3.0605,-3.0801,-3.0898,-3.0898,-3.0684,-3.0586,-3.0566,-2.9629,-2.9197,-1.5639,-1.5388,-1.5025,-1.4797,0.0,0.0,0.0,0.0,0.0,0.0,0.0,0.0,0.0,0.0,0.0,0.0,-1.8262,0.0,0.0,0.0,-2.6285,-2.8463,-2.9612,-3.0443,0.0,-3.1677,-3.212,-3.212,-3.1433,-3.104,-3.1031,-2.943,-2.8697,-2.9116,-2.8113,-2.771,-2.7993,-2.895,-2.954,-2.9805,-3.0757,-3.1021,-3.0717,-3.1055,-3.1021,-3.0717,0.0,0.0,-3.1297,-3.2269,-3.3072,-3.3772,-3.5046,-3.5989,-3.6739,-3.7035,-3.7253,-3.7459,-3.79,-3.7808,-3.7349,-3.6597,-3.7165,-3.7918,-3.6725,-3.6578,-3.7019,-3.7808,-3.7845,-3.7544,-3.7474,-3.7649,-3.7641,-3.6716,-3.6592,-3.6488,-3.568,-3.5853,-3.6026,-3.557,-3.5853,-3.6007,-3.5584,-3.5493,-3.5493,-3.5493,-3.5493,-3.5161,-3.4218,-3.3436,-3.2609,-3.1737,-3.0994,-3.0595,-3.0695,-3.0732,-3.0808,-3.0898,-3.0898,-3.0898,-3.0898,-3.0898,-3.0898,-3.0898,-3.0898,-3.0898,-3.0898,-3.0898,-3.0898,-3.0898,-3.0371,-3.0117,-1.5799,-1.5669,-1.5414,-1.5072,-1.4752,0.0,0.0,0.0,0.0,0.0,0.0,0.0,0.0,-1.5654,0.0,0.0,0.0,0.0,-2.3846,-2.4622,-2.5864,-2.8595,-2.9071,0.0,-3.1091,-3.1362,-3.1437,-3.139,-3.1228,-3.0986,-3.0387,-2.9669,-2.9109,-2.8763,-2.7981,-2.7875,-2.8576,-2.9132,-2.9717,-3.0293,-3.0818,-3.07,-3.0125,-3.0751,-3.0683,-3.0142,0.0,0.0,-3.1241,-3.2089,-3.2637,-3.309,-3.3949,-3.5225,-3.6525,-3.6591,-3.7371,-3.834,-3.834,-3.7881,-3.7055,-3.5514,-3.6138,-3.7184,-3.5514,-3.6174,-3.7606,-3.8175,-3.8617,-3.8824,-3.8362,-3.862,-3.8631,-3.7172,-3.6863,-3.6642,-3.5699,-3.5493,-3.5493,-3.5493,-3.5493,-3.5493,-3.5493,-3.5493,-3.5493,-3.5526,-3.5526,-3.5397,-3.5166,-3.3833,-3.2833,-3.2634,-3.1352,-3.0544,-3.0679,-3.0643,-3.0681,-3.0864,-3.0855,-3.0858,-3.0879,-3.0879,-3.0879,-3.0898,-3.0898,-3.0898,-3.0898,-3.0898,-3.0898,-3.0898,-3.0898,-3.084,-1.5799,-1.6144,-1.6306,-1.5595,-1.5088,0.0,0.0,0.0,0.0,0.0,0.0,0.0,0.0,-1.6256,-1.6888,0.0,0.0,-2.2891,0.0,0.0,-2.8336,-2.9349,0.0,-3.0761,-2.9968,-3.0881,-3.1228,-3.0717,-3.0178,-2.9834,-2.9729,-2.8547,-2.8324,-2.9335,-2.8119,-2.7978,-2.9065,-2.9279,-2.9717,-3.0293,-3.0258,-3.0226,-3.0108,-3.0226,-3.0226,-3.0142,0.0,-3.119,-3.128,-3.2406,-3.2945,-3.3147,-3.4674,-3.5439,-3.5728,-3.6176,-3.6483,-3.667,-3.667,-3.6578,-3.6321,-3.5302,-3.6138,-3.7184,-3.5514,-3.6174,-3.7367,-3.6817,-3.7341,-3.8063,-3.7984,-3.8946,-3.9471,-3.7791,-3.7581,-3.7373,-3.5834,-3.5493,-3.5493,-3.5493,-3.5493,-3.5493,-3.5493,-3.5493,-3.5526,-3.5584,-3.5545,-3.5012,-3.3634,-3.3128,-3.2372,-3.1025,-3.066,-3.0544,-3.0679,-3.0648,-3.0634,-3.0733,-3.0678,-3.0661,-3.0723,-3.0723,-3.0781,-3.0898,-3.0898,-3.0898,-3.0898,-3.0898,-3.0898,-3.0898,-3.0898,-3.0898,-1.5799,-1.5994,-1.6204,-1.6159,0.0,-1.5758,-1.5758,0.0,0.0,0.0,0.0,0.0,0.0,0.0,-1.7714,-1.9914,0.0,-2.3862,-2.54,-2.6604,-2.775,0.0,0.0,-2.9687,-3.0028,-3.0313,-3.0357,-3.0028,-2.9744,-2.943,-2.9071,-2.8788,-2.8541,-2.8386,-2.7752,-2.7677,-2.8151,-2.7965,-2.8442,-2.961,-2.9538,-2.9499,-2.9516,-2.9922,-3.0108,-3.0142,0.0,-3.1312,-3.1562,-3.2113,-3.2651,-3.3184,-3.3948,-3.4661,-3.5326,-3.6043,-3.6303,-3.6229,-3.5771,-3.5605,-3.5459,-3.4633,-3.5183,-3.5917,-3.4724,-3.5202,-3.6001,-3.5346,-3.6628,-3.8051,-3.7582,-3.8552,-3.9229,-3.7469,-3.7183,-3.6969,-3.5757,-3.5493,-3.5493,-3.5493,-3.5493,-3.5493,-3.5493,-3.5493,-3.5526,-3.5603,-3.5584,-3.5301,-3.4609,-3.366,-3.2776,-3.2045,-3.1129,-3.0569,-3.0633,-3.0586,-3.0577,-3.0652,-3.0607,-3.0629,-3.0698,-3.0704,-3.0762,-3.0898,-3.0898,-3.0898,-3.0898,-3.0898,-3.0898,-3.0898,-3.0898,-3.0898,-1.5799,-1.5903,-1.6114,-1.6653,0.0,-1.6312,-1.6712,-1.5625,0.0,0.0,0.0,0.0,0.0,-1.6107,0.0,-2.1112,-2.2766,-2.4038,-2.5006,-2.5952,-2.7097,-2.8785,-2.8559,-2.8809,-3.0148,-2.9864,-2.9612,-2.9554,-2.9447,-2.9215,-2.8814,-2.8916,-2.8573,-2.7671,-2.7328,-2.7154,-2.7054,-2.6504,-2.6999,-2.8628,-2.8589,-2.8558,-2.8575,-2.9259,-2.9668,-2.9871,-3.0429,-3.0984,-3.1512,-3.1655,-3.2201,-3.2961,-3.323,-3.3905,-3.4789,-3.5477,-3.5716,-3.5624,-3.4963,-3.4715,-3.4633,-3.4009,-3.4357,-3.4844,-3.4045,-3.4376,-3.489,-3.4364,-3.5968,-3.7681,-3.7062,-3.7943,-3.8604,-3.7065,-3.6699,-3.6488,-3.568,-3.5493,-3.5493,-3.5493,-3.5493,-3.5493,-3.5493,-3.5493,-3.5526,-3.5603,-3.5603,-3.5545,-3.5391,-3.4096,-3.3111,-3.2899,-3.1482,-3.0568,-3.0606,-3.054,-3.0549,-3.0597,-3.0598,-3.0621,-3.0698,-3.0697,-3.0769,-3.0898,-3.0898,-3.0898,-3.0898,-3.0898,-3.0898,-3.0898,-3.0898,-3.0898,-1.5799,-1.6219,-1.6682,-1.691,-1.6037,0.0,-1.7012,-1.5915,0.0,-1.5745,0.0,0.0,0.0,-1.6002,-1.7889,-2.0548,-2.1801,-2.3338,-2.5939,0.0,-2.7969,-2.9346,-2.9514,-2.9544,-2.9624,-2.9609,-2.9562,-2.9508,-2.9,-2.885,-2.9337,-2.8186,-2.7795,-2.8318,-2.6987,-2.6317,-2.6359,-2.5662,-2.6022,-2.751,-2.7328,-2.7222,-2.7259,-2.7729,-2.8383,-2.9059,-2.9163,-2.9721,-3.0716,-3.1225,-3.1706,-3.2202,-3.3332,-3.3798,-3.3899,-3.3954,-3.3972,-3.3972,-3.3917,-3.3899,-3.388,-3.3825,-3.4357,-3.4844,-3.4045,-3.4376,-3.489,-3.4364,-3.5102,-3.6116,-3.631,-3.722,-3.7853,-3.693,-3.6699,-3.6488,-3.568,-3.5493,-3.5493,-3.5493,-3.5493,-3.5493,-3.5493,-3.5493,-3.5526,-3.5603,-3.5603,-3.5315,-3.4487,-3.3633,-3.2809,-3.1984,-3.1061,-3.0537,-3.0575,-3.0595,-3.0598,-3.0594,-3.0588,-3.0621,-3.0698,-3.0706,-3.0766,-3.0898,-3.0898,-3.0898,-3.0898,-3.0898,-3.0898,-3.0898,-3.0898,-3.0898,-1.5639,-1.5918,-1.6308,-1.6509,-1.588,0.0,0.0,-1.6183,-1.536,-1.5784,-1.6087,0.0,0.0,0.0,-1.9282,-2.1641,-2.2913,-2.427,-2.6116,-2.7357,-2.8443,-2.948,-2.922,-2.8801,-2.8382,-2.8288,-2.8051,-2.7581,-2.7674,-2.7823,-2.804,-2.7597,-2.7232,-2.7054,-2.6198,-2.534,-2.45,-2.3909,-2.3943,-2.4477,-2.5788,-2.6673,-2.7102,-2.7595,-2.8247,-2.9011,-2.9011,-2.9621,-3.063,-3.0398,-3.1253,-3.2798,-3.3524,-3.3807,-3.3807,-3.3807,-3.3807,-3.3807,-3.3807,-3.3807,-3.3807,-3.3807,-3.4009,-3.4211,-3.3899,-3.4131,-3.4507,-3.4495,-3.4942,-3.5437,-3.5526,-3.6377,-3.6988,-3.6161,-3.5949,-3.6007,-3.6199,-3.5853,-3.5661,-3.6161,-3.5853,-3.5493,-3.5493,-3.5493,-3.5526,-3.5603,-3.5603,-3.5509,-3.5214,-3.3993,-3.304,-3.2705,-3.137,-3.0527,-3.0583,-3.0608,-3.0613,-3.0666,-3.0623,-3.0626,-3.071,-3.0698,-3.0728,-3.0768,-3.0773,-3.0749,-3.0716,-3.0757,-3.0781,-3.0781,-3.0859,-3.0898,-1.5492,-1.5609,-1.5828,0.0,0.0,0.0,-1.6859,-1.6345,-1.5877,-1.68,-1.6845,0.0,-1.9745,0.0,0.0,0.0,-2.2777,-2.3811,-2.5549,-2.6623,-2.757,-2.8517,-2.8248,-2.7694,-2.7021,-2.7038,-2.6962,-2.6701,-2.7015,-2.7269,-2.7517,-2.7185,-2.6668,-2.5986,-2.5258,-2.4287,-2.3176,-2.2647,-2.2473,-2.2724,-2.4372,-2.5647,-2.6515,-2.7155,-2.7892,-2.8619,-2.8619,-2.9143,-2.9954,-2.9953,-3.1217,-3.3189,-3.3086,-3.3348,-3.377,-3.3513,-3.3587,-3.3807,-3.3807,-3.3807,-3.3807,-3.3807,-3.3807,-3.3807,-3.3807,-3.3986,-3.4269,-3.4612,-3.4832,-3.4981,-3.5088,-3.5707,-3.618,-3.5641,-3.5493,-3.5661,-3.6199,-3.5892,-3.5661,-3.6219,-3.5892,-3.5493,-3.5493,-3.5493,-3.5526,-3.5565,-3.5603,-3.5605,-3.5621,-3.4191,-3.2954,-3.2382,-3.121,-3.0506,-3.0564,-3.0591,-3.0622,-3.0702,-3.095,-3.1003,-3.0762,-3.0709,-3.0701,-3.0702,-3.0679,-3.0644,-3.0595,-3.0658,-3.0671,-3.0671,-3.0769,-3.0808,-1.5388,-1.536,0.0,0.0,0.0,0.0,-1.6918,-1.6323,-1.6348,-1.9017,-1.847,-1.8202,-2.0469,-1.9198,0.0,-2.0563,-2.0772,-2.1611,-2.4106,-2.4498,-2.5024,-2.6411,-2.6572,-2.6318,-2.5659,-2.6077,-2.6654,-2.7237,-2.7195,-2.7501,-2.8141,-2.6904,-2.5971,-2.5497,-2.4135,-2.3176,-2.2709,-2.2024,-2.2024,-2.2709,-2.3161,-2.4037,-2.5221,-2.6245,-2.7097,-2.7772,-2.7772,-2.8032,-2.8518,-3.004,-3.1676,-3.3045,-3.1861,-3.2375,-3.3697,-3.2908,-3.3109,-3.3807,-3.3807,-3.3807,-3.3807,-3.3807,-3.3807,-3.3807,-3.3807,-3.3986,-3.4269,-3.4593,-3.4694,-3.4754,-3.5035,-3.5289,-3.5493,-3.5493,-3.5493,-3.5493,-3.5512,-3.5493,-3.5493,-3.5512,-3.5526,-3.5493,-3.5493,-3.5493,-3.5493,-3.5493,-3.5565,-3.5584,-3.5488,-3.4077,-3.2403,-3.0602,-3.0398,-3.0417,-3.0506,-3.0571,-3.0642,-3.0714,-3.1655,-3.1816,-3.0957,-3.0785,-3.071,-3.0698,-3.0641,-3.0602,-3.0602,-3.0602,-3.0588,-3.06,-3.06,-3.06,-1.5838,-1.5947,0.0,-1.5811,0.0,0.0,0.0,-1.6901,0.0,0.0,-1.8736,-1.8929,-2.0131,0.0,0.0,-2.0713,-2.0772,-2.1429,-2.3585,-2.3851,-2.4366,-2.5741,-2.5899,-2.5644,-2.4986,-2.571,-2.6122,-2.5838,-2.6134,-2.6454,-2.664,-2.5575,-2.4864,-2.4741,-2.3941,-2.3254,-2.2724,-2.2488,-2.2248,-2.1994,-2.3319,-2.4382,-2.5221,-2.5908,-2.65,-2.7029,-2.7029,-2.7386,-2.8118,-2.9685,-3.0358,-3.0373,-3.1125,-3.2045,-3.2944,-3.2706,-3.3109,-3.3807,-3.3807,-3.3807,-3.3807,-3.3807,-3.3807,-3.3807,-3.3807,-3.3986,-3.4223,-3.4334,-3.4529,-3.4714,-3.4812,-3.4889,-3.4944,-3.4944,-3.5088,-3.5376,-3.5949,-3.5772,-3.568,-3.6238,-3.5892,-3.5493,-3.5493,-3.5493,-3.5493,-3.5493,-3.5526,-3.5084,-3.3833,-3.3237,-3.2295,-3.0571,-3.0398,-3.0448,-3.0564,-3.1155,-3.1576,-3.173,-3.2573,-3.2676,-3.1855,-3.178,-3.1695,-3.1542,-3.0922,-3.0544,-3.0467,-3.0506,-3.0532,-3.053,-3.0578,-3.0598,-1.5775,-1.5921,0.0,-1.6152,-1.6647,-1.718,-1.7573,0.0,0.0,0.0,0.0,-1.9535,-2.0226,-1.985,0.0,-2.0047,-2.0246,-2.0939,-2.2665,-2.3114,-2.3618,-2.4685,-2.4807,-2.4462,-2.355,-2.4441,-2.4918,-2.453,-2.5212,-2.5577,-2.5373,-2.4752,-2.4307,-2.4074,-2.3254,-2.2787,-2.2724,-2.1929,-2.1695,-2.2124,-2.3032,-2.4074,-2.5221,-2.5944,-2.6436,-2.6691,-2.6691,-2.73,-2.8335,-2.9012,-2.9384,-2.9609,-3.0217,-3.1127,-3.2118,-3.2118,-3.2632,-3.3366,-3.3697,-3.3807,-3.3807,-3.3807,-3.3807,-3.3807,-3.3807,-3.3746,-3.379,-3.4106,-3.4132,-3.4095,-3.4414,-3.442,-3.4398,-3.4632,-3.4908,-3.5238,-3.5715,-3.5649,-3.5641,-3.6142,-3.5834,-3.5493,-3.5493,-3.5493,-3.5493,-3.5493,-3.5493,-3.4872,-3.3122,-3.2891,-3.2256,-3.0571,-3.0417,-3.0602,-3.1037,-3.1607,-3.2135,-3.2616,-3.3447,-3.3683,-3.317,-3.2821,-3.2582,-3.246,-3.1574,-3.1076,-3.0999,-3.066,-3.0506,-3.0506,-3.0506,-3.0525,-1.5557,0.0,0.0,-1.6692,-1.7115,0.0,-1.7365,-1.8945,-2.0308,-2.0145,0.0,-1.9886,-2.0413,-1.966,-1.8908,-1.8908,-1.9346,-2.0141,-2.1444,-2.2056,-2.2625,-2.3259,-2.3329,-2.2924,-2.1814,-2.2738,-2.339,-2.3328,-2.4444,-2.4847,-2.4244,-2.4287,-2.4055,-2.343,-2.2353,-2.2039,-2.2619,-2.0782,-2.079,-2.2555,-2.2501,-2.3374,-2.5121,-2.6179,-2.6657,-2.6691,-2.6691,-2.7486,-2.8725,-2.8154,-2.8729,-2.9905,-2.9239,-2.9953,-3.1274,-3.1274,-3.1806,-3.2614,-3.333,-3.3623,-3.3678,-3.3705,-3.376,-3.3788,-3.3723,-3.3358,-3.3111,-3.3855,-3.352,-3.3148,-3.3948,-3.3986,-3.3928,-3.4526,-3.4851,-3.507,-3.5088,-3.5304,-3.5493,-3.5493,-3.5493,-3.5493,-3.5493,-3.5493,-3.5493,-3.5493,-3.543,-3.4776,-3.3103,-3.2833,-3.2179,-3.0571,-3.0525,-3.0933,-3.173,-3.2066,-3.2574,-3.3357,-3.4291,-3.4774,-3.47,-3.3877,-3.3418,-3.3418,-3.2421,-3.1918,-3.1896,-3.0956,-3.051,-3.0506,-3.0448,-3.0417,0.0,-1.6848,0.0,0.0,-1.6965,-1.6729,-1.7193,-1.7666,-1.825,-1.9066,-1.9195,-1.9233,-1.9359,-1.8832,-1.838,-1.838,-1.848,-1.8805,-1.9594,-1.9793,-2.0274,-2.1367,-2.1478,-2.1557,-2.1685,-2.2738,-2.3188,-2.2645,-2.3811,-2.4084,-2.2894,-2.3427,-2.3257,-2.2143,-2.2338,-2.2278,-2.1919,-2.1485,-2.1379,0.0,-2.2519,-2.3369,-2.4211,-2.5556,-2.6367,-2.6691,-2.6691,-2.6877,-2.7216,-2.77,-2.8092,-2.8443,-2.8846,-2.9604,-3.0467,-3.0467,-3.0962,-3.1678,-3.1843,-3.2339,-3.2878,-3.3099,-3.3444,-3.3713,-3.3284,-3.2939,-3.2716,-3.29,-3.2827,-3.2863,-3.3674,-3.3842,-3.3895,-3.4218,-3.4532,-3.4832,-3.5051,-3.5304,-3.5493,-3.5493,-3.5493,-3.5493,-3.5493,-3.5493,-3.5493,-3.5493,-3.493,-3.4103,-3.3045,-3.2352,-3.1564,-3.0513,-3.1076,-3.163,-3.1848,-3.3199,-3.4108,-3.4314,-3.5152,-3.5582,-3.548,-3.4778,-3.4355,-3.4237,-3.2748,-3.1956,-3.1902,-3.102,-3.0576,-3.0583,-3.0564,-3.0564,0.0,0.0,0.0,-1.7291,0.0,-1.6397,-1.6442,-1.665,-1.7116,-1.7995,-1.8424,-1.8631,-1.8631,-1.8405,-1.8116,-1.7852,-1.8028,-1.8312,-1.8658,-1.8945,-1.9324,-1.995,-2.0538,-2.0756,-2.0367,-2.1693,-2.2308,-2.1637,-2.2522,-2.2797,-2.2095,-2.2455,-2.2383,-2.1724,-2.1724,-2.1724,-2.1695,-2.125,-2.1277,-2.1796,-2.2559,-2.3539,-2.4762,-2.5831,-2.647,-2.6691,-2.6691,-2.6808,-2.7019,-2.7648,-2.7992,-2.8183,-2.8749,-2.925,-2.9677,-3.0063,-3.0467,-3.0944,-3.1715,-3.233,-3.2889,-3.3408,-3.3505,-3.3371,-3.3092,-3.2279,-3.1531,-3.1916,-3.1751,-3.1666,-3.2588,-3.3136,-3.3518,-3.3911,-3.4353,-3.4774,-3.5034,-3.5304,-3.5493,-3.5493,-3.5493,-3.5493,-3.5493,-3.5493,-3.5493,-3.5493,-3.4757,-3.3891,-3.3006,-3.2199,-3.1525,-3.1083,-3.153,-3.2202,-3.3063,-3.4042,-3.4783,-3.5205,-3.5232,-3.5167,-3.504,-3.4785,-3.4623,-3.455,-3.3281,-3.2613,-3.2625,-3.1708,-3.127,-3.1261,-3.0812,-3.0606,0.0,0.0,-1.6936,-1.6942,-1.6411,0.0,-1.5303,-1.559,-1.6139,-1.6714,-1.7387,-1.79,-1.8066,-1.7884,-1.7659,-1.73,-1.7418,-1.7668,-1.7961,-1.8288,-1.8583,-1.8783,-1.9738,-2.0033,-1.8993,-2.0498,-2.1246,-2.0587,-2.1261,-2.159,-2.1365,-2.156,-2.159,-2.135,-2.0932,-2.0955,-2.1437,-2.0691,-2.0922,-2.2165,-2.2606,-2.366,-2.5253,-2.5981,-2.6454,-2.6691,-2.6774,-2.7004,-2.7334,-2.7794,-2.8156,-2.8446,-2.8839,-2.8994,-2.9067,-2.9751,-2.9989,-3.021,-3.1696,-3.2453,-3.2896,-3.3566,-3.3436,-3.2952,-3.2672,-3.1464,-3.0338,-3.0999,-3.0705,-3.0446,-3.1522,-3.2411,-3.3144,-3.3669,-3.43,-3.4832,-3.5105,-3.5335,-3.5493,-3.5493,-3.5493,-3.5493,-3.5493,-3.5493,-3.5493,-3.5493,-3.4622,-3.3718,-3.2987,-3.2199,-3.1698,-3.1698,-3.2069,-3.2898,-3.4335,-3.4671,-3.5098,-3.5795,-3.513,-3.4629,-3.4539,-3.4551,-3.4555,-3.461,-3.3904,-3.3574,-3.3613,-3.2695,-3.2168,-3.2012,-3.1213,-3.0756,0.0,0.0,-1.6228,0.0,-1.4961,-1.4146,0.0,0.0,-1.4337,0.0,-1.5893,-1.683,-1.7385,-1.6647,-1.6102,-1.6548,-1.5823,-1.5519,-1.6579,-1.6342,-1.6417,-1.7431,-1.8098,-1.8602,-1.8869,-2.0062,-2.0557,-1.9869,-2.0976,-2.1186,-2.0019,-2.1066,-2.1156,-1.9989,-2.0438,-2.0624,-2.0505,-2.0373,-2.0761,-2.1724,-2.2792,-2.3435,-2.3714,-2.4441,-2.5473,-2.6725,-2.7051,-2.7241,-2.7348,-2.8057,-2.8368,-2.8446,-2.8839,-2.8994,-2.8994,-2.9104,-2.914,-2.9287,-3.021,-3.1164,-3.1968,-3.2079,-3.2527,-3.2728,-3.1334,-3.0576,-3.0228,-3.0338,-3.0283,-3.0446,-3.1522,-3.2411,-3.3144,-3.3669,-3.4423,-3.5122,-3.5383,-3.546,-3.5493,-3.5493,-3.5493,-3.5493,-3.5493,-3.5493,-3.5493,-3.5493,-3.4122,-3.3026,-3.291,-3.2199,-3.1698,-3.1698,-3.3077,-3.4079,-3.4318,-3.5088,-3.5582,-3.5636,-3.5526,-3.5449,-3.543,-3.4737,-3.443,-3.4588,-3.4538,-3.4512,-3.4512,-3.3633,-3.2851,-3.2168,-3.1918,-3.1414,-1.5961,-1.5627,-1.5005,0.0,-1.403,-1.3334,-1.2996,0.0,-1.3467,-1.4061,-1.4866,-1.5762,-1.6709,-1.6178,-1.5676,-1.5952,-1.5287,-1.5017,-1.5864,-1.5776,-1.6015,-1.7175,-1.8113,-1.8705,-1.8884,-1.9988,-2.0423,0.0,-2.0228,-2.0303,-1.972,-2.0243,-2.0303,-1.9705,-2.0197,-2.0411,-2.0314,-2.0765,-2.1368,-2.2003,-2.2529,-2.3004,-2.341,-2.3731,-2.4458,-2.5488,-2.5859,-2.6121,-2.6332,-2.6841,-2.7176,-2.7455,-2.8068,-2.8338,-2.8374,-2.881,-2.8994,-2.9104,-2.9934,-3.0627,-3.1206,-3.1654,-3.1725,-3.152,-3.0814,-3.0117,-2.9549,-2.9549,-2.9549,-2.9697,-3.0428,-3.1578,-3.2675,-3.3181,-3.4323,-3.5354,-3.546,-3.5493,-3.5493,-3.5493,-3.5493,-3.5493,-3.5493,-3.5493,-3.5493,-3.5493,-3.443,-3.3622,-3.3622,-3.2891,-3.2564,-3.3045,-3.3814,-3.4501,-3.499,-3.5403,-3.5639,-3.5674,-3.5161,-3.4911,-3.4979,-3.4661,-3.4513,-3.4597,-3.4639,-3.4666,-3.4707,-3.4316,-3.3691,-3.2851,-3.2342,-3.1608,0.0,0.0,-1.3987,-1.3739,-1.3328,-1.2826,0.0,0.0,-1.3065,0.0,-1.4143,-1.4789,-1.5832,-1.5688,-1.5365,-1.5365,-1.4869,-1.4744,-1.5499,-1.5588,-1.6015,-1.7175,-1.8208,-1.8885,-1.8898,-1.9826,-2.0243,0.0,-1.969,-1.969,-1.969,-1.969,-1.9747,-1.9839,-2.0158,-2.0416,-2.0634,-2.1399,-2.1957,-2.231,-2.231,-2.2598,-2.3122,-2.3122,-2.341,-2.3981,-2.4775,-2.526,-2.5533,-2.5967,-2.6322,-2.6667,-2.7255,-2.7622,-2.786,-2.8484,-2.881,-2.9104,-2.9934,-3.0387,-3.0681,-3.1232,-3.103,-3.0551,-3.0283,-2.9643,-2.8994,-2.8994,-2.914,-2.9429,-2.9908,-3.126,-3.2632,-3.31,-3.4391,-3.5493,-3.5493,-3.5493,-3.5493,-3.5493,-3.5493,-3.5493,-3.5493,-3.5493,-3.5493,-3.5493,-3.4757,-3.4199,-3.4199,-3.3622,-3.3468,-3.4122,-3.4237,-3.4622,-3.5507,-3.5391,-3.5391,-3.5661,-3.5039,-3.4711,-3.4845,-3.4905,-3.4936,-3.4959,-3.4962,-3.4878,-3.4707,-3.4707,-3.4141,-3.3086,-3.2438,-3.1627,0.0,-1.4054,0.0,-1.2927,-1.2637,0.0,0.0,0.0,0.0,-1.3684,-1.3815,-1.405,-1.4698,-1.4744,-1.4744,-1.4744,-1.4236,-1.4272,-1.5443,-1.5588,-1.6015,-1.7175,-1.7814,-1.833,-1.8855,-1.9435,-1.972,0.0,-1.969,-1.969,-1.969,-1.969,-1.9874,-2.0246,-2.028,-2.0699,-2.1521,-2.2032,-2.2282,-2.231,-2.231,-2.2327,-2.2361,-2.2361,-2.2395,-2.2525,-2.4576,-2.5482,-2.5559,-2.6277,-2.6573,-2.6612,-2.6649,-2.7126,-2.7805,-2.7842,-2.8356,-2.9104,-2.9934,-3.0387,-3.0567,-3.0351,-3.0446,-3.0397,-2.9388,-2.9035,-2.8994,-2.8994,-2.9549,-3.0259,-3.0791,-3.2128,-3.3468,-3.4002,-3.4834,-3.5493,-3.5493,-3.5493,-3.5493,-3.5493,-3.5493,-3.5493,-3.5493,-3.5493,-3.5493,-3.5493,-3.4757,-3.4199,-3.4199,-3.416,-3.4141,-3.4199,-3.4199,-3.4564,-3.543,-3.4814,-3.4718,-3.5545,-3.5611,-3.5697,-3.5809,-3.5828,-3.5849,-3.5917,-3.5938,-3.5527,-3.4707,-3.4707,-3.3867,-3.2265,-3.2081,-3.1507,0.0,0.0,0.0,-1.266,-1.2092,-1.1677,-1.1677,-1.2078,-1.2639,-1.3236,-1.3605,-1.3873,-1.4097,-1.4097,-1.4097,-1.4097,-1.3956,-1.4097,-1.4926,-1.5664,-1.6562,-1.7693,-1.8302,-1.8817,-1.9369,-1.9603,-1.969,0.0,0.0,-1.969,-1.969,-1.9929,-2.0158,-2.0314,-2.083,-2.143,-2.2032,-2.2209,-2.231,-2.231,-2.231,-2.231,-2.231,-2.231,-2.2371,-2.2607,-2.3593,-2.4021,-2.4069,-2.4772,-2.5052,-2.5162,-2.6209,-2.6778,-2.7145,-2.8191,-2.8737,-2.903,-2.9347,-2.949,-2.9562,-2.9462,-2.949,-2.9507,-2.9113,-2.8994,-2.904,-2.9203,-2.945,-2.9802,-3.0251,-3.1635,-3.3105,-3.3991,-3.4872,-3.5353,-3.4795,-3.5122,-3.5493,-3.5493,-3.5493,-3.5493,-3.5493,-3.5493,-3.5493,-3.5493,-3.5238,-3.5026,-3.5026,-3.5026,-3.4814,-3.4257,-3.4199,-3.4334,-3.4699,-3.4468,-3.4718,-3.5718,-3.5816,-3.5882,-3.5958,-3.5963,-3.5973,-3.6001,-3.5442,-3.5293,-3.5527,-3.4961,-3.4101,-3.2969,-3.2396,-3.1602,-1.4208,0.0,0.0,0.0,0.0,-1.147,-1.144,0.0,-1.2518,-1.2999,-1.3328,-1.359,-1.3794,-1.3642,-1.359,-1.3794,-1.3956,-1.4329,-1.4915,-1.5959,-1.7066,-1.7973,-1.8574,-1.9132,-1.9639,-1.969,-1.969,0.0,0.0,0.0,-1.969,-2.0089,-2.0434,-2.0732,-2.146,-2.1899,-2.2061,-2.2077,-2.2003,-2.1886,-2.2003,-2.2077,-2.2077,-2.2237,-2.2453,-2.2721,-2.3045,-2.3259,-2.3414,-2.3976,-2.419,-2.4337,-2.5676,-2.6355,-2.6759,-2.8099,-2.8778,-2.8994,-2.8994,-2.8994,-2.8994,-2.8994,-2.8994,-2.8994,-2.8994,-2.8994,-2.9062,-2.933,-2.9599,-2.9905,-3.0326,-3.156,-3.2857,-3.3508,-3.4309,-3.474,-3.4068,-3.4769,-3.5493,-3.5493,-3.5493,-3.5493,-3.5493,-3.5493,-3.5493,-3.5493,-3.5257,-3.518,-3.5468,-3.5238,-3.4853,-3.4282,-3.4237,-3.427,-3.436,-3.4392,-3.4835,-3.5848,-3.5927,-3.5957,-3.5996,-3.5996,-3.5859,-3.5566,-3.498,-3.4844,-3.5137,-3.4277,-3.3418,-3.2559,-3.2012,-3.1379,0.0,0.0,0.0,0.0,0.0,0.0,-1.154,0.0,-1.2839,-1.3072,-1.3044,-1.3156,-1.37,-1.3359,-1.3167,-1.371,-1.4297,-1.4903,-1.5543,-1.6574,-1.7504,-1.8027,-1.8574,-1.9132,-1.9639,-1.969,0.0,0.0,-1.969,-1.969,-1.969,-2.0089,-2.0699,-2.1582,-2.2032,-2.2061,-2.1612,-2.1582,-2.1399,-2.0991,-2.1399,-2.1582,-2.1628,-2.2077,-2.2436,-2.2721,-2.3045,-2.3392,-2.3732,-2.4054,-2.417,-2.4244,-2.5069,-2.5858,-2.6646,-2.7512,-2.8301,-2.8957,-2.8975,-2.8994,-2.8994,-2.8994,-2.8994,-2.8994,-2.8994,-2.8994,-2.9044,-2.933,-2.9971,-3.0691,-3.1162,-3.2067,-3.2801,-3.2592,-3.316,-3.3665,-3.3393,-3.4451,-3.5455,-3.5474,-3.5493,-3.5493,-3.5493,-3.5493,-3.5474,-3.5468,-3.4757,-3.4526,-3.5334,-3.4718,-3.4205,-3.4216,-3.4243,-3.4308,-3.4449,-3.4538,-3.4981,-3.5842,-3.5938,-3.5976,-3.5996,-3.5957,-3.5527,-3.4707,-3.4648,-3.4219,-3.3359,-3.2578,-3.1777,-3.0937,-3.0918,-3.082,-1.4415,0.0,0.0,0.0,0.0,0.0,0.0,0.0,0.0,-1.3286,-1.3204,-1.3213,-1.3834,-1.3437,-1.3213,-1.3834,-1.4433,-1.4967,-1.554,-1.6941,-1.7947,-1.8066,-1.893,-1.953,-1.969,0.0,0.0,0.0,-1.969,-1.969,-1.969,-2.0398,-2.1055,-2.1582,-2.1735,-2.1718,-2.1582,-2.1306,-2.1118,-2.0991,-2.1399,-2.1582,-2.1628,-2.2077,-2.2571,-2.3045,-2.2898,-2.3165,-2.3714,-2.3795,-2.3692,-2.3603,-2.4945,-2.5427,-2.5597,-2.7514,-2.8184,-2.8227,-2.8792,-2.8994,-2.8994,-2.8994,-2.8994,-2.8994,-2.8994,-2.8994,-2.9089,-2.9494,-2.9776,-3.0168,-3.1058,-3.1508,-3.1699,-3.1493,-3.2065,-3.25,-3.1996,-3.3153,-3.4454,-3.5089,-3.5369,-3.5493,-3.5493,-3.5493,-3.5295,-3.4641,-3.4891,-3.4776,-3.3757,-3.3949,-3.3757,-3.2615,-3.3064,-3.3474,-3.3551,-3.4154,-3.4886,-3.5706,-3.5229,-3.5173,-3.5749,-3.4677,-3.4238,-3.4629,-3.3476,-3.2773,-3.2539,-3.2305,-3.207,-3.1836,-3.1191,-3.0879,0.0,0.0,0.0,0.0,0.0,0.0,-1.2866,-1.2731,-1.282,0.0,-1.3392,-1.3225,-1.387,-1.3466,-1.3266,-1.391,-1.4309,-1.4785,-1.5514,-1.6894,-1.7867,-1.8066,-1.8855,-1.9442,0.0,-1.969,-1.969,-1.969,-1.969,-1.9782,-1.9929,-2.0431,-2.0926,-2.1337,-2.1337,-2.1275,-2.107,-2.0813,-2.0632,-2.0465,-2.1039,-2.1337,-2.1368,-2.2003,-2.2544,-2.2972,-2.2797,-2.2923,-2.3282,-2.3282,-2.3236,-2.3313,-2.4552,-2.4889,-2.4956,-2.7132,-2.7792,-2.7743,-2.8677,-2.8994,-2.8994,-2.8994,-2.8994,-2.8994,-2.8994,-2.8994,-2.9089,-2.9474,-2.9644,-2.9825,-3.0468,-3.0633,-3.0585,-3.0396,-3.1017,-3.1542,-3.1107,-3.2188,-3.344,-3.4052,-3.4904,-3.5391,-3.5026,-3.5257,-3.5199,-3.4334,-3.4314,-3.4045,-3.3026,-3.3333,-3.3314,-3.2404,-3.3419,-3.4039,-3.378,-3.453,-3.5063,-3.5185,-3.4757,-3.4553,-3.465,-3.3783,-3.3368,-3.3516,-3.2656,-3.2012,-3.166,-3.166,-3.166,-3.1641,-3.1133,-3.0898,0.0,0.0,0.0,0.0,0.0,0.0,-1.3447,-1.338,-1.3446,-1.4034,-1.3636,-1.3354,-1.3922,-1.3533,-1.3329,-1.3894,-1.4112,-1.4538,-1.5542,-1.6619,-1.7518,-1.8052,-1.8612,0.0,-1.9639,-1.969,-1.969,-1.969,-1.969,-1.9839,-2.0212,-2.028,-2.0483,-2.0894,-2.0926,-2.0715,-2.0299,-2.0246,-2.007,-1.9782,-2.0599,-2.1023,-2.1086,-2.1915,-2.2453,-2.2695,-2.2686,-2.2669,-2.2695,-2.2686,-2.2822,-2.3182,-2.3975,-2.4272,-2.4453,-2.6393,-2.7055,-2.7182,-2.8356,-2.8773,-2.8888,-2.8888,-2.892,-2.8994,-2.8994,-2.8994,-2.9062,-2.933,-2.9533,-2.9696,-2.9696,-2.9696,-2.9643,-2.9454,-3.0075,-3.0697,-3.0538,-3.1468,-3.2374,-3.2583,-3.4026,-3.4968,-3.418,-3.4699,-3.4949,-3.416,-3.3468,-3.2987,-3.2795,-3.2929,-3.2994,-3.2872,-3.4414,-3.5184,-3.4532,-3.5129,-3.5232,-3.4507,-3.4295,-3.3884,-3.3203,-3.3071,-3.2677,-3.2009,-3.2027,-3.1654,-3.0873,-3.0898,-3.0898,-3.0898,-3.0898,-3.0898,0.0,0.0,0.0,0.0,0.0,0.0,-1.4428,-1.4178,-1.3941,0.0,-1.4072,-1.3809,-1.4036,-1.3848,-1.3698,-1.3813,-1.4456,-1.5082,-1.5646,-1.6625,-1.7515,-1.8051,-1.8968,0.0,-1.969,-1.969,-1.969,-1.969,-1.969,-1.9711,-1.9803,-2.0124,-2.0348,-2.0449,-2.0449,-2.0382,-2.0314,-1.9965,-1.9929,-2.0193,-2.0731,-2.115,-2.1491,-2.2049,-2.2453,-2.2695,-2.2463,-2.25,-2.2669,-2.2463,-2.2415,-2.2566,-2.33,-2.3374,-2.3249,-2.5154,-2.5642,-2.5529,-2.667,-2.7493,-2.8026,-2.8026,-2.8484,-2.8994,-2.8994,-2.8994,-2.9062,-2.933,-2.9533,-2.9696,-2.9696,-2.9696,-2.9643,-2.9454,-2.9565,-2.9737,-2.9851,-3.0619,-3.1222,-3.0945,-3.2256,-3.3353,-3.3179,-3.3295,-3.3353,-3.3179,-3.3603,-3.3449,-3.2102,-3.3103,-3.3455,-3.2167,-3.3551,-3.4506,-3.4359,-3.4475,-3.4481,-3.427,-3.3,-3.2461,-3.2942,-3.1775,-3.138,-3.1913,-3.1305,-3.0907,-3.0733,-3.0846,-3.0898,-3.0898,-3.0898,-3.0898,0.0,0.0,0.0,-1.4811,0.0,0.0,0.0,-1.4625,-1.436,-1.4725,-1.4463,-1.4176,-1.4117,-1.4013,-1.3927,-1.3821,-1.4317,-1.4814,-1.5158,-1.6413,-1.7487,-1.8025,-1.8817,0.0,-1.969,-1.969,-1.969,-1.969,-1.969,-1.969,-1.969,-1.9909,-2.0,-2.0,-2.0,-2.0,-2.0,-1.9818,-1.9909,-2.0314,-2.0797,-2.1213,-2.1628,-2.2077,-2.236,-2.25,-2.2377,-2.2388,-2.2473,-2.2349,-2.231,-2.2378,-2.3105,-2.3034,-2.2726,-2.4609,-2.5022,-2.4866,-2.6418,-2.7309,-2.786,-2.8282,-2.8686,-2.8994,-2.8994,-2.8994,-2.904,-2.9178,-2.927,-2.9336,-2.9336,-2.9336,-2.9334,-2.9225,-2.931,-2.9454,-2.9661,-3.012,-3.0487,-3.0419,-3.1083,-3.1795,-3.2237,-3.2622,-3.2756,-3.2352,-3.266,-3.2641,-3.1814,-3.2776,-3.341,-3.3038,-3.4147,-3.4718,-3.4301,-3.4257,-3.3872,-3.3006,-3.216,-3.1698,-3.166,-3.0948,-3.0771,-3.1249,-3.0859,-3.0646,-3.0641,-3.0711,-3.076,-3.0752,-3.0752,-3.0769,0.0,0.0,0.0,0.0,0.0,-1.4952,0.0,0.0,0.0,0.0,0.0,0.0,0.0,0.0,0.0,0.0,0.0,0.0,0.0,-1.6108,0.0,-1.7722,-1.8546,0.0,-1.9439,-1.9495,-1.9555,-1.9675,-1.957,-1.9555,-1.9675,-1.969,-1.969,-1.969,-1.969,-1.969,-1.969,-1.969,-1.9945,-2.0449,-2.0829,-2.1244,-2.1764,-2.2135,-2.231,-2.231,-2.231,-2.231,-2.231,-2.231,-2.231,-2.2361,-2.297,-2.2835,-2.2502,-2.4067,-2.4436,-2.4413,-2.6225,-2.7159,-2.7695,-2.8521,-2.8865,-2.8994,-2.8994,-2.8994,-2.8994,-2.8994,-2.8994,-2.9017,-2.9067,-2.9067,-2.9067,-2.9067,-2.9289,-2.9494,-2.9661,-2.9861,-3.0075,-3.0355,-3.0398,-3.0609,-3.1333,-3.1987,-3.2256,-3.1775,-3.1698,-3.1698,-3.1698,-3.241,-3.316,-3.3872,-3.4584,-3.4776,-3.4237,-3.3891,-3.3141,-3.1795,-3.1545,-3.1141,-3.0417,-3.0467,-3.0616,-3.0858,-3.0671,-3.0662,-3.0833,-3.066,-3.0588,-3.0613,-3.0613,-3.0667,0.0,0.0,0.0,0.0,-1.5178,0.0,0.0,0.0,-1.5403,-1.5447,0.0,0.0,0.0,0.0,0.0,0.0,0.0,0.0,-1.494,-1.5699,-1.6327,-1.6653,-1.8411,0.0,0.0,-1.8718,-1.9061,-1.9681,-1.9151,-1.9076,-1.966,-1.969,-1.969,-1.969,-1.969,-1.969,-1.969,-1.969,-2.012,-2.0926,-2.0959,-2.1415,-2.2209,-2.2282,-2.231,-2.231,-2.231,-2.231,-2.231,-2.231,-2.231,-2.231,-2.2395,-2.2378,-2.2338,-2.2806,-2.3133,-2.3502,-2.4756,-2.5863,-2.6869,-2.7677,-2.8429,-2.8994,-2.8994,-2.8994,-2.8994,-2.8994,-2.8994,-2.9044,-2.9289,-2.9351,-2.9351,-2.9351,-2.9494,-2.9678,-2.9696,-2.9861,-3.0075,-3.0355,-3.0398,-3.0417,-3.0533,-3.0609,-3.0929,-3.1602,-3.1698,-3.1698,-3.1698,-3.241,-3.2949,-3.3045,-3.3141,-3.3468,-3.4141,-3.2833,-3.191,-3.1718,-3.0968,-3.0494,-3.0398,-3.0467,-3.0891,-3.1742,-3.0926,-3.0895,-3.1667,-3.0879,-3.0556,-3.0698,-3.0698,-3.0747,0.0,0.0,0.0,0.0,0.0,0.0,-1.5506,0.0,-1.5463,0.0,0.0,0.0,0.0,0.0,0.0,0.0,-1.4519,0.0,0.0,0.0,-1.6387,0.0,0.0,0.0,0.0,0.0,0.0,0.0,-1.9076,-1.8986,-1.9645,-1.969,-1.969,-1.969,-1.969,-1.969,-1.969,-1.9929,-2.0364,-2.0991,-2.1244,-2.1675,-2.231,-2.231,-2.231,-2.231,-2.231,-2.231,-2.231,-2.231,-2.231,-2.231,-2.231,-2.231,-2.2372,-2.3133,-2.3622,-2.4058,-2.5211,-2.634,-2.7438,-2.8227,-2.87,-2.8994,-2.8994,-2.8994,-2.8994,-2.8994,-2.8994,-2.904,-2.9134,-2.9289,-2.9412,-2.9412,-2.9551,-2.9729,-2.9845,-2.9939,-3.0075,-3.0355,-3.0398,-3.0398,-3.0398,-3.0398,-3.0513,-3.0891,-3.0948,-3.1141,-3.1641,-3.1987,-3.2372,-3.2852,-3.2891,-3.2852,-3.2756,-3.2102,-3.1487,-3.0987,-3.059,-3.0398,-3.0398,-3.0417,-3.0629,-3.1032,-3.0629,-3.0609,-3.0994,-3.0609,-3.0518,-3.064,-3.064,-3.0685,-1.4892,0.0,0.0,0.0,0.0,0.0,0.0,0.0,0.0,0.0,0.0,0.0,0.0,0.0,0.0,0.0,0.0,-1.46,0.0,-1.5235,0.0,0.0,0.0,0.0,0.0,0.0,0.0,-1.9346,-1.8807,-1.8807,-1.963,-1.969,-1.969,-1.969,-1.969,-1.9747,-1.9874,-2.0158,-2.0583,-2.115,-2.146,-2.1853,-2.231,-2.231,-2.231,-2.231,-2.231,-2.231,-2.231,-2.231,-2.231,-2.231,-2.231,-2.2366,-2.2538,-2.3281,-2.3797,-2.4271,-2.5625,-2.6995,-2.8227,-2.8815,-2.8994,-2.8994,-2.8994,-2.8994,-2.8994,-2.8994,-2.8994,-2.8994,-2.8994,-2.92,-2.9412,-2.9412,-2.9607,-2.9813,-2.9969,-3.0061,-3.0182,-3.0367,-3.0398,-3.0398,-3.0398,-3.0398,-3.0398,-3.0398,-3.0398,-3.0641,-3.1256,-3.1352,-3.166,-3.2487,-3.2352,-3.2083,-3.1737,-3.1487,-3.1083,-3.0436,-3.0398,-3.0398,-3.0398,-3.0398,-3.0513,-3.0756,-3.0513,-3.0513,-3.0756,-3.0533,-3.05,-3.061,-3.0601,-3.0658,0.0,0.0,0.0,-1.5229,0.0,0.0,0.0,0.0,-1.5389,0.0,0.0,0.0,0.0,0.0,0.0,0.0,0.0,0.0,0.0,0.0,0.0,0.0,0.0,0.0,0.0,-1.716,-1.7309,-1.8642,-1.81,-1.8328,-1.9615,-1.969,-1.969,-1.969,-1.969,-1.9874,-2.028,-2.028,-2.0732,-2.1582,-2.1582,-2.1853,-2.231,-2.231,-2.231,-2.231,-2.231,-2.231,-2.231,-2.231,-2.231,-2.231,-2.231,-2.2497,-2.2764,-2.2747,-2.2958,-2.3525,-2.5427,-2.7359,-2.8957,-2.8975,-2.8994,-2.8994,-2.8994,-2.8994,-2.8994,-2.8994,-2.8994,-2.8994,-2.8994,-2.92,-2.9412,-2.9412,-2.9713,-2.9999,-2.9999,-3.0209,-3.0398,-3.0398,-3.0398,-3.0398,-3.0398,-3.0398,-3.0398,-3.0398,-3.0398,-3.0398,-3.0436,-3.0436,-3.0775,-3.166,-3.0987,-3.0814,-3.1641,-3.0929,-3.0417,-3.0398,-3.0398,-3.0398,-3.0398,-3.0398,-3.0814,-3.1641,-3.0833,-3.0833,-3.166,-3.0891,-3.0525,-3.0606,-3.0603,-3.0708,0.0,0.0,-1.54,-1.5419,0.0,0.0,0.0,0.0,0.0,0.0,0.0,0.0,0.0,0.0,0.0,0.0,0.0,0.0,0.0,0.0,0.0,0.0,0.0,0.0,0.0,0.0,0.0,-1.8642,-1.8493,-1.8747,-1.963,-1.969,-1.969,-1.969,-1.969,-1.9909,-2.0314,-2.0616,-2.1039,-2.1582,-2.1899,-2.2152,-2.231,-2.231,-2.231,-2.231,-2.231,-2.231,-2.231,-2.231,-2.231,-2.2338,-2.25,-2.2625,-2.2764,-2.2947,-2.3573,-2.4595,-2.6559,-2.7665,-2.8301,-2.881,-2.8994,-2.8994,-2.8994,-2.8994,-2.8994,-2.8994,-2.8994,-2.8994,-2.8994,-2.92,-2.9434,-2.957,-2.9796,-3.0061,-3.0241,-3.0343,-3.0398,-3.0398,-3.0398,-3.0398,-3.0398,-3.0398,-3.0398,-3.0398,-3.0398,-3.0398,-3.0398,-3.0398,-3.0513,-3.0814,-3.0571,-3.0513,-3.0814,-3.0571,-3.0398,-3.0398,-3.0398,-3.0398,-3.0398,-3.0398,-3.0533,-3.0833,-3.0552,-3.0552,-3.0852,-3.116,-3.1044,-3.0614,-3.1185,-3.1574,-1.5504,-1.5721,0.0,-1.5689,-1.5774,0.0,-1.517,0.0,-1.4777,0.0,0.0,0.0,0.0,0.0,0.0,0.0,0.0,0.0,0.0,-1.4452,0.0,0.0,0.0,0.0,0.0,0.0,-1.7322,-1.8283,-1.8358,-1.8642,0.0,0.0,-1.9782,-1.9909,-1.9909,-2.0193,-2.0765,-2.107,-2.1446,-2.1853,-2.2152,-2.231,-2.231,-2.231,-2.2209,-2.2061,-2.2237,-2.2209,-2.2061,-2.2237,-2.231,-2.2338,-2.2599,-2.2772,-2.2923,-2.3236,-2.4091,-2.5263,-2.6515,-2.731,-2.7879,-2.8411,-2.8778,-2.8994,-2.8994,-2.8994,-2.8994,-2.8994,-2.8994,-2.8994,-2.8994,-2.92,-2.9434,-2.9551,-2.9796,-3.0061,-3.0209,-3.0323,-3.0398,-3.0398,-3.0398,-3.0398,-3.0398,-3.0398,-3.0398,-3.0398,-3.0398,-3.0398,-3.0398,-3.0398,-3.0398,-3.0398,-3.0398,-3.0398,-3.0398,-3.0679,-3.0737,-3.0417,-3.0968,-3.1025,-3.0417,-3.0698,-3.0871,-3.0871,-3.0552,-3.0552,-3.0871,-3.1121,-3.1013,-3.0609,-3.1177,-3.1867]}]]